Time,TemperatureF,DewpointF,PressureIn,WindDirection,WindDirectionDegrees,WindSpeedMPH,WindSpeedGustMPH,Humidity,HourlyPrecipIn,Conditions,Clouds,dailyrainin,SoftwareType,DateUTC
2013-07-13 00:00:00,60.3,53.1,29.98,WNW,285,5.0,6.0,77,0.00,,SKC,0.00,VWS V14.01,2013-07-13 06:00:00,
2013-07-13 00:01:00,60.2,53.3,29.98,WNW,286,6.0,6.0,78,0.00,,SKC,0.00,VWS V14.01,2013-07-13 06:01:00,
2013-07-13 00:02:00,60.1,53.2,29.98,WNW,283,5.0,6.0,78,0.00,,SKC,0.00,VWS V14.01,2013-07-13 06:02:00,
2013-07-13 00:03:00,60.1,53.2,29.98,West,281,4.0,5.0,78,0.00,,SKC,0.00,VWS V14.01,2013-07-13 06:03:00,
2013-07-13 00:04:00,60.0,53.1,29.98,WNW,283,4.0,5.0,78,0.00,,SKC,0.00,VWS V14.01,2013-07-13 06:04:00,
2013-07-13 00:05:00,60.0,53.1,29.98,WNW,286,5.0,5.0,78,0.00,,SKC,0.00,VWS V14.01,2013-07-13 06:05:00,
2013-07-13 00:06:00,60.0,53.1,29.98,WNW,290,5.0,5.0,78,0.00,,SKC,0.00,VWS V14.01,2013-07-13 06:06:00,
2013-07-13 00:07:00,60.0,53.1,29.98,WNW,292,4.0,5.0,78,0.00,,SKC,0.00,VWS V14.01,2013-07-13 06:07:00,
2013-07-13 00:08:00,60.0,53.1,29.99,North,360,2.0,4.0,78,0.00,,SKC,0.00,VWS V14.01,2013-07-13 06:08:00,
2013-07-13 00:09:00,60.0,53.1,29.98,WNW,296,1.0,2.0,78,0.00,,SKC,0.00,VWS V14.01,2013-07-13 06:09:00,
2013-07-13 00:10:00,60.0,53.5,29.98,WNW,292,0.0,1.0,79,0.00,,SKC,0.00,VWS V14.01,2013-07-13 06:10:00,
2013-07-13 00:11:00,60.0,53.1,29.99,WNW,292,0.0,1.0,78,0.00,,SKC,0.00,VWS V14.01,2013-07-13 06:11:00,
2013-07-13 00:12:00,60.0,53.1,29.98,WNW,296,0.0,0.0,78,0.00,,SKC,0.00,VWS V14.01,2013-07-13 06:12:00,
2013-07-13 00:13:00,60.0,53.5,29.99,WNW,294,0.0,0.0,79,0.00,,SKC,0.00,VWS V14.01,2013-07-13 06:13:00,
2013-07-13 00:14:00,60.0,53.5,29.99,WNW,292,0.0,0.0,79,0.00,,SKC,0.00,VWS V14.01,2013-07-13 06:14:00,
2013-07-13 00:15:00,60.1,53.6,29.99,WNW,289,0.0,0.0,79,0.00,,SKC,0.00,VWS V14.01,2013-07-13 06:15:00,
2013-07-13 00:16:00,60.1,53.6,29.98,WNW,286,0.0,1.0,79,0.00,,SKC,0.00,VWS V14.01,2013-07-13 06:16:00,
2013-07-13 00:17:00,60.1,53.9,29.99,WNW,291,0.0,0.0,80,0.00,,SKC,0.00,VWS V14.01,2013-07-13 06:17:00,
2013-07-13 00:18:00,60.1,53.9,29.99,WNW,292,0.0,0.0,80,0.00,,SKC,0.00,VWS V14.01,2013-07-13 06:18:00,
2013-07-13 00:19:00,60.0,53.8,29.99,WNW,293,0.0,0.0,80,0.00,,SKC,0.00,VWS V14.01,2013-07-13 06:19:00,
2013-07-13 00:20:00,59.9,53.7,29.99,WNW,289,0.0,0.0,80,0.00,,SKC,0.00,VWS V14.01,2013-07-13 06:20:00,
2013-07-13 00:21:00,59.8,53.6,29.99,North,360,0.0,1.0,80,0.00,,SKC,0.00,VWS V14.01,2013-07-13 06:21:00,
2013-07-13 00:22:00,59.7,53.5,29.99,WNW,291,0.0,1.0,80,0.00,,SKC,0.00,VWS V14.01,2013-07-13 06:22:00,
2013-07-13 00:23:00,59.7,53.5,29.99,WNW,293,0.0,1.0,80,0.00,,SKC,0.00,VWS V14.01,2013-07-13 06:23:00,
2013-07-13 00:24:00,59.6,53.4,29.99,WNW,291,0.0,0.0,80,0.00,,SKC,0.00,VWS V14.01,2013-07-13 06:24:00,
2013-07-13 00:25:00,59.6,53.4,29.99,WNW,292,0.0,0.0,80,0.00,,SKC,0.00,VWS V14.01,2013-07-13 06:25:00,
2013-07-13 00:26:00,59.6,53.4,29.99,North,360,0.0,0.0,80,0.00,,SKC,0.00,VWS V14.01,2013-07-13 06:26:00,
2013-07-13 00:27:00,59.6,53.4,29.99,WNW,293,0.0,0.0,80,0.00,,SKC,0.00,VWS V14.01,2013-07-13 06:27:00,
2013-07-13 00:28:00,59.5,53.3,29.99,WNW,296,0.0,0.0,80,0.00,,SKC,0.00,VWS V14.01,2013-07-13 06:28:00,
2013-07-13 00:29:00,59.5,53.3,30.00,WNW,292,0.0,0.0,80,0.00,,SKC,0.00,VWS V14.01,2013-07-13 06:29:00,
2013-07-13 00:30:00,59.5,53.7,29.99,WNW,294,0.0,0.0,81,0.00,,SKC,0.00,VWS V14.01,2013-07-13 06:30:00,
2013-07-13 00:31:00,59.5,53.3,29.99,WNW,292,0.0,1.0,80,0.00,,SKC,0.00,VWS V14.01,2013-07-13 06:31:00,
2013-07-13 00:32:00,59.5,53.3,29.99,WNW,292,0.0,1.0,80,0.00,,SKC,0.00,VWS V14.01,2013-07-13 06:32:00,
2013-07-13 00:33:00,59.5,53.7,29.99,North,360,1.0,1.0,81,0.00,,SKC,0.00,VWS V14.01,2013-07-13 06:33:00,
2013-07-13 00:34:00,59.5,53.7,29.99,WNW,293,0.0,1.0,81,0.00,,SKC,0.00,VWS V14.01,2013-07-13 06:34:00,
2013-07-13 00:35:00,59.4,53.6,29.99,North,360,0.0,0.0,81,0.00,,SKC,0.00,VWS V14.01,2013-07-13 06:35:00,
2013-07-13 00:36:00,59.4,53.6,29.99,North,360,0.0,0.0,81,0.00,,SKC,0.00,VWS V14.01,2013-07-13 06:36:00,
2013-07-13 00:37:00,59.4,53.6,29.99,WNW,294,0.0,0.0,81,0.00,,SKC,0.00,VWS V14.01,2013-07-13 06:37:00,
2013-07-13 00:38:00,59.4,53.6,29.99,WNW,292,0.0,0.0,81,0.00,,SKC,0.00,VWS V14.01,2013-07-13 06:38:00,
2013-07-13 00:39:00,59.4,53.6,30.00,WNW,294,1.0,1.0,81,0.00,,SKC,0.00,VWS V14.01,2013-07-13 06:39:00,
2013-07-13 00:40:00,59.4,53.2,29.99,WNW,295,0.0,1.0,80,0.00,,SKC,0.00,VWS V14.01,2013-07-13 06:40:00,
2013-07-13 00:41:00,59.4,53.2,29.99,WNW,293,0.0,0.0,80,0.00,,SKC,0.00,VWS V14.01,2013-07-13 06:41:00,
2013-07-13 00:42:00,59.4,53.2,29.99,WNW,288,0.0,0.0,80,0.00,,SKC,0.00,VWS V14.01,2013-07-13 06:42:00,
2013-07-13 00:43:00,59.3,53.1,30.00,North,360,0.0,0.0,80,0.00,,SKC,0.00,VWS V14.01,2013-07-13 06:43:00,
2013-07-13 00:44:00,59.3,53.1,29.99,WNW,296,0.0,0.0,80,0.00,,SKC,0.00,VWS V14.01,2013-07-13 06:44:00,
2013-07-13 00:45:00,59.3,53.1,29.99,WNW,292,0.0,0.0,80,0.00,,SKC,0.00,VWS V14.01,2013-07-13 06:45:00,
2013-07-13 00:46:00,59.3,53.1,29.99,WNW,289,0.0,0.0,80,0.00,,SKC,0.00,VWS V14.01,2013-07-13 06:46:00,
2013-07-13 00:47:00,59.3,53.1,29.99,WNW,294,0.0,0.0,80,0.00,,SKC,0.00,VWS V14.01,2013-07-13 06:47:00,
2013-07-13 00:48:00,59.3,53.1,29.99,WNW,290,0.0,0.0,80,0.00,,SKC,0.00,VWS V14.01,2013-07-13 06:48:00,
2013-07-13 00:49:00,59.3,53.5,30.00,WNW,292,0.0,0.0,81,0.00,,SKC,0.00,VWS V14.01,2013-07-13 06:49:00,
2013-07-13 00:50:00,59.3,53.5,30.00,North,360,0.0,1.0,81,0.00,,SKC,0.00,VWS V14.01,2013-07-13 06:50:00,
2013-07-13 00:51:00,59.3,53.5,30.00,WNW,292,0.0,0.0,81,0.00,,SKC,0.00,VWS V14.01,2013-07-13 06:51:00,
2013-07-13 00:52:00,59.3,53.5,30.00,WNW,294,0.0,0.0,81,0.00,,SKC,0.00,VWS V14.01,2013-07-13 06:52:00,
2013-07-13 00:53:00,59.3,53.5,30.00,WNW,292,0.0,0.0,81,0.00,,SKC,0.00,VWS V14.01,2013-07-13 06:53:00,
2013-07-13 00:54:00,59.3,53.1,30.00,North,360,0.0,0.0,80,0.00,,SKC,0.00,VWS V14.01,2013-07-13 06:54:00,
2013-07-13 00:55:00,59.3,53.1,30.00,WNW,293,0.0,0.0,80,0.00,,SKC,0.00,VWS V14.01,2013-07-13 06:55:00,
2013-07-13 00:56:00,59.3,53.1,30.00,WNW,292,0.0,0.0,80,0.00,,SKC,0.00,VWS V14.01,2013-07-13 06:56:00,
2013-07-13 00:57:00,59.4,53.2,30.00,WNW,289,0.0,0.0,80,0.00,,SKC,0.00,VWS V14.01,2013-07-13 06:57:00,
2013-07-13 00:58:00,59.4,53.2,30.00,WNW,291,0.0,0.0,80,0.00,,SKC,0.00,VWS V14.01,2013-07-13 06:58:00,
2013-07-13 00:59:00,59.4,53.2,30.00,North,360,0.0,0.0,80,0.00,,SKC,0.00,VWS V14.01,2013-07-13 06:59:00,
2013-07-13 01:00:00,59.5,53.3,30.00,WNW,292,0.0,0.0,80,0.00,,SKC,0.00,VWS V14.01,2013-07-13 07:00:00,
2013-07-13 01:01:00,59.5,53.3,30.00,WNW,293,0.0,0.0,80,0.00,,SKC,0.00,VWS V14.01,2013-07-13 07:01:00,
2013-07-13 01:02:00,59.5,53.3,30.00,WNW,292,0.0,0.0,80,0.00,,SKC,0.00,VWS V14.01,2013-07-13 07:02:00,
2013-07-13 01:03:00,59.6,53.4,30.00,WNW,293,0.0,0.0,80,0.00,,SKC,0.00,VWS V14.01,2013-07-13 07:03:00,
2013-07-13 01:04:00,59.6,53.1,30.00,WNW,293,0.0,0.0,79,0.00,,SKC,0.00,VWS V14.01,2013-07-13 07:04:00,
2013-07-13 01:05:00,59.7,53.2,30.00,North,360,0.0,0.0,79,0.00,,SKC,0.00,VWS V14.01,2013-07-13 07:05:00,
2013-07-13 01:06:00,59.8,53.3,30.00,North,360,0.0,0.0,79,0.00,,SKC,0.00,VWS V14.01,2013-07-13 07:06:00,
2013-07-13 01:07:00,59.8,52.9,30.00,North,360,0.0,0.0,78,0.00,,SKC,0.00,VWS V14.01,2013-07-13 07:07:00,
2013-07-13 01:08:00,59.8,52.6,30.00,WNW,290,0.0,0.0,77,0.00,,SKC,0.00,VWS V14.01,2013-07-13 07:08:00,
2013-07-13 01:09:00,59.9,53.0,30.00,WNW,290,0.0,0.0,78,0.00,,SKC,0.00,VWS V14.01,2013-07-13 07:09:00,
2013-07-13 01:10:00,59.9,53.4,30.00,North,360,0.0,0.0,79,0.00,,SKC,0.00,VWS V14.01,2013-07-13 07:10:00,
2013-07-13 01:11:00,60.0,53.5,30.00,WNW,292,0.0,0.0,79,0.00,,SKC,0.00,VWS V14.01,2013-07-13 07:11:00,
2013-07-13 01:12:00,60.0,53.5,30.00,WNW,292,0.0,0.0,79,0.00,,SKC,0.00,VWS V14.01,2013-07-13 07:12:00,
2013-07-13 01:13:00,60.0,53.5,30.00,WNW,286,0.0,0.0,79,0.00,,SKC,0.00,VWS V14.01,2013-07-13 07:13:00,
2013-07-13 01:14:00,60.1,53.6,30.00,WNW,294,0.0,0.0,79,0.00,,SKC,0.00,VWS V14.01,2013-07-13 07:14:00,
2013-07-13 01:15:00,60.1,53.6,30.00,WNW,291,0.0,0.0,79,0.00,,SKC,0.00,VWS V14.01,2013-07-13 07:15:00,
2013-07-13 01:16:00,60.1,53.6,30.00,WNW,288,0.0,0.0,79,0.00,,SKC,0.00,VWS V14.01,2013-07-13 07:16:00,
2013-07-13 01:17:00,60.0,53.5,30.00,WNW,292,0.0,1.0,79,0.00,,SKC,0.00,VWS V14.01,2013-07-13 07:17:00,
2013-07-13 01:18:00,60.0,53.5,30.00,WNW,290,0.0,1.0,79,0.00,,SKC,0.00,VWS V14.01,2013-07-13 07:18:00,
2013-07-13 01:19:00,60.0,53.5,30.00,WNW,290,0.0,1.0,79,0.00,,SKC,0.00,VWS V14.01,2013-07-13 07:19:00,
2013-07-13 01:20:00,60.0,53.5,30.00,WNW,290,0.0,0.0,79,0.00,,SKC,0.00,VWS V14.01,2013-07-13 07:20:00,
2013-07-13 01:21:00,59.9,53.7,30.00,WNW,293,0.0,0.0,80,0.00,,SKC,0.00,VWS V14.01,2013-07-13 07:21:00,
2013-07-13 01:22:00,59.9,53.4,30.00,North,360,0.0,0.0,79,0.00,,SKC,0.00,VWS V14.01,2013-07-13 07:22:00,
2013-07-13 01:23:00,59.8,53.3,30.00,WNW,296,0.0,0.0,79,0.00,,SKC,0.00,VWS V14.01,2013-07-13 07:23:00,
2013-07-13 01:24:00,59.8,53.3,30.00,WNW,291,0.0,0.0,79,0.00,,SKC,0.00,VWS V14.01,2013-07-13 07:24:00,
2013-07-13 01:25:00,59.7,52.8,30.00,WNW,293,0.0,0.0,78,0.00,,SKC,0.00,VWS V14.01,2013-07-13 07:25:00,
2013-07-13 01:26:00,59.6,52.7,30.00,WNW,290,0.0,0.0,78,0.00,,SKC,0.00,VWS V14.01,2013-07-13 07:26:00,
2013-07-13 01:27:00,59.6,52.4,30.00,WNW,290,0.0,0.0,77,0.00,,SKC,0.00,VWS V14.01,2013-07-13 07:27:00,
2013-07-13 01:28:00,59.5,52.3,30.00,WNW,292,0.0,0.0,77,0.00,,SKC,0.00,VWS V14.01,2013-07-13 07:28:00,
2013-07-13 01:29:00,59.5,52.3,30.00,WNW,296,0.0,0.0,77,0.00,,SKC,0.00,VWS V14.01,2013-07-13 07:29:00,
2013-07-13 01:30:00,59.5,52.3,30.01,WNW,291,0.0,1.0,77,0.00,,SKC,0.00,VWS V14.01,2013-07-13 07:30:00,
2013-07-13 01:31:00,59.5,52.3,30.01,WNW,292,0.0,1.0,77,0.00,,SKC,0.00,VWS V14.01,2013-07-13 07:31:00,
2013-07-13 01:32:00,59.5,52.3,30.01,North,360,0.0,0.0,77,0.00,,SKC,0.00,VWS V14.01,2013-07-13 07:32:00,
2013-07-13 01:33:00,59.5,52.3,30.01,WNW,293,0.0,0.0,77,0.00,,SKC,0.00,VWS V14.01,2013-07-13 07:33:00,
2013-07-13 01:34:00,59.5,52.3,30.01,WNW,292,0.0,0.0,77,0.00,,SKC,0.00,VWS V14.01,2013-07-13 07:34:00,
2013-07-13 01:35:00,59.5,52.3,30.01,WNW,292,0.0,1.0,77,0.00,,SKC,0.00,VWS V14.01,2013-07-13 07:35:00,
2013-07-13 01:36:00,59.5,51.9,30.01,WNW,290,0.0,0.0,76,0.00,,SKC,0.00,VWS V14.01,2013-07-13 07:36:00,
2013-07-13 01:37:00,59.5,52.3,30.01,WNW,293,0.0,0.0,77,0.00,,SKC,0.00,VWS V14.01,2013-07-13 07:37:00,
2013-07-13 01:38:00,59.4,52.2,30.01,WNW,290,0.0,0.0,77,0.00,,SKC,0.00,VWS V14.01,2013-07-13 07:38:00,
2013-07-13 01:39:00,59.4,52.2,30.01,WNW,291,0.0,1.0,77,0.00,,SKC,0.00,VWS V14.01,2013-07-13 07:39:00,
2013-07-13 01:40:00,59.4,52.2,30.01,North,360,0.0,0.0,77,0.00,,SKC,0.00,VWS V14.01,2013-07-13 07:40:00,
2013-07-13 01:41:00,59.4,52.2,30.01,North,360,0.0,0.0,77,0.00,,SKC,0.00,VWS V14.01,2013-07-13 07:41:00,
2013-07-13 01:42:00,59.4,52.2,30.01,WNW,291,0.0,0.0,77,0.00,,SKC,0.00,VWS V14.01,2013-07-13 07:42:00,
2013-07-13 01:43:00,59.4,52.2,30.01,WNW,288,0.0,0.0,77,0.00,,SKC,0.00,VWS V14.01,2013-07-13 07:43:00,
2013-07-13 01:44:00,59.4,52.2,30.01,North,360,0.0,0.0,77,0.00,,SKC,0.00,VWS V14.01,2013-07-13 07:44:00,
2013-07-13 01:45:00,59.3,52.1,30.01,WNW,288,0.0,0.0,77,0.00,,SKC,0.00,VWS V14.01,2013-07-13 07:45:00,
2013-07-13 01:46:00,59.3,52.1,30.01,North,360,0.0,1.0,77,0.00,,SKC,0.00,VWS V14.01,2013-07-13 07:46:00,
2013-07-13 01:47:00,59.3,52.1,30.01,WNW,290,0.0,1.0,77,0.00,,SKC,0.00,VWS V14.01,2013-07-13 07:47:00,
2013-07-13 01:48:00,59.3,52.5,30.01,WNW,290,0.0,0.0,78,0.00,,SKC,0.00,VWS V14.01,2013-07-13 07:48:00,
2013-07-13 01:49:00,59.2,52.3,30.01,WNW,290,0.0,1.0,78,0.00,,SKC,0.00,VWS V14.01,2013-07-13 07:49:00,
2013-07-13 01:50:00,59.1,52.3,30.01,WNW,290,1.0,1.0,78,0.00,,SKC,0.00,VWS V14.01,2013-07-13 07:50:00,
2013-07-13 01:51:00,59.0,52.2,30.01,WNW,293,1.0,2.0,78,0.00,,SKC,0.00,VWS V14.01,2013-07-13 07:51:00,
2013-07-13 01:52:00,59.0,52.2,30.01,WNW,296,1.0,2.0,78,0.00,,SKC,0.00,VWS V14.01,2013-07-13 07:52:00,
2013-07-13 01:53:00,59.0,52.2,30.01,WNW,291,1.0,2.0,78,0.00,,SKC,0.00,VWS V14.01,2013-07-13 07:53:00,
2013-07-13 01:54:00,59.0,52.2,30.01,WNW,289,1.0,2.0,78,0.00,,SKC,0.00,VWS V14.01,2013-07-13 07:54:00,
2013-07-13 01:55:00,59.0,52.2,30.01,North,360,0.0,2.0,78,0.00,,SKC,0.00,VWS V14.01,2013-07-13 07:55:00,
2013-07-13 01:56:00,59.0,52.2,30.01,WNW,294,0.0,0.0,78,0.00,,SKC,0.00,VWS V14.01,2013-07-13 07:56:00,
2013-07-13 01:57:00,59.0,52.2,30.01,WNW,296,0.0,0.0,78,0.00,,SKC,0.00,VWS V14.01,2013-07-13 07:57:00,
2013-07-13 01:58:00,59.0,52.5,30.01,WNW,288,0.0,1.0,79,0.00,,SKC,0.00,VWS V14.01,2013-07-13 07:58:00,
2013-07-13 01:59:00,59.0,52.5,30.00,WNW,291,0.0,0.0,79,0.00,,SKC,0.00,VWS V14.01,2013-07-13 07:59:00,
2013-07-13 02:00:00,59.0,52.5,30.01,WNW,292,0.0,0.0,79,0.00,,SKC,0.00,VWS V14.01,2013-07-13 08:00:00,
2013-07-13 02:01:00,59.0,52.5,30.00,WNW,290,0.0,0.0,79,0.00,,SKC,0.00,VWS V14.01,2013-07-13 08:01:00,
2013-07-13 02:02:00,59.0,52.5,30.01,WNW,293,0.0,0.0,79,0.00,,SKC,0.00,VWS V14.01,2013-07-13 08:02:00,
2013-07-13 02:03:00,59.0,52.5,30.01,WNW,290,0.0,0.0,79,0.00,,SKC,0.00,VWS V14.01,2013-07-13 08:03:00,
2013-07-13 02:04:00,59.0,52.5,30.00,North,360,0.0,0.0,79,0.00,,SKC,0.00,VWS V14.01,2013-07-13 08:04:00,
2013-07-13 02:05:00,59.0,52.5,30.00,WNW,293,0.0,0.0,79,0.00,,SKC,0.00,VWS V14.01,2013-07-13 08:05:00,
2013-07-13 02:06:00,59.0,52.5,30.00,WNW,290,0.0,0.0,79,0.00,,SKC,0.00,VWS V14.01,2013-07-13 08:06:00,
2013-07-13 02:07:00,59.0,52.5,30.00,WNW,289,0.0,0.0,79,0.00,,SKC,0.00,VWS V14.01,2013-07-13 08:07:00,
2013-07-13 02:08:00,59.0,52.5,30.00,WNW,290,0.0,1.0,79,0.00,,SKC,0.00,VWS V14.01,2013-07-13 08:08:00,
2013-07-13 02:09:00,59.0,52.5,30.01,North,360,0.0,1.0,79,0.00,,SKC,0.00,VWS V14.01,2013-07-13 08:09:00,
2013-07-13 02:10:00,59.0,52.5,30.01,WNW,294,1.0,1.0,79,0.00,,SKC,0.00,VWS V14.01,2013-07-13 08:10:00,
2013-07-13 02:11:00,59.0,52.8,30.00,WNW,294,0.0,1.0,80,0.00,,SKC,0.00,VWS V14.01,2013-07-13 08:11:00,
2013-07-13 02:12:00,59.0,52.8,30.00,WNW,290,0.0,1.0,80,0.00,,SKC,0.00,VWS V14.01,2013-07-13 08:12:00,
2013-07-13 02:13:00,59.0,52.8,30.00,North,360,0.0,0.0,80,0.00,,SKC,0.00,VWS V14.01,2013-07-13 08:13:00,
2013-07-13 02:14:00,59.0,52.8,30.00,WNW,293,0.0,0.0,80,0.00,,SKC,0.00,VWS V14.01,2013-07-13 08:14:00,
2013-07-13 02:15:00,59.0,52.8,30.00,WNW,292,0.0,0.0,80,0.00,,SKC,0.00,VWS V14.01,2013-07-13 08:15:00,
2013-07-13 02:16:00,59.0,52.8,30.00,WNW,291,0.0,0.0,80,0.00,,SKC,0.00,VWS V14.01,2013-07-13 08:16:00,
2013-07-13 02:17:00,59.0,52.8,30.00,WNW,289,0.0,0.0,80,0.00,,SKC,0.00,VWS V14.01,2013-07-13 08:17:00,
2013-07-13 02:18:00,59.0,52.8,30.00,WNW,294,0.0,0.0,80,0.00,,SKC,0.00,VWS V14.01,2013-07-13 08:18:00,
2013-07-13 02:19:00,59.0,52.8,30.00,WNW,291,0.0,0.0,80,0.00,,SKC,0.00,VWS V14.01,2013-07-13 08:19:00,
2013-07-13 02:20:00,59.0,52.5,30.00,WNW,292,0.0,0.0,79,0.00,,SKC,0.00,VWS V14.01,2013-07-13 08:20:00,
2013-07-13 02:21:00,59.0,52.8,30.00,WNW,292,0.0,0.0,80,0.00,,SKC,0.00,VWS V14.01,2013-07-13 08:21:00,
2013-07-13 02:22:00,59.0,52.8,30.00,WNW,293,0.0,0.0,80,0.00,,SKC,0.00,VWS V14.01,2013-07-13 08:22:00,
2013-07-13 02:23:00,59.0,52.5,30.00,WNW,292,0.0,0.0,79,0.00,,SKC,0.00,VWS V14.01,2013-07-13 08:23:00,
2013-07-13 02:24:00,59.0,52.8,30.00,North,360,0.0,0.0,80,0.00,,SKC,0.00,VWS V14.01,2013-07-13 08:24:00,
2013-07-13 02:25:00,59.0,52.8,30.00,WNW,296,0.0,0.0,80,0.00,,SKC,0.00,VWS V14.01,2013-07-13 08:25:00,
2013-07-13 02:26:00,59.0,52.8,30.00,North,360,0.0,0.0,80,0.00,,SKC,0.00,VWS V14.01,2013-07-13 08:26:00,
2013-07-13 02:27:00,59.0,52.5,30.00,North,360,0.0,0.0,79,0.00,,SKC,0.00,VWS V14.01,2013-07-13 08:27:00,
2013-07-13 02:28:00,59.0,52.5,30.00,WNW,296,0.0,0.0,79,0.00,,SKC,0.00,VWS V14.01,2013-07-13 08:28:00,
2013-07-13 02:29:00,59.0,52.5,30.00,WNW,291,0.0,1.0,79,0.00,,SKC,0.00,VWS V14.01,2013-07-13 08:29:00,
2013-07-13 02:30:00,59.0,52.5,30.00,WNW,291,0.0,0.0,79,0.00,,SKC,0.00,VWS V14.01,2013-07-13 08:30:00,
2013-07-13 02:31:00,58.9,52.4,30.00,North,360,0.0,0.0,79,0.00,,SKC,0.00,VWS V14.01,2013-07-13 08:31:00,
2013-07-13 02:32:00,58.9,52.4,30.00,WNW,292,0.0,1.0,79,0.00,,SKC,0.00,VWS V14.01,2013-07-13 08:32:00,
2013-07-13 02:33:00,58.9,52.1,30.00,North,360,0.0,0.0,78,0.00,,SKC,0.00,VWS V14.01,2013-07-13 08:33:00,
2013-07-13 02:34:00,58.9,52.1,30.00,WNW,294,1.0,1.0,78,0.00,,SKC,0.00,VWS V14.01,2013-07-13 08:34:00,
2013-07-13 02:35:00,59.0,52.5,30.00,WNW,292,0.0,1.0,79,0.00,,SKC,0.00,VWS V14.01,2013-07-13 08:35:00,
2013-07-13 02:36:00,59.0,52.5,30.01,North,360,0.0,0.0,79,0.00,,SKC,0.00,VWS V14.01,2013-07-13 08:36:00,
2013-07-13 02:37:00,59.0,52.5,30.00,WNW,288,0.0,0.0,79,0.00,,SKC,0.00,VWS V14.01,2013-07-13 08:37:00,
2013-07-13 02:38:00,59.0,52.5,30.01,WNW,290,0.0,0.0,79,0.00,,SKC,0.00,VWS V14.01,2013-07-13 08:38:00,
2013-07-13 02:39:00,59.0,52.5,30.00,WNW,292,0.0,0.0,79,0.00,,SKC,0.00,VWS V14.01,2013-07-13 08:39:00,
2013-07-13 02:40:00,59.0,52.5,30.01,WNW,296,0.0,0.0,79,0.00,,SKC,0.00,VWS V14.01,2013-07-13 08:40:00,
2013-07-13 02:41:00,59.0,52.2,30.01,WNW,292,0.0,0.0,78,0.00,,SKC,0.00,VWS V14.01,2013-07-13 08:41:00,
2013-07-13 02:42:00,59.0,52.2,30.01,WNW,294,0.0,0.0,78,0.00,,SKC,0.00,VWS V14.01,2013-07-13 08:42:00,
2013-07-13 02:43:00,59.0,52.2,30.01,WNW,292,0.0,0.0,78,0.00,,SKC,0.00,VWS V14.01,2013-07-13 08:43:00,
2013-07-13 02:44:00,59.0,52.2,30.01,WNW,288,0.0,0.0,78,0.00,,SKC,0.00,VWS V14.01,2013-07-13 08:44:00,
2013-07-13 02:45:00,59.0,52.2,30.01,WNW,294,0.0,0.0,78,0.00,,SKC,0.00,VWS V14.01,2013-07-13 08:45:00,
2013-07-13 02:46:00,59.0,52.5,30.00,WNW,292,0.0,0.0,79,0.00,,SKC,0.00,VWS V14.01,2013-07-13 08:46:00,
2013-07-13 02:47:00,59.0,52.5,30.01,WNW,293,0.0,0.0,79,0.00,,SKC,0.00,VWS V14.01,2013-07-13 08:47:00,
2013-07-13 02:48:00,59.0,52.5,30.01,WNW,294,0.0,0.0,79,0.00,,SKC,0.00,VWS V14.01,2013-07-13 08:48:00,
2013-07-13 02:49:00,59.0,52.2,30.01,North,360,0.0,0.0,78,0.00,,SKC,0.00,VWS V14.01,2013-07-13 08:49:00,
2013-07-13 02:50:00,59.0,52.2,30.01,WNW,295,0.0,0.0,78,0.00,,SKC,0.00,VWS V14.01,2013-07-13 08:50:00,
2013-07-13 02:51:00,59.0,52.2,30.01,WNW,290,0.0,0.0,78,0.00,,SKC,0.00,VWS V14.01,2013-07-13 08:51:00,
2013-07-13 02:52:00,59.0,52.2,30.01,WNW,290,0.0,0.0,78,0.00,,SKC,0.00,VWS V14.01,2013-07-13 08:52:00,
2013-07-13 02:53:00,59.0,52.2,30.00,North,360,0.0,0.0,78,0.00,,SKC,0.00,VWS V14.01,2013-07-13 08:53:00,
2013-07-13 02:54:00,59.0,51.8,30.01,WNW,294,0.0,0.0,77,0.00,,SKC,0.00,VWS V14.01,2013-07-13 08:54:00,
2013-07-13 02:55:00,59.0,51.8,30.01,WNW,292,1.0,1.0,77,0.00,,SKC,0.00,VWS V14.01,2013-07-13 08:55:00,
2013-07-13 02:56:00,59.0,51.8,30.01,WNW,291,0.0,1.0,77,0.00,,SKC,0.00,VWS V14.01,2013-07-13 08:56:00,
2013-07-13 02:57:00,59.0,52.2,30.01,North,360,0.0,1.0,78,0.00,,SKC,0.00,VWS V14.01,2013-07-13 08:57:00,
2013-07-13 02:58:00,59.0,52.2,30.01,WNW,290,1.0,2.0,78,0.00,,SKC,0.00,VWS V14.01,2013-07-13 08:58:00,
2013-07-13 02:59:00,59.0,52.2,30.01,WNW,292,1.0,1.0,78,0.00,,SKC,0.00,VWS V14.01,2013-07-13 08:59:00,
2013-07-13 03:00:00,59.0,52.2,30.00,WNW,288,3.0,3.0,78,0.00,,SKC,0.00,VWS V14.01,2013-07-13 09:00:00,
2013-07-13 03:01:00,59.0,51.8,30.01,WNW,292,1.0,3.0,77,0.00,,SKC,0.00,VWS V14.01,2013-07-13 09:01:00,
2013-07-13 03:02:00,59.0,51.8,30.00,WNW,291,1.0,2.0,77,0.00,,SKC,0.00,VWS V14.01,2013-07-13 09:02:00,
2013-07-13 03:03:00,59.0,51.8,30.01,WNW,292,0.0,2.0,77,0.00,,SKC,0.00,VWS V14.01,2013-07-13 09:03:00,
2013-07-13 03:04:00,59.0,51.8,30.01,WNW,291,2.0,4.0,77,0.00,,SKC,0.00,VWS V14.01,2013-07-13 09:04:00,
2013-07-13 03:05:00,59.0,51.8,30.01,WNW,294,0.0,2.0,77,0.00,,SKC,0.00,VWS V14.01,2013-07-13 09:05:00,
2013-07-13 03:06:00,59.0,52.2,30.01,WNW,294,0.0,1.0,78,0.00,,SKC,0.00,VWS V14.01,2013-07-13 09:06:00,
2013-07-13 03:07:00,59.0,51.8,30.00,WNW,294,1.0,1.0,77,0.00,,SKC,0.00,VWS V14.01,2013-07-13 09:07:00,
2013-07-13 03:08:00,59.0,51.8,30.00,WNW,290,1.0,2.0,77,0.00,,SKC,0.00,VWS V14.01,2013-07-13 09:08:00,
2013-07-13 03:09:00,59.0,51.8,30.00,WNW,293,0.0,1.0,77,0.00,,SKC,0.00,VWS V14.01,2013-07-13 09:09:00,
2013-07-13 03:10:00,59.0,51.8,30.00,WNW,291,0.0,1.0,77,0.00,,SKC,0.00,VWS V14.01,2013-07-13 09:10:00,
2013-07-13 03:11:00,59.1,51.5,30.00,WNW,294,0.0,0.0,76,0.00,,SKC,0.00,VWS V14.01,2013-07-13 09:11:00,
2013-07-13 03:12:00,59.1,51.9,30.00,North,360,0.0,0.0,77,0.00,,SKC,0.00,VWS V14.01,2013-07-13 09:12:00,
2013-07-13 03:13:00,59.2,52.3,30.00,North,360,0.0,0.0,78,0.00,,SKC,0.00,VWS V14.01,2013-07-13 09:13:00,
2013-07-13 03:14:00,59.3,52.5,30.00,WNW,294,0.0,1.0,78,0.00,,SKC,0.00,VWS V14.01,2013-07-13 09:14:00,
2013-07-13 03:15:00,59.3,52.5,30.00,WNW,290,0.0,0.0,78,0.00,,SKC,0.00,VWS V14.01,2013-07-13 09:15:00,
2013-07-13 03:16:00,59.4,52.5,30.00,WNW,293,0.0,0.0,78,0.00,,SKC,0.00,VWS V14.01,2013-07-13 09:16:00,
2013-07-13 03:17:00,59.4,52.5,30.00,WNW,294,0.0,0.0,78,0.00,,SKC,0.00,VWS V14.01,2013-07-13 09:17:00,
2013-07-13 03:18:00,59.4,52.5,30.00,WNW,294,0.0,0.0,78,0.00,,SKC,0.00,VWS V14.01,2013-07-13 09:18:00,
2013-07-13 03:19:00,59.4,52.5,30.00,North,360,0.0,0.0,78,0.00,,SKC,0.00,VWS V14.01,2013-07-13 09:19:00,
2013-07-13 03:20:00,59.4,52.2,30.00,WNW,290,0.0,0.0,77,0.00,,SKC,0.00,VWS V14.01,2013-07-13 09:20:00,
2013-07-13 03:21:00,59.3,52.1,30.00,WNW,288,0.0,0.0,77,0.00,,SKC,0.00,VWS V14.01,2013-07-13 09:21:00,
2013-07-13 03:22:00,59.3,52.1,30.00,North,360,0.0,0.0,77,0.00,,SKC,0.00,VWS V14.01,2013-07-13 09:22:00,
2013-07-13 03:23:00,59.3,52.1,30.00,North,360,0.0,0.0,77,0.00,,SKC,0.00,VWS V14.01,2013-07-13 09:23:00,
2013-07-13 03:24:00,59.2,52.0,30.00,WNW,290,0.0,0.0,77,0.00,,SKC,0.00,VWS V14.01,2013-07-13 09:24:00,
2013-07-13 03:25:00,59.1,51.9,30.00,WNW,291,0.0,0.0,77,0.00,,SKC,0.00,VWS V14.01,2013-07-13 09:25:00,
2013-07-13 03:26:00,59.0,51.8,30.00,WNW,294,0.0,0.0,77,0.00,,SKC,0.00,VWS V14.01,2013-07-13 09:26:00,
2013-07-13 03:27:00,59.0,51.8,30.00,WNW,292,2.0,2.0,77,0.00,,SKC,0.00,VWS V14.01,2013-07-13 09:27:00,
2013-07-13 03:28:00,59.0,51.8,30.00,WNW,294,2.0,2.0,77,0.00,,SKC,0.00,VWS V14.01,2013-07-13 09:28:00,
2013-07-13 03:29:00,59.0,51.8,30.00,WNW,292,1.0,2.0,77,0.00,,SKC,0.00,VWS V14.01,2013-07-13 09:29:00,
2013-07-13 03:30:00,59.0,52.2,30.00,North,360,0.0,1.0,78,0.00,,SKC,0.00,VWS V14.01,2013-07-13 09:30:00,
2013-07-13 03:31:00,59.0,52.2,30.00,WNW,290,0.0,1.0,78,0.00,,SKC,0.00,VWS V14.01,2013-07-13 09:31:00,
2013-07-13 03:32:00,59.0,52.2,30.00,WNW,288,0.0,0.0,78,0.00,,SKC,0.00,VWS V14.01,2013-07-13 09:32:00,
2013-07-13 03:33:00,59.0,52.2,30.00,WNW,292,0.0,0.0,78,0.00,,SKC,0.00,VWS V14.01,2013-07-13 09:33:00,
2013-07-13 03:34:00,58.9,52.4,30.00,WNW,290,0.0,0.0,79,0.00,,SKC,0.00,VWS V14.01,2013-07-13 09:34:00,
2013-07-13 03:35:00,58.8,52.3,30.00,WNW,292,0.0,1.0,79,0.00,,SKC,0.00,VWS V14.01,2013-07-13 09:35:00,
2013-07-13 03:36:00,58.8,52.3,30.00,North,360,0.0,0.0,79,0.00,,SKC,0.00,VWS V14.01,2013-07-13 09:36:00,
2013-07-13 03:37:00,58.7,52.2,30.00,WNW,289,0.0,2.0,79,0.00,,SKC,0.00,VWS V14.01,2013-07-13 09:37:00,
2013-07-13 03:38:00,58.7,52.2,30.00,North,360,1.0,1.0,79,0.00,,SKC,0.00,VWS V14.01,2013-07-13 09:38:00,
2013-07-13 03:39:00,58.6,52.1,29.99,WNW,292,0.0,1.0,79,0.00,,SKC,0.00,VWS V14.01,2013-07-13 09:39:00,
2013-07-13 03:40:00,58.6,52.1,29.99,WNW,289,0.0,0.0,79,0.00,,SKC,0.00,VWS V14.01,2013-07-13 09:40:00,
2013-07-13 03:41:00,58.5,52.0,29.99,WNW,292,0.0,0.0,79,0.00,,SKC,0.00,VWS V14.01,2013-07-13 09:41:00,
2013-07-13 03:42:00,58.5,52.0,29.99,WNW,288,0.0,0.0,79,0.00,,SKC,0.00,VWS V14.01,2013-07-13 09:42:00,
2013-07-13 03:43:00,58.4,51.9,29.99,WNW,292,0.0,0.0,79,0.00,,SKC,0.00,VWS V14.01,2013-07-13 09:43:00,
2013-07-13 03:44:00,58.4,51.9,29.99,WNW,295,0.0,0.0,79,0.00,,SKC,0.00,VWS V14.01,2013-07-13 09:44:00,
2013-07-13 03:45:00,58.4,51.9,29.99,WNW,292,0.0,0.0,79,0.00,,SKC,0.00,VWS V14.01,2013-07-13 09:45:00,
2013-07-13 03:46:00,58.4,51.9,29.99,WNW,293,0.0,0.0,79,0.00,,SKC,0.00,VWS V14.01,2013-07-13 09:46:00,
2013-07-13 03:47:00,58.4,51.9,29.99,WNW,290,0.0,0.0,79,0.00,,SKC,0.00,VWS V14.01,2013-07-13 09:47:00,
2013-07-13 03:48:00,58.4,51.9,29.99,WNW,291,0.0,0.0,79,0.00,,SKC,0.00,VWS V14.01,2013-07-13 09:48:00,
2013-07-13 03:49:00,58.4,51.9,29.99,WNW,290,0.0,0.0,79,0.00,,SKC,0.00,VWS V14.01,2013-07-13 09:49:00,
2013-07-13 03:50:00,58.4,51.9,29.99,WNW,288,0.0,0.0,79,0.00,,SKC,0.00,VWS V14.01,2013-07-13 09:50:00,
2013-07-13 03:51:00,58.4,51.9,29.99,WNW,287,0.0,0.0,79,0.00,,SKC,0.00,VWS V14.01,2013-07-13 09:51:00,
2013-07-13 03:52:00,58.5,52.0,29.99,WNW,292,0.0,1.0,79,0.00,,SKC,0.00,VWS V14.01,2013-07-13 09:52:00,
2013-07-13 03:53:00,58.5,52.0,29.99,WNW,294,0.0,0.0,79,0.00,,SKC,0.00,VWS V14.01,2013-07-13 09:53:00,
2013-07-13 03:54:00,58.6,51.8,29.99,WNW,292,0.0,0.0,78,0.00,,SKC,0.00,VWS V14.01,2013-07-13 09:54:00,
2013-07-13 03:55:00,58.6,51.8,29.99,WNW,296,0.0,0.0,78,0.00,,SKC,0.00,VWS V14.01,2013-07-13 09:55:00,
2013-07-13 03:56:00,58.7,52.2,29.99,WNW,292,0.0,0.0,79,0.00,,SKC,0.00,VWS V14.01,2013-07-13 09:56:00,
2013-07-13 03:57:00,58.7,51.9,29.99,WNW,294,0.0,1.0,78,0.00,,SKC,0.00,VWS V14.01,2013-07-13 09:57:00,
2013-07-13 03:58:00,58.8,52.0,29.99,WNW,290,0.0,0.0,78,0.00,,SKC,0.00,VWS V14.01,2013-07-13 09:58:00,
2013-07-13 03:59:00,58.9,52.4,29.99,WNW,292,0.0,0.0,79,0.00,,SKC,0.00,VWS V14.01,2013-07-13 09:59:00,
2013-07-13 04:00:00,58.9,52.1,29.99,North,360,0.0,0.0,78,0.00,,SKC,0.00,VWS V14.01,2013-07-13 10:00:00,
2013-07-13 04:01:00,58.9,52.1,29.99,WNW,296,0.0,0.0,78,0.00,,SKC,0.00,VWS V14.01,2013-07-13 10:01:00,
2013-07-13 04:02:00,58.9,51.7,29.99,WNW,291,0.0,0.0,77,0.00,,SKC,0.00,VWS V14.01,2013-07-13 10:02:00,
2013-07-13 04:03:00,58.9,51.7,29.99,WNW,295,0.0,1.0,77,0.00,,SKC,0.00,VWS V14.01,2013-07-13 10:03:00,
2013-07-13 04:04:00,59.0,51.8,29.99,WNW,296,0.0,2.0,77,0.00,,SKC,0.00,VWS V14.01,2013-07-13 10:04:00,
2013-07-13 04:05:00,59.0,51.8,29.99,WNW,296,0.0,0.0,77,0.00,,SKC,0.00,VWS V14.01,2013-07-13 10:05:00,
2013-07-13 04:06:00,59.0,51.8,29.99,WNW,294,0.0,1.0,77,0.00,,SKC,0.00,VWS V14.01,2013-07-13 10:06:00,
2013-07-13 04:07:00,59.0,51.8,29.99,WNW,296,3.0,3.0,77,0.00,,SKC,0.00,VWS V14.01,2013-07-13 10:07:00,
2013-07-13 04:08:00,59.0,51.8,29.99,WNW,297,1.0,3.0,77,0.00,,SKC,0.00,VWS V14.01,2013-07-13 10:08:00,
2013-07-13 04:09:00,59.0,51.8,29.99,WNW,300,1.0,1.0,77,0.00,,SKC,0.00,VWS V14.01,2013-07-13 10:09:00,
2013-07-13 04:10:00,59.0,51.8,29.99,WNW,291,0.0,1.0,77,0.00,,SKC,0.00,VWS V14.01,2013-07-13 10:10:00,
2013-07-13 04:11:00,59.0,51.5,29.99,WNW,294,0.0,1.0,76,0.00,,SKC,0.00,VWS V14.01,2013-07-13 10:11:00,
2013-07-13 04:12:00,59.0,51.5,29.99,WNW,296,0.0,0.0,76,0.00,,SKC,0.00,VWS V14.01,2013-07-13 10:12:00,
2013-07-13 04:13:00,59.0,51.5,29.99,WNW,296,0.0,0.0,76,0.00,,SKC,0.00,VWS V14.01,2013-07-13 10:13:00,
2013-07-13 04:14:00,59.0,51.5,29.99,North,360,0.0,0.0,76,0.00,,SKC,0.00,VWS V14.01,2013-07-13 10:14:00,
2013-07-13 04:15:00,59.0,51.8,29.99,WNW,294,0.0,0.0,77,0.00,,SKC,0.00,VWS V14.01,2013-07-13 10:15:00,
2013-07-13 04:16:00,59.0,51.8,29.99,North,360,0.0,0.0,77,0.00,,SKC,0.00,VWS V14.01,2013-07-13 10:16:00,
2013-07-13 04:17:00,59.0,52.2,29.99,WNW,293,0.0,0.0,78,0.00,,SKC,0.00,VWS V14.01,2013-07-13 10:17:00,
2013-07-13 04:18:00,59.0,52.2,29.99,North,360,0.0,0.0,78,0.00,,SKC,0.00,VWS V14.01,2013-07-13 10:18:00,
2013-07-13 04:19:00,59.0,52.2,29.99,WNW,292,0.0,0.0,78,0.00,,SKC,0.00,VWS V14.01,2013-07-13 10:19:00,
2013-07-13 04:20:00,59.0,52.2,29.99,WNW,296,0.0,0.0,78,0.00,,SKC,0.00,VWS V14.01,2013-07-13 10:20:00,
2013-07-13 04:21:00,59.0,52.2,29.99,WNW,295,0.0,0.0,78,0.00,,SKC,0.00,VWS V14.01,2013-07-13 10:21:00,
2013-07-13 04:22:00,59.0,51.8,29.99,WNW,293,0.0,0.0,77,0.00,,SKC,0.00,VWS V14.01,2013-07-13 10:22:00,
2013-07-13 04:23:00,59.0,51.8,29.99,WNW,296,0.0,0.0,77,0.00,,SKC,0.00,VWS V14.01,2013-07-13 10:23:00,
2013-07-13 04:24:00,59.0,51.8,29.99,WNW,294,0.0,1.0,77,0.00,,SKC,0.00,VWS V14.01,2013-07-13 10:24:00,
2013-07-13 04:25:00,59.0,51.8,29.99,WNW,292,0.0,1.0,77,0.00,,SKC,0.00,VWS V14.01,2013-07-13 10:25:00,
2013-07-13 04:26:00,59.0,52.2,29.99,NNE,27,4.0,4.0,78,0.00,,SKC,0.00,VWS V14.01,2013-07-13 10:26:00,
2013-07-13 04:27:00,59.0,52.2,29.99,NE,35,3.0,4.0,78,0.00,,SKC,0.00,VWS V14.01,2013-07-13 10:27:00,
2013-07-13 04:28:00,59.0,52.2,29.99,NE,49,2.0,4.0,78,0.00,,SKC,0.00,VWS V14.01,2013-07-13 10:28:00,
2013-07-13 04:29:00,59.0,51.8,29.99,ENE,61,0.0,2.0,77,0.00,,SKC,0.00,VWS V14.01,2013-07-13 10:29:00,
2013-07-13 04:30:00,59.0,51.8,29.99,ENE,57,3.0,3.0,77,0.00,,SKC,0.00,VWS V14.01,2013-07-13 10:30:00,
2013-07-13 04:31:00,59.0,51.8,30.00,ENE,59,0.0,4.0,77,0.00,,SKC,0.00,VWS V14.01,2013-07-13 10:31:00,
2013-07-13 04:32:00,59.0,51.8,29.99,ENE,59,2.0,2.0,77,0.00,,SKC,0.00,VWS V14.01,2013-07-13 10:32:00,
2013-07-13 04:33:00,59.0,51.8,29.99,ENE,68,4.0,5.0,77,0.00,,SKC,0.00,VWS V14.01,2013-07-13 10:33:00,
2013-07-13 04:34:00,59.0,51.5,29.99,ENE,66,2.0,5.0,76,0.00,,SKC,0.00,VWS V14.01,2013-07-13 10:34:00,
2013-07-13 04:35:00,59.0,51.8,30.00,ENE,71,1.0,2.0,77,0.00,,SKC,0.00,VWS V14.01,2013-07-13 10:35:00,
2013-07-13 04:36:00,59.0,51.8,30.00,ENE,71,1.0,3.0,77,0.00,,SKC,0.00,VWS V14.01,2013-07-13 10:36:00,
2013-07-13 04:37:00,59.0,51.8,30.00,ENE,75,1.0,1.0,77,0.00,,SKC,0.00,VWS V14.01,2013-07-13 10:37:00,
2013-07-13 04:38:00,59.0,51.8,30.00,ENE,76,1.0,2.0,77,0.00,,SKC,0.00,VWS V14.01,2013-07-13 10:38:00,
2013-07-13 04:39:00,59.0,51.8,30.00,ENE,69,0.0,1.0,77,0.00,,SKC,0.00,VWS V14.01,2013-07-13 10:39:00,
2013-07-13 04:40:00,59.0,51.8,30.00,ENE,70,0.0,0.0,77,0.00,,SKC,0.00,VWS V14.01,2013-07-13 10:40:00,
2013-07-13 04:41:00,59.0,51.5,30.00,ENE,72,0.0,0.0,76,0.00,,SKC,0.00,VWS V14.01,2013-07-13 10:41:00,
2013-07-13 04:42:00,59.0,51.5,30.00,ENE,67,0.0,1.0,76,0.00,,SKC,0.00,VWS V14.01,2013-07-13 10:42:00,
2013-07-13 04:43:00,59.0,51.1,30.00,NW,320,3.0,3.0,75,0.00,,SKC,0.00,VWS V14.01,2013-07-13 10:43:00,
2013-07-13 04:44:00,59.0,51.1,30.00,WNW,303,5.0,5.0,75,0.00,,SKC,0.00,VWS V14.01,2013-07-13 10:44:00,
2013-07-13 04:45:00,59.0,51.1,30.00,WNW,302,3.0,5.0,75,0.00,,SKC,0.00,VWS V14.01,2013-07-13 10:45:00,
2013-07-13 04:46:00,59.0,51.1,30.00,WNW,293,5.0,6.0,75,0.00,,SKC,0.00,VWS V14.01,2013-07-13 10:46:00,
2013-07-13 04:47:00,59.0,51.1,30.00,WNW,294,3.0,5.0,75,0.00,,SKC,0.00,VWS V14.01,2013-07-13 10:47:00,
2013-07-13 04:48:00,59.0,51.1,30.00,WNW,295,3.0,3.0,75,0.00,,SKC,0.00,VWS V14.01,2013-07-13 10:48:00,
2013-07-13 04:49:00,59.0,51.1,30.01,WNW,292,3.0,4.0,75,0.00,,SKC,0.00,VWS V14.01,2013-07-13 10:49:00,
2013-07-13 04:50:00,59.0,51.1,30.00,North,360,3.0,4.0,75,0.00,,SKC,0.00,VWS V14.01,2013-07-13 10:50:00,
2013-07-13 04:51:00,59.1,50.8,30.01,WNW,291,2.0,3.0,74,0.00,,SKC,0.00,VWS V14.01,2013-07-13 10:51:00,
2013-07-13 04:52:00,59.2,50.9,30.01,North,360,0.0,3.0,74,0.00,,SKC,0.00,VWS V14.01,2013-07-13 10:52:00,
2013-07-13 04:53:00,59.3,51.0,30.01,WNW,294,0.0,0.0,74,0.00,,SKC,0.00,VWS V14.01,2013-07-13 10:53:00,
2013-07-13 04:54:00,59.3,51.0,30.00,WNW,296,0.0,0.0,74,0.00,,SKC,0.00,VWS V14.01,2013-07-13 10:54:00,
2013-07-13 04:55:00,59.4,51.5,30.00,WNW,298,0.0,1.0,75,0.00,,SKC,0.00,VWS V14.01,2013-07-13 10:55:00,
2013-07-13 04:56:00,59.5,51.6,30.00,WNW,290,0.0,0.0,75,0.00,,SKC,0.00,VWS V14.01,2013-07-13 10:56:00,
2013-07-13 04:57:00,59.5,51.2,30.00,WNW,297,0.0,0.0,74,0.00,,SKC,0.00,VWS V14.01,2013-07-13 10:57:00,
2013-07-13 04:58:00,59.5,51.6,30.00,North,360,0.0,0.0,75,0.00,,SKC,0.00,VWS V14.01,2013-07-13 10:58:00,
2013-07-13 04:59:00,59.5,51.2,30.00,WNW,292,0.0,0.0,74,0.00,,SKC,0.00,VWS V14.01,2013-07-13 10:59:00,
2013-07-13 05:00:00,59.5,51.6,30.01,WNW,290,0.0,0.0,75,0.00,,SKC,0.00,VWS V14.01,2013-07-13 11:00:00,
2013-07-13 05:01:00,59.5,51.6,30.00,WNW,294,0.0,0.0,75,0.00,,SKC,0.00,VWS V14.01,2013-07-13 11:01:00,
2013-07-13 05:02:00,59.5,51.6,30.01,WNW,299,0.0,0.0,75,0.00,,SKC,0.00,VWS V14.01,2013-07-13 11:02:00,
2013-07-13 05:03:00,59.5,51.6,30.01,WNW,294,0.0,0.0,75,0.00,,SKC,0.00,VWS V14.01,2013-07-13 11:03:00,
2013-07-13 05:04:00,59.5,51.2,30.01,WNW,293,0.0,0.0,74,0.00,,SKC,0.00,VWS V14.01,2013-07-13 11:04:00,
2013-07-13 05:05:00,59.5,51.6,30.01,WNW,300,0.0,0.0,75,0.00,,SKC,0.00,VWS V14.01,2013-07-13 11:05:00,
2013-07-13 05:06:00,59.5,51.6,30.01,WNW,294,0.0,0.0,75,0.00,,SKC,0.00,VWS V14.01,2013-07-13 11:06:00,
2013-07-13 05:07:00,59.4,51.5,30.01,WNW,292,0.0,0.0,75,0.00,,SKC,0.00,VWS V14.01,2013-07-13 11:07:00,
2013-07-13 05:08:00,59.4,51.5,30.01,WNW,301,0.0,0.0,75,0.00,,SKC,0.00,VWS V14.01,2013-07-13 11:08:00,
2013-07-13 05:09:00,59.4,51.1,30.01,WNW,296,0.0,0.0,74,0.00,,SKC,0.00,VWS V14.01,2013-07-13 11:09:00,
2013-07-13 05:10:00,59.3,51.4,30.01,WNW,298,0.0,0.0,75,0.00,,SKC,0.00,VWS V14.01,2013-07-13 11:10:00,
2013-07-13 05:11:00,59.3,51.4,30.01,WNW,298,0.0,0.0,75,0.00,,SKC,0.00,VWS V14.01,2013-07-13 11:11:00,
2013-07-13 05:12:00,59.2,51.3,30.01,WNW,291,0.0,0.0,75,0.00,,SKC,0.00,VWS V14.01,2013-07-13 11:12:00,
2013-07-13 05:13:00,59.2,51.3,30.01,WNW,296,0.0,0.0,75,0.00,,SKC,0.00,VWS V14.01,2013-07-13 11:13:00,
2013-07-13 05:14:00,59.1,51.2,30.01,WNW,295,0.0,0.0,75,0.00,,SKC,0.00,VWS V14.01,2013-07-13 11:14:00,
2013-07-13 05:15:00,59.0,51.1,30.01,WNW,295,0.0,1.0,75,0.00,,SKC,0.00,VWS V14.01,2013-07-13 11:15:00,
2013-07-13 05:16:00,59.0,51.1,30.01,WNW,296,0.0,0.0,75,0.00,,SKC,0.00,VWS V14.01,2013-07-13 11:16:00,
2013-07-13 05:17:00,59.0,51.1,30.01,WNW,295,0.0,0.0,75,0.00,,SKC,0.00,VWS V14.01,2013-07-13 11:17:00,
2013-07-13 05:18:00,59.0,51.1,30.01,WNW,295,0.0,0.0,75,0.00,,SKC,0.00,VWS V14.01,2013-07-13 11:18:00,
2013-07-13 05:19:00,59.0,51.1,30.01,WNW,296,0.0,0.0,75,0.00,,SKC,0.00,VWS V14.01,2013-07-13 11:19:00,
2013-07-13 05:20:00,59.0,51.1,30.01,WNW,294,0.0,0.0,75,0.00,,SKC,0.00,VWS V14.01,2013-07-13 11:20:00,
2013-07-13 05:21:00,59.0,51.1,30.01,WNW,293,0.0,0.0,75,0.00,,SKC,0.00,VWS V14.01,2013-07-13 11:21:00,
2013-07-13 05:22:00,59.0,50.7,30.01,WNW,293,0.0,0.0,74,0.00,,SKC,0.00,VWS V14.01,2013-07-13 11:22:00,
2013-07-13 05:23:00,59.0,50.7,30.01,WNW,292,0.0,0.0,74,0.00,,SKC,0.00,VWS V14.01,2013-07-13 11:23:00,
2013-07-13 05:24:00,59.0,51.1,30.01,WNW,292,0.0,0.0,75,0.00,,SKC,0.00,VWS V14.01,2013-07-13 11:24:00,
2013-07-13 05:25:00,59.0,51.1,30.01,WNW,295,0.0,1.0,75,0.00,,SKC,0.00,VWS V14.01,2013-07-13 11:25:00,
2013-07-13 05:26:00,59.0,50.7,30.02,North,360,0.0,1.0,74,0.00,,SKC,0.00,VWS V14.01,2013-07-13 11:26:00,
2013-07-13 05:27:00,59.0,50.7,30.02,WNW,296,1.0,3.0,74,0.00,,SKC,0.00,VWS V14.01,2013-07-13 11:27:00,
2013-07-13 05:28:00,59.0,50.4,30.02,North,360,0.0,1.0,73,0.00,,SKC,0.00,VWS V14.01,2013-07-13 11:28:00,
2013-07-13 05:29:00,59.0,50.4,30.02,WNW,293,1.0,1.0,73,0.00,,SKC,0.00,VWS V14.01,2013-07-13 11:29:00,
2013-07-13 05:30:00,59.1,50.5,30.02,WNW,294,0.0,1.0,73,0.00,,SKC,0.00,VWS V14.01,2013-07-13 11:30:00,
2013-07-13 05:31:00,59.2,50.9,30.01,WNW,297,0.0,1.0,74,0.00,,SKC,0.00,VWS V14.01,2013-07-13 11:31:00,
2013-07-13 05:32:00,59.3,50.7,30.01,WNW,294,0.0,0.0,73,0.00,,SKC,0.00,VWS V14.01,2013-07-13 11:32:00,
2013-07-13 05:33:00,59.4,50.4,30.01,WNW,296,0.0,1.0,72,0.00,,SKC,0.00,VWS V14.01,2013-07-13 11:33:00,
2013-07-13 05:34:00,59.5,50.1,30.01,WNW,296,0.0,1.0,71,0.00,,SKC,0.00,VWS V14.01,2013-07-13 11:34:00,
2013-07-13 05:35:00,59.6,50.6,30.01,WNW,297,0.0,0.0,72,0.00,,SKC,0.00,VWS V14.01,2013-07-13 11:35:00,
2013-07-13 05:36:00,59.7,50.7,30.01,North,360,0.0,0.0,72,0.00,,SKC,0.00,VWS V14.01,2013-07-13 11:36:00,
2013-07-13 05:37:00,59.8,50.8,30.02,WNW,294,0.0,0.0,72,0.00,,SKC,0.00,VWS V14.01,2013-07-13 11:37:00,
2013-07-13 05:38:00,59.8,51.1,30.02,WNW,294,0.0,0.0,73,0.00,,SKC,0.00,VWS V14.01,2013-07-13 11:38:00,
2013-07-13 05:39:00,59.9,51.2,30.02,WNW,294,0.0,0.0,73,0.00,,SKC,0.00,VWS V14.01,2013-07-13 11:39:00,
2013-07-13 05:40:00,59.9,51.2,30.02,WNW,298,0.0,0.0,73,0.00,,SKC,0.00,VWS V14.01,2013-07-13 11:40:00,
2013-07-13 05:41:00,59.9,51.2,30.02,WNW,292,0.0,1.0,73,0.00,,SKC,0.00,VWS V14.01,2013-07-13 11:41:00,
2013-07-13 05:42:00,59.9,51.2,30.02,WNW,294,0.0,0.0,73,0.00,,SKC,0.00,VWS V14.01,2013-07-13 11:42:00,
2013-07-13 05:43:00,59.9,51.2,30.02,WNW,298,0.0,0.0,73,0.00,,SKC,0.00,VWS V14.01,2013-07-13 11:43:00,
2013-07-13 05:44:00,59.8,51.1,30.02,WNW,294,0.0,1.0,73,0.00,,SKC,0.00,VWS V14.01,2013-07-13 11:44:00,
2013-07-13 05:45:00,59.8,51.5,30.02,WNW,292,0.0,1.0,74,0.00,,SKC,0.00,VWS V14.01,2013-07-13 11:45:00,
2013-07-13 05:46:00,59.8,51.5,30.02,WNW,297,0.0,1.0,74,0.00,,SKC,0.00,VWS V14.01,2013-07-13 11:46:00,
2013-07-13 05:47:00,59.8,51.5,30.02,WNW,296,0.0,0.0,74,0.00,,SKC,0.00,VWS V14.01,2013-07-13 11:47:00,
2013-07-13 05:48:00,59.7,51.4,30.02,WNW,293,0.0,1.0,74,0.00,,SKC,0.00,VWS V14.01,2013-07-13 11:48:00,
2013-07-13 05:49:00,59.7,51.4,30.02,North,360,0.0,0.0,74,0.00,,SKC,0.00,VWS V14.01,2013-07-13 11:49:00,
2013-07-13 05:50:00,59.6,51.0,30.02,WNW,296,0.0,0.0,73,0.00,,SKC,0.00,VWS V14.01,2013-07-13 11:50:00,
2013-07-13 05:51:00,59.6,51.0,30.02,WNW,296,0.0,0.0,73,0.00,,SKC,0.00,VWS V14.01,2013-07-13 11:51:00,
2013-07-13 05:52:00,59.5,51.2,30.02,North,360,0.0,0.0,74,0.00,,SKC,0.00,VWS V14.01,2013-07-13 11:52:00,
2013-07-13 05:53:00,59.4,51.1,30.02,WNW,296,0.0,0.0,74,0.00,,SKC,0.00,VWS V14.01,2013-07-13 11:53:00,
2013-07-13 05:54:00,59.3,51.0,30.02,WNW,294,0.0,0.0,74,0.00,,SKC,0.00,VWS V14.01,2013-07-13 11:54:00,
2013-07-13 05:55:00,59.2,50.9,30.02,North,360,0.0,0.0,74,0.00,,SKC,0.00,VWS V14.01,2013-07-13 11:55:00,
2013-07-13 05:56:00,59.0,50.7,30.02,WNW,296,0.0,0.0,74,0.00,,SKC,0.00,VWS V14.01,2013-07-13 11:56:00,
2013-07-13 05:57:00,59.0,50.7,30.02,WNW,292,2.0,3.0,74,0.00,,SKC,0.00,VWS V14.01,2013-07-13 11:57:00,
2013-07-13 05:58:00,59.0,50.7,30.02,WNW,294,3.0,4.0,74,0.00,,SKC,0.00,VWS V14.01,2013-07-13 11:58:00,
2013-07-13 05:59:00,59.0,50.7,30.02,WNW,290,2.0,3.0,74,0.00,,SKC,0.00,VWS V14.01,2013-07-13 11:59:00,
2013-07-13 06:00:00,59.0,50.7,30.02,North,360,0.0,2.0,74,0.00,,SKC,0.00,VWS V14.01,2013-07-13 12:00:00,
2013-07-13 06:01:00,59.0,50.7,30.02,WNW,293,1.0,1.0,74,0.00,,SKC,0.00,VWS V14.01,2013-07-13 12:01:00,
2013-07-13 06:02:00,59.0,50.7,30.02,WNW,294,0.0,2.0,74,0.00,,SKC,0.00,VWS V14.01,2013-07-13 12:02:00,
2013-07-13 06:03:00,59.0,51.1,30.02,WNW,295,0.0,0.0,75,0.00,,SKC,0.00,VWS V14.01,2013-07-13 12:03:00,
2013-07-13 06:04:00,59.0,51.1,30.02,WNW,297,0.0,1.0,75,0.00,,SKC,0.00,VWS V14.01,2013-07-13 12:04:00,
2013-07-13 06:05:00,58.9,51.0,30.03,WNW,291,0.0,0.0,75,0.00,,SKC,0.00,VWS V14.01,2013-07-13 12:05:00,
2013-07-13 06:06:00,58.8,51.3,30.03,North,360,1.0,1.0,76,0.00,,SKC,0.00,VWS V14.01,2013-07-13 12:06:00,
2013-07-13 06:07:00,58.8,51.3,30.03,WNW,290,0.0,1.0,76,0.00,,SKC,0.00,VWS V14.01,2013-07-13 12:07:00,
2013-07-13 06:08:00,58.8,50.9,30.03,WNW,294,0.0,0.0,75,0.00,,SKC,0.00,VWS V14.01,2013-07-13 12:08:00,
2013-07-13 06:09:00,58.7,50.8,30.03,WNW,292,0.0,0.0,75,0.00,,SKC,0.00,VWS V14.01,2013-07-13 12:09:00,
2013-07-13 06:10:00,58.8,51.3,30.03,WNW,294,0.0,0.0,76,0.00,,SKC,0.00,VWS V14.01,2013-07-13 12:10:00,
2013-07-13 06:11:00,58.9,51.4,30.03,WNW,296,0.0,0.0,76,0.00,,SKC,0.00,VWS V14.01,2013-07-13 12:11:00,
2013-07-13 06:12:00,59.0,51.1,30.03,WNW,292,0.0,0.0,75,0.00,,SKC,0.00,VWS V14.01,2013-07-13 12:12:00,
2013-07-13 06:13:00,59.0,51.1,30.03,WNW,295,0.0,0.0,75,0.00,,SKC,0.00,VWS V14.01,2013-07-13 12:13:00,
2013-07-13 06:14:00,59.0,51.1,30.03,WNW,295,0.0,0.0,75,0.00,,SKC,0.00,VWS V14.01,2013-07-13 12:14:00,
2013-07-13 06:15:00,59.0,50.7,30.03,WNW,292,0.0,0.0,74,0.00,,SKC,0.00,VWS V14.01,2013-07-13 12:15:00,
2013-07-13 06:16:00,59.0,50.7,30.03,WNW,289,0.0,0.0,74,0.00,,SKC,0.00,VWS V14.01,2013-07-13 12:16:00,
2013-07-13 06:17:00,59.0,50.7,30.03,WNW,290,0.0,1.0,74,0.00,,SKC,0.00,VWS V14.01,2013-07-13 12:17:00,
2013-07-13 06:18:00,59.0,50.7,30.03,WNW,297,0.0,0.0,74,0.00,,SKC,0.00,VWS V14.01,2013-07-13 12:18:00,
2013-07-13 06:19:00,59.0,51.1,30.03,WNW,296,0.0,0.0,75,0.00,,SKC,0.00,VWS V14.01,2013-07-13 12:19:00,
2013-07-13 06:20:00,59.0,51.1,30.03,WNW,300,0.0,0.0,75,0.00,,SKC,0.00,VWS V14.01,2013-07-13 12:20:00,
2013-07-13 06:21:00,59.0,51.1,30.03,WNW,298,3.0,3.0,75,0.00,,SKC,0.00,VWS V14.01,2013-07-13 12:21:00,
2013-07-13 06:22:00,59.0,50.7,30.03,North,360,3.0,4.0,74,0.00,,SKC,0.00,VWS V14.01,2013-07-13 12:22:00,
2013-07-13 06:23:00,59.0,50.7,30.03,West,270,2.0,4.0,74,0.00,,SKC,0.00,VWS V14.01,2013-07-13 12:23:00,
2013-07-13 06:24:00,59.0,50.7,30.03,West,274,0.0,2.0,74,0.00,,SKC,0.00,VWS V14.01,2013-07-13 12:24:00,
2013-07-13 06:25:00,59.0,51.1,30.03,West,267,0.0,1.0,75,0.00,,SKC,0.00,VWS V14.01,2013-07-13 12:25:00,
2013-07-13 06:26:00,59.0,51.1,30.03,West,274,0.0,1.0,75,0.00,,SKC,0.00,VWS V14.01,2013-07-13 12:26:00,
2013-07-13 06:27:00,59.0,50.4,30.03,West,269,0.0,1.0,73,0.00,,SKC,0.00,VWS V14.01,2013-07-13 12:27:00,
2013-07-13 06:28:00,59.0,50.4,30.03,West,269,3.0,3.0,73,0.00,,SKC,0.00,VWS V14.01,2013-07-13 12:28:00,
2013-07-13 06:29:00,59.0,50.4,30.03,West,277,0.0,4.0,73,0.00,,SKC,0.00,VWS V14.01,2013-07-13 12:29:00,
2013-07-13 06:30:00,59.0,50.7,30.04,WNW,288,4.0,4.0,74,0.00,,SKC,0.00,VWS V14.01,2013-07-13 12:30:00,
2013-07-13 06:31:00,59.0,50.7,30.04,WNW,285,4.0,5.0,74,0.00,,SKC,0.00,VWS V14.01,2013-07-13 12:31:00,
2013-07-13 06:32:00,59.0,50.7,30.04,WNW,288,2.0,4.0,74,0.00,,SKC,0.00,VWS V14.01,2013-07-13 12:32:00,
2013-07-13 06:33:00,59.0,50.7,30.04,WNW,290,1.0,3.0,74,0.00,,SKC,0.00,VWS V14.01,2013-07-13 12:33:00,
2013-07-13 06:34:00,59.0,51.1,30.04,WNW,294,2.0,3.0,75,0.00,,SKC,0.00,VWS V14.01,2013-07-13 12:34:00,
2013-07-13 06:35:00,59.0,50.7,30.04,WNW,291,0.0,2.0,74,0.00,,SKC,0.00,VWS V14.01,2013-07-13 12:35:00,
2013-07-13 06:36:00,59.0,50.7,30.03,WNW,293,0.0,0.0,74,0.00,,SKC,0.00,VWS V14.01,2013-07-13 12:36:00,
2013-07-13 06:37:00,59.0,50.7,30.04,WNW,290,0.0,0.0,74,0.00,,SKC,0.00,VWS V14.01,2013-07-13 12:37:00,
2013-07-13 06:38:00,59.0,51.1,30.04,WNW,290,0.0,0.0,75,0.00,,SKC,0.00,VWS V14.01,2013-07-13 12:38:00,
2013-07-13 06:39:00,59.0,51.1,30.03,WNW,298,0.0,0.0,75,0.00,,SKC,0.00,VWS V14.01,2013-07-13 12:39:00,
2013-07-13 06:40:00,59.0,51.5,30.03,North,360,0.0,0.0,76,0.00,,SKC,0.00,VWS V14.01,2013-07-13 12:40:00,
2013-07-13 06:41:00,59.1,51.5,30.03,WNW,292,0.0,0.0,76,0.00,,SKC,0.00,VWS V14.01,2013-07-13 12:41:00,
2013-07-13 06:42:00,59.1,51.2,30.03,WNW,294,0.0,0.0,75,0.00,,SKC,0.00,VWS V14.01,2013-07-13 12:42:00,
2013-07-13 06:43:00,59.1,51.2,30.03,WNW,290,0.0,0.0,75,0.00,,SKC,0.00,VWS V14.01,2013-07-13 12:43:00,
2013-07-13 06:44:00,59.1,51.5,30.03,WNW,292,0.0,0.0,76,0.00,,SKC,0.00,VWS V14.01,2013-07-13 12:44:00,
2013-07-13 06:45:00,59.1,51.5,30.03,WNW,293,0.0,0.0,76,0.00,,SKC,0.00,VWS V14.01,2013-07-13 12:45:00,
2013-07-13 06:46:00,59.1,51.5,30.03,WNW,290,0.0,0.0,76,0.00,,SKC,0.00,VWS V14.01,2013-07-13 12:46:00,
2013-07-13 06:47:00,59.2,51.7,30.03,WNW,291,0.0,0.0,76,0.00,,SKC,0.00,VWS V14.01,2013-07-13 12:47:00,
2013-07-13 06:48:00,59.2,52.0,30.03,WNW,294,0.0,0.0,77,0.00,,SKC,0.00,VWS V14.01,2013-07-13 12:48:00,
2013-07-13 06:49:00,59.1,51.2,30.04,WNW,295,0.0,0.0,75,0.00,,SKC,0.00,VWS V14.01,2013-07-13 12:49:00,
2013-07-13 06:50:00,59.1,51.2,30.03,WNW,295,0.0,0.0,75,0.00,,SKC,0.00,VWS V14.01,2013-07-13 12:50:00,
2013-07-13 06:51:00,59.2,51.3,30.03,WNW,298,0.0,0.0,75,0.00,,SKC,0.00,VWS V14.01,2013-07-13 12:51:00,
2013-07-13 06:52:00,59.1,51.2,30.04,WNW,292,0.0,0.0,75,0.00,,SKC,0.00,VWS V14.01,2013-07-13 12:52:00,
2013-07-13 06:53:00,59.2,51.7,30.03,WNW,295,0.0,0.0,76,0.00,,SKC,0.00,VWS V14.01,2013-07-13 12:53:00,
2013-07-13 06:54:00,59.3,51.8,30.03,WNW,292,0.0,0.0,76,0.00,,SKC,0.00,VWS V14.01,2013-07-13 12:54:00,
2013-07-13 06:55:00,59.3,51.4,30.03,WNW,293,0.0,0.0,75,0.00,,SKC,0.00,VWS V14.01,2013-07-13 12:55:00,
2013-07-13 06:56:00,59.3,51.0,30.03,WNW,294,0.0,0.0,74,0.00,,SKC,0.00,VWS V14.01,2013-07-13 12:56:00,
2013-07-13 06:57:00,59.3,51.0,30.03,WNW,291,1.0,1.0,74,0.00,,SKC,0.00,VWS V14.01,2013-07-13 12:57:00,
2013-07-13 06:58:00,59.3,51.4,30.04,North,360,0.0,1.0,75,0.00,,SKC,0.00,VWS V14.01,2013-07-13 12:58:00,
2013-07-13 06:59:00,59.3,51.4,30.04,WNW,292,0.0,0.0,75,0.00,,SKC,0.00,VWS V14.01,2013-07-13 12:59:00,
2013-07-13 07:00:00,59.4,51.5,30.04,WNW,293,0.0,0.0,75,0.00,,SKC,0.00,VWS V14.01,2013-07-13 13:00:00,
2013-07-13 07:01:00,59.4,51.1,30.04,WNW,293,0.0,0.0,74,0.00,,SKC,0.00,VWS V14.01,2013-07-13 13:01:00,
2013-07-13 07:02:00,59.4,51.1,30.04,North,360,0.0,0.0,74,0.00,,SKC,0.00,VWS V14.01,2013-07-13 13:02:00,
2013-07-13 07:03:00,59.4,51.1,30.04,North,360,0.0,0.0,74,0.00,,SKC,0.00,VWS V14.01,2013-07-13 13:03:00,
2013-07-13 07:04:00,59.4,51.1,30.04,North,360,0.0,0.0,74,0.00,,SKC,0.00,VWS V14.01,2013-07-13 13:04:00,
2013-07-13 07:05:00,59.5,51.2,30.04,WNW,291,0.0,0.0,74,0.00,,SKC,0.00,VWS V14.01,2013-07-13 13:05:00,
2013-07-13 07:06:00,59.5,51.6,30.04,WNW,291,0.0,0.0,75,0.00,,SKC,0.00,VWS V14.01,2013-07-13 13:06:00,
2013-07-13 07:07:00,59.5,51.2,30.04,WNW,293,0.0,0.0,74,0.00,,SKC,0.00,VWS V14.01,2013-07-13 13:07:00,
2013-07-13 07:08:00,59.5,51.2,30.04,WNW,295,0.0,0.0,74,0.00,,SKC,0.00,VWS V14.01,2013-07-13 13:08:00,
2013-07-13 07:09:00,59.5,51.6,30.04,WNW,294,0.0,1.0,75,0.00,,SKC,0.00,VWS V14.01,2013-07-13 13:09:00,
2013-07-13 07:10:00,59.5,51.2,30.04,WNW,294,0.0,1.0,74,0.00,,SKC,0.00,VWS V14.01,2013-07-13 13:10:00,
2013-07-13 07:11:00,59.5,51.2,30.05,WNW,294,0.0,1.0,74,0.00,,SKC,0.00,VWS V14.01,2013-07-13 13:11:00,
2013-07-13 07:12:00,59.6,51.3,30.05,WNW,294,0.0,1.0,74,0.00,,SKC,0.00,VWS V14.01,2013-07-13 13:12:00,
2013-07-13 07:13:00,59.6,51.0,30.05,North,360,0.0,1.0,73,0.00,,SKC,0.00,VWS V14.01,2013-07-13 13:13:00,
2013-07-13 07:14:00,59.7,51.0,30.05,WNW,295,0.0,1.0,73,0.00,,SKC,0.00,VWS V14.01,2013-07-13 13:14:00,
2013-07-13 07:15:00,59.7,51.0,30.04,North,360,0.0,0.0,73,0.00,,SKC,0.00,VWS V14.01,2013-07-13 13:15:00,
2013-07-13 07:16:00,59.8,51.5,30.04,WNW,291,0.0,0.0,74,0.00,,SKC,0.00,VWS V14.01,2013-07-13 13:16:00,
2013-07-13 07:17:00,59.8,51.9,30.04,WNW,293,0.0,0.0,75,0.00,,SKC,0.00,VWS V14.01,2013-07-13 13:17:00,
2013-07-13 07:18:00,59.9,52.3,30.05,North,360,0.0,0.0,76,0.00,,SKC,0.00,VWS V14.01,2013-07-13 13:18:00,
2013-07-13 07:19:00,60.0,52.8,30.04,WNW,293,0.0,0.0,77,0.00,,SKC,0.00,VWS V14.01,2013-07-13 13:19:00,
2013-07-13 07:20:00,60.0,52.4,30.04,WNW,292,0.0,0.0,76,0.00,,SKC,0.00,VWS V14.01,2013-07-13 13:20:00,
2013-07-13 07:21:00,60.1,52.5,30.04,WNW,290,0.0,0.0,76,0.00,,SKC,0.00,VWS V14.01,2013-07-13 13:21:00,
2013-07-13 07:22:00,60.1,52.2,30.04,WNW,296,0.0,0.0,75,0.00,,SKC,0.00,VWS V14.01,2013-07-13 13:22:00,
2013-07-13 07:23:00,60.2,51.9,30.04,WNW,297,0.0,0.0,74,0.00,,SKC,0.00,VWS V14.01,2013-07-13 13:23:00,
2013-07-13 07:24:00,60.2,52.3,30.04,WNW,297,0.0,0.0,75,0.00,,SKC,0.00,VWS V14.01,2013-07-13 13:24:00,
2013-07-13 07:25:00,60.2,52.3,30.04,WNW,294,0.0,0.0,75,0.00,,SKC,0.00,VWS V14.01,2013-07-13 13:25:00,
2013-07-13 07:26:00,60.3,52.3,30.04,WNW,294,0.0,0.0,75,0.00,,SKC,0.00,VWS V14.01,2013-07-13 13:26:00,
2013-07-13 07:27:00,60.3,52.3,30.04,WNW,290,0.0,0.0,75,0.00,,SKC,0.00,VWS V14.01,2013-07-13 13:27:00,
2013-07-13 07:28:00,60.4,52.5,30.04,North,360,0.0,0.0,75,0.00,,SKC,0.00,VWS V14.01,2013-07-13 13:28:00,
2013-07-13 07:29:00,60.4,52.5,30.04,WNW,292,0.0,0.0,75,0.00,,SKC,0.00,VWS V14.01,2013-07-13 13:29:00,
2013-07-13 07:30:00,60.5,52.9,30.04,WNW,294,0.0,0.0,76,0.00,,SKC,0.00,VWS V14.01,2013-07-13 13:30:00,
2013-07-13 07:31:00,60.5,52.9,30.04,WNW,290,0.0,0.0,76,0.00,,SKC,0.00,VWS V14.01,2013-07-13 13:31:00,
2013-07-13 07:32:00,60.6,53.0,30.04,WNW,294,0.0,0.0,76,0.00,,SKC,0.00,VWS V14.01,2013-07-13 13:32:00,
2013-07-13 07:33:00,60.6,52.6,30.04,WNW,295,0.0,0.0,75,0.00,,SKC,0.00,VWS V14.01,2013-07-13 13:33:00,
2013-07-13 07:34:00,60.7,52.0,30.04,WNW,294,0.0,0.0,73,0.00,,SKC,0.00,VWS V14.01,2013-07-13 13:34:00,
2013-07-13 07:35:00,60.7,52.4,30.04,North,360,0.0,0.0,74,0.00,,SKC,0.00,VWS V14.01,2013-07-13 13:35:00,
2013-07-13 07:36:00,60.8,52.5,30.04,WNW,292,0.0,0.0,74,0.00,,SKC,0.00,VWS V14.01,2013-07-13 13:36:00,
2013-07-13 07:37:00,60.8,52.5,30.04,North,360,0.0,0.0,74,0.00,,SKC,0.00,VWS V14.01,2013-07-13 13:37:00,
2013-07-13 07:38:00,60.9,52.9,30.04,WNW,296,0.0,0.0,75,0.00,,SKC,0.00,VWS V14.01,2013-07-13 13:38:00,
2013-07-13 07:39:00,60.9,52.2,30.04,WNW,295,0.0,0.0,73,0.00,,SKC,0.00,VWS V14.01,2013-07-13 13:39:00,
2013-07-13 07:40:00,60.9,51.8,30.04,WNW,294,0.0,0.0,72,0.00,,SKC,0.00,VWS V14.01,2013-07-13 13:40:00,
2013-07-13 07:41:00,61.0,52.3,30.04,WNW,294,0.0,0.0,73,0.00,,SKC,0.00,VWS V14.01,2013-07-13 13:41:00,
2013-07-13 07:42:00,61.1,52.4,30.04,WNW,290,0.0,1.0,73,0.00,,SKC,0.00,VWS V14.01,2013-07-13 13:42:00,
2013-07-13 07:43:00,61.1,52.4,30.04,North,360,0.0,0.0,73,0.00,,SKC,0.00,VWS V14.01,2013-07-13 13:43:00,
2013-07-13 07:44:00,61.2,52.1,30.04,WNW,296,1.0,1.0,72,0.00,,SKC,0.00,VWS V14.01,2013-07-13 13:44:00,
2013-07-13 07:45:00,61.2,52.5,30.04,WNW,292,0.0,1.0,73,0.00,,SKC,0.00,VWS V14.01,2013-07-13 13:45:00,
2013-07-13 07:46:00,61.3,52.6,30.04,WNW,290,0.0,0.0,73,0.00,,SKC,0.00,VWS V14.01,2013-07-13 13:46:00,
2013-07-13 07:47:00,61.4,53.0,30.04,WNW,297,0.0,0.0,74,0.00,,SKC,0.00,VWS V14.01,2013-07-13 13:47:00,
2013-07-13 07:48:00,61.5,53.2,30.04,WNW,296,0.0,0.0,74,0.00,,SKC,0.00,VWS V14.01,2013-07-13 13:48:00,
2013-07-13 07:49:00,61.6,52.9,30.04,WNW,298,0.0,1.0,73,0.00,,SKC,0.00,VWS V14.01,2013-07-13 13:49:00,
2013-07-13 07:50:00,61.6,52.9,30.04,WNW,295,0.0,0.0,73,0.00,,SKC,0.00,VWS V14.01,2013-07-13 13:50:00,
2013-07-13 07:51:00,61.7,53.0,30.04,WNW,296,0.0,0.0,73,0.00,,SKC,0.00,VWS V14.01,2013-07-13 13:51:00,
2013-07-13 07:52:00,61.8,53.1,30.04,WNW,293,0.0,1.0,73,0.00,,SKC,0.00,VWS V14.01,2013-07-13 13:52:00,
2013-07-13 07:53:00,61.8,52.7,30.04,North,360,0.0,1.0,72,0.00,,SKC,0.00,VWS V14.01,2013-07-13 13:53:00,
2013-07-13 07:54:00,61.9,52.8,30.04,WNW,292,0.0,0.0,72,0.00,,SKC,0.00,VWS V14.01,2013-07-13 13:54:00,
2013-07-13 07:55:00,62.0,52.9,30.04,North,360,0.0,0.0,72,0.00,,SKC,0.00,VWS V14.01,2013-07-13 13:55:00,
2013-07-13 07:56:00,62.1,53.3,30.04,WNW,290,0.0,0.0,73,0.00,,SKC,0.00,VWS V14.01,2013-07-13 13:56:00,
2013-07-13 07:57:00,62.1,53.0,30.04,WNW,289,0.0,0.0,72,0.00,,SKC,0.00,VWS V14.01,2013-07-13 13:57:00,
2013-07-13 07:58:00,62.2,53.1,30.04,WNW,292,0.0,0.0,72,0.00,,SKC,0.00,VWS V14.01,2013-07-13 13:58:00,
2013-07-13 07:59:00,62.3,53.9,30.04,WNW,294,0.0,0.0,74,0.00,,SKC,0.00,VWS V14.01,2013-07-13 13:59:00,
2013-07-13 08:00:00,62.4,54.4,30.04,WNW,290,0.0,0.0,75,0.00,,SKC,0.00,VWS V14.01,2013-07-13 14:00:00,
2013-07-13 08:01:00,62.5,54.5,30.04,WNW,293,0.0,0.0,75,0.00,,SKC,0.00,VWS V14.01,2013-07-13 14:01:00,
2013-07-13 08:02:00,62.6,54.6,30.04,WNW,290,0.0,0.0,75,0.00,,SKC,0.00,VWS V14.01,2013-07-13 14:02:00,
2013-07-13 08:03:00,62.6,54.9,30.04,North,360,0.0,0.0,76,0.00,,SKC,0.00,VWS V14.01,2013-07-13 14:03:00,
2013-07-13 08:04:00,62.7,54.7,30.04,WNW,295,0.0,0.0,75,0.00,,SKC,0.00,VWS V14.01,2013-07-13 14:04:00,
2013-07-13 08:05:00,62.8,53.7,30.04,WNW,297,0.0,0.0,72,0.00,,SKC,0.00,VWS V14.01,2013-07-13 14:05:00,
2013-07-13 08:06:00,62.8,53.3,30.05,WNW,296,0.0,0.0,71,0.00,,SKC,0.00,VWS V14.01,2013-07-13 14:06:00,
2013-07-13 08:07:00,62.9,53.0,30.05,WNW,295,1.0,1.0,70,0.00,,SKC,0.00,VWS V14.01,2013-07-13 14:07:00,
2013-07-13 08:08:00,63.0,53.5,30.04,North,360,0.0,1.0,71,0.00,,SKC,0.00,VWS V14.01,2013-07-13 14:08:00,
2013-07-13 08:09:00,63.1,53.9,30.04,WNW,291,0.0,0.0,72,0.00,,SKC,0.00,VWS V14.01,2013-07-13 14:09:00,
2013-07-13 08:10:00,63.2,53.7,30.05,WNW,295,0.0,0.0,71,0.00,,SKC,0.00,VWS V14.01,2013-07-13 14:10:00,
2013-07-13 08:11:00,63.3,54.5,30.04,North,360,0.0,0.0,73,0.00,,SKC,0.00,VWS V14.01,2013-07-13 14:11:00,
2013-07-13 08:12:00,63.4,55.0,30.04,WNW,295,0.0,0.0,74,0.00,,SKC,0.00,VWS V14.01,2013-07-13 14:12:00,
2013-07-13 08:13:00,63.5,55.1,30.04,North,360,0.0,0.0,74,0.00,,SKC,0.00,VWS V14.01,2013-07-13 14:13:00,
2013-07-13 08:14:00,63.6,54.8,30.04,WNW,297,0.0,0.0,73,0.00,,SKC,0.00,VWS V14.01,2013-07-13 14:14:00,
2013-07-13 08:15:00,63.7,54.1,30.04,North,360,0.0,0.0,71,0.00,,SKC,0.00,VWS V14.01,2013-07-13 14:15:00,
2013-07-13 08:16:00,63.8,53.8,30.04,WNW,294,0.0,0.0,70,0.00,,SKC,0.00,VWS V14.01,2013-07-13 14:16:00,
2013-07-13 08:17:00,63.8,53.0,30.04,WNW,294,0.0,0.0,68,0.00,,SKC,0.00,VWS V14.01,2013-07-13 14:17:00,
2013-07-13 08:18:00,63.9,53.5,30.04,North,360,0.0,0.0,69,0.00,,SKC,0.00,VWS V14.01,2013-07-13 14:18:00,
2013-07-13 08:19:00,64.0,54.0,30.04,WNW,294,0.0,0.0,70,0.00,,SKC,0.00,VWS V14.01,2013-07-13 14:19:00,
2013-07-13 08:20:00,64.1,54.5,30.04,WNW,297,0.0,0.0,71,0.00,,SKC,0.00,VWS V14.01,2013-07-13 14:20:00,
2013-07-13 08:21:00,64.2,54.6,30.04,WNW,294,0.0,0.0,71,0.00,,SKC,0.00,VWS V14.01,2013-07-13 14:21:00,
2013-07-13 08:22:00,64.3,54.7,30.04,North,360,0.0,1.0,71,0.00,,SKC,0.00,VWS V14.01,2013-07-13 14:22:00,
2013-07-13 08:23:00,64.5,55.3,30.04,WNW,297,0.0,0.0,72,0.00,,SKC,0.00,VWS V14.01,2013-07-13 14:23:00,
2013-07-13 08:24:00,64.6,55.4,30.04,WNW,299,0.0,0.0,72,0.00,,SKC,0.00,VWS V14.01,2013-07-13 14:24:00,
2013-07-13 08:25:00,64.7,55.1,30.04,WNW,294,0.0,0.0,71,0.00,,SKC,0.00,VWS V14.01,2013-07-13 14:25:00,
2013-07-13 08:26:00,64.8,55.6,30.04,North,360,0.0,0.0,72,0.00,,SKC,0.00,VWS V14.01,2013-07-13 14:26:00,
2013-07-13 08:27:00,64.9,55.7,30.04,WNW,293,0.0,0.0,72,0.00,,SKC,0.00,VWS V14.01,2013-07-13 14:27:00,
2013-07-13 08:28:00,65.0,55.8,30.04,WNW,295,0.0,0.0,72,0.00,,SKC,0.00,VWS V14.01,2013-07-13 14:28:00,
2013-07-13 08:29:00,65.1,55.9,30.04,North,360,0.0,0.0,72,0.00,,SKC,0.00,VWS V14.01,2013-07-13 14:29:00,
2013-07-13 08:30:00,65.3,56.8,30.04,WNW,296,0.0,0.0,74,0.00,,SKC,0.00,VWS V14.01,2013-07-13 14:30:00,
2013-07-13 08:31:00,65.4,56.9,30.04,WNW,293,0.0,0.0,74,0.00,,SKC,0.00,VWS V14.01,2013-07-13 14:31:00,
2013-07-13 08:32:00,65.5,57.4,30.04,WNW,293,0.0,0.0,75,0.00,,SKC,0.00,VWS V14.01,2013-07-13 14:32:00,
2013-07-13 08:33:00,65.6,57.5,30.04,North,360,0.0,0.0,75,0.00,,SKC,0.00,VWS V14.01,2013-07-13 14:33:00,
2013-07-13 08:34:00,65.7,57.2,30.04,WNW,290,0.0,1.0,74,0.00,,SKC,0.00,VWS V14.01,2013-07-13 14:34:00,
2013-07-13 08:35:00,65.8,57.3,30.04,WNW,294,0.0,0.0,74,0.00,,SKC,0.00,VWS V14.01,2013-07-13 14:35:00,
2013-07-13 08:36:00,65.9,57.4,30.04,North,360,0.0,0.0,74,0.00,,SKC,0.00,VWS V14.01,2013-07-13 14:36:00,
2013-07-13 08:37:00,66.0,57.9,30.04,North,360,0.0,0.0,75,0.00,,SKC,0.00,VWS V14.01,2013-07-13 14:37:00,
2013-07-13 08:38:00,66.1,58.0,30.04,North,360,0.0,0.0,75,0.00,,SKC,0.00,VWS V14.01,2013-07-13 14:38:00,
2013-07-13 08:39:00,66.2,58.0,30.04,WNW,288,0.0,0.0,75,0.00,,SKC,0.00,VWS V14.01,2013-07-13 14:39:00,
2013-07-13 08:40:00,66.3,57.8,30.04,WNW,299,0.0,0.0,74,0.00,,SKC,0.00,VWS V14.01,2013-07-13 14:40:00,
2013-07-13 08:41:00,66.4,58.2,30.03,North,360,0.0,0.0,75,0.00,,SKC,0.00,VWS V14.01,2013-07-13 14:41:00,
2013-07-13 08:42:00,66.5,58.0,30.04,WNW,296,0.0,0.0,74,0.00,,SKC,0.00,VWS V14.01,2013-07-13 14:42:00,
2013-07-13 08:43:00,66.6,58.1,30.03,WNW,291,0.0,1.0,74,0.00,,SKC,0.00,VWS V14.01,2013-07-13 14:43:00,
2013-07-13 08:44:00,66.7,58.5,30.04,North,360,0.0,1.0,75,0.00,,SKC,0.00,VWS V14.01,2013-07-13 14:44:00,
2013-07-13 08:45:00,66.8,59.0,30.03,North,360,0.0,0.0,76,0.00,,SKC,0.00,VWS V14.01,2013-07-13 14:45:00,
2013-07-13 08:46:00,66.9,58.3,30.04,North,360,0.0,0.0,74,0.00,,SKC,0.00,VWS V14.01,2013-07-13 14:46:00,
2013-07-13 08:47:00,67.0,57.7,30.04,WNW,293,0.0,0.0,72,0.00,,SKC,0.00,VWS V14.01,2013-07-13 14:47:00,
2013-07-13 08:48:00,67.0,56.9,30.03,WNW,292,0.0,0.0,70,0.00,,SKC,0.00,VWS V14.01,2013-07-13 14:48:00,
2013-07-13 08:49:00,67.1,56.6,30.04,North,360,0.0,3.0,69,0.00,,SKC,0.00,VWS V14.01,2013-07-13 14:49:00,
2013-07-13 08:50:00,67.2,56.3,30.03,North,360,0.0,1.0,68,0.00,,SKC,0.00,VWS V14.01,2013-07-13 14:50:00,
2013-07-13 08:51:00,67.3,56.4,30.04,WNW,296,0.0,1.0,68,0.00,,SKC,0.00,VWS V14.01,2013-07-13 14:51:00,
2013-07-13 08:52:00,67.4,54.8,30.03,WNW,300,0.0,1.0,64,0.00,,SKC,0.00,VWS V14.01,2013-07-13 14:52:00,
2013-07-13 08:53:00,67.5,57.0,30.04,North,360,0.0,2.0,69,0.00,,SKC,0.00,VWS V14.01,2013-07-13 14:53:00,
2013-07-13 08:54:00,67.7,57.2,30.04,West,276,0.0,0.0,69,0.00,,SKC,0.00,VWS V14.01,2013-07-13 14:54:00,
2013-07-13 08:55:00,67.9,57.4,30.03,West,279,0.0,0.0,69,0.00,,SKC,0.00,VWS V14.01,2013-07-13 14:55:00,
2013-07-13 08:56:00,68.0,57.5,30.03,West,275,0.0,0.0,69,0.00,,SKC,0.00,VWS V14.01,2013-07-13 14:56:00,
2013-07-13 08:57:00,68.2,57.7,30.03,WNW,284,0.0,1.0,69,0.00,,SKC,0.00,VWS V14.01,2013-07-13 14:57:00,
2013-07-13 08:58:00,68.4,58.6,30.03,West,279,0.0,1.0,71,0.00,,SKC,0.00,VWS V14.01,2013-07-13 14:58:00,
2013-07-13 08:59:00,68.5,57.9,30.03,West,280,0.0,0.0,69,0.00,,SKC,0.00,VWS V14.01,2013-07-13 14:59:00,
2013-07-13 09:00:00,68.6,57.2,30.03,West,278,0.0,0.0,67,0.00,,SKC,0.00,VWS V14.01,2013-07-13 15:00:00,
2013-07-13 09:01:00,68.8,57.4,30.04,West,278,0.0,0.0,67,0.00,,SKC,0.00,VWS V14.01,2013-07-13 15:01:00,
2013-07-13 09:02:00,68.9,56.2,30.03,West,277,0.0,0.0,64,0.00,,SKC,0.00,VWS V14.01,2013-07-13 15:02:00,
2013-07-13 09:03:00,69.1,56.8,30.03,NW,319,2.0,5.0,65,0.00,,SKC,0.00,VWS V14.01,2013-07-13 15:03:00,
2013-07-13 09:04:00,69.2,55.2,30.03,SSW,200,4.0,5.0,61,0.00,,SKC,0.00,VWS V14.01,2013-07-13 15:04:00,
2013-07-13 09:05:00,69.4,56.3,30.04,SSW,203,2.0,4.0,63,0.00,,SKC,0.00,VWS V14.01,2013-07-13 15:05:00,
2013-07-13 09:06:00,69.7,54.8,30.04,SSW,203,5.0,6.0,59,0.00,,SKC,0.00,VWS V14.01,2013-07-13 15:06:00,
2013-07-13 09:07:00,69.9,55.4,30.03,WSW,242,3.0,7.0,60,0.00,,SKC,0.00,VWS V14.01,2013-07-13 15:07:00,
2013-07-13 09:08:00,70.1,53.2,30.03,WSW,246,1.0,4.0,55,0.00,,SKC,0.00,VWS V14.01,2013-07-13 15:08:00,
2013-07-13 09:09:00,70.3,54.4,30.04,SW,232,5.0,13.0,57,0.00,,SKC,0.00,VWS V14.01,2013-07-13 15:09:00,
2013-07-13 09:10:00,70.6,54.2,30.03,WSW,245,9.0,11.0,56,0.00,,SKC,0.00,VWS V14.01,2013-07-13 15:10:00,
2013-07-13 09:11:00,70.8,53.8,30.04,SW,234,10.0,12.0,55,0.00,,SKC,0.00,VWS V14.01,2013-07-13 15:11:00,
2013-07-13 09:12:00,71.1,52.6,30.04,WSW,254,9.0,13.0,52,0.00,,SKC,0.00,VWS V14.01,2013-07-13 15:12:00,
2013-07-13 09:13:00,71.3,54.3,30.04,WSW,239,12.0,14.0,55,0.00,,SKC,0.00,VWS V14.01,2013-07-13 15:13:00,
2013-07-13 09:14:00,71.7,52.6,30.04,West,270,7.0,12.0,51,0.00,,SKC,0.00,VWS V14.01,2013-07-13 15:14:00,
2013-07-13 09:15:00,72.0,52.4,30.04,North,360,6.0,15.0,50,0.00,,SKC,0.00,VWS V14.01,2013-07-13 15:15:00,
2013-07-13 09:16:00,72.4,53.3,30.04,West,264,5.0,12.0,51,0.00,,SKC,0.00,VWS V14.01,2013-07-13 15:16:00,
2013-07-13 09:17:00,72.6,52.4,30.04,SSW,213,7.0,10.0,49,0.00,,SKC,0.00,VWS V14.01,2013-07-13 15:17:00,
2013-07-13 09:18:00,72.9,52.6,30.04,North,360,6.0,9.0,49,0.00,,SKC,0.00,VWS V14.01,2013-07-13 15:18:00,
2013-07-13 09:19:00,73.1,52.3,30.04,SW,232,5.0,10.0,48,0.00,,SKC,0.00,VWS V14.01,2013-07-13 15:19:00,
2013-07-13 09:20:00,73.4,53.1,30.03,SW,221,5.0,6.0,49,0.00,,SKC,0.00,VWS V14.01,2013-07-13 15:20:00,
2013-07-13 09:21:00,73.6,54.4,30.04,West,274,6.0,10.0,51,0.00,,SKC,0.00,VWS V14.01,2013-07-13 15:21:00,
2013-07-13 09:22:00,73.8,52.9,30.04,WNW,290,11.0,13.0,48,0.00,,SKC,0.00,VWS V14.01,2013-07-13 15:22:00,
2013-07-13 09:23:00,74.0,53.7,30.04,WSW,249,8.0,14.0,49,0.00,,SKC,0.00,VWS V14.01,2013-07-13 15:23:00,
2013-07-13 09:24:00,74.2,53.3,30.04,SW,233,12.0,14.0,48,0.00,,SKC,0.00,VWS V14.01,2013-07-13 15:24:00,
2013-07-13 09:25:00,74.3,52.8,30.03,West,260,6.0,12.0,47,0.00,,SKC,0.00,VWS V14.01,2013-07-13 15:25:00,
2013-07-13 09:26:00,74.4,51.7,30.03,SW,234,5.0,11.0,45,0.00,,SKC,0.00,VWS V14.01,2013-07-13 15:26:00,
2013-07-13 09:27:00,74.4,52.3,30.03,West,273,7.0,9.0,46,0.00,,SKC,0.00,VWS V14.01,2013-07-13 15:27:00,
2013-07-13 09:28:00,74.5,52.4,30.03,West,268,5.0,8.0,46,0.00,,SKC,0.00,VWS V14.01,2013-07-13 15:28:00,
2013-07-13 09:29:00,74.6,52.5,30.03,WSW,250,11.0,13.0,46,0.00,,SKC,0.00,VWS V14.01,2013-07-13 15:29:00,
2013-07-13 09:30:00,74.6,51.3,30.03,West,267,6.0,13.0,44,0.00,,SKC,0.00,VWS V14.01,2013-07-13 15:30:00,
2013-07-13 09:31:00,74.6,51.3,30.03,West,281,10.0,13.0,44,0.00,,SKC,0.00,VWS V14.01,2013-07-13 15:31:00,
2013-07-13 09:32:00,74.6,52.5,30.03,West,278,12.0,13.0,46,0.00,,SKC,0.00,VWS V14.01,2013-07-13 15:32:00,
2013-07-13 09:33:00,74.7,51.4,30.03,West,262,11.0,15.0,44,0.00,,SKC,0.00,VWS V14.01,2013-07-13 15:33:00,
2013-07-13 09:34:00,74.7,52.0,30.03,WSW,250,13.0,14.0,45,0.00,,SKC,0.00,VWS V14.01,2013-07-13 15:34:00,
2013-07-13 09:35:00,74.6,51.9,30.03,West,265,17.0,17.0,45,0.00,,SKC,0.00,VWS V14.01,2013-07-13 15:35:00,
2013-07-13 09:36:00,74.6,51.3,30.03,West,278,15.0,17.0,44,0.00,,SKC,0.00,VWS V14.01,2013-07-13 15:36:00,
2013-07-13 09:37:00,74.6,51.3,30.03,West,278,14.0,19.0,44,0.00,,SKC,0.00,VWS V14.01,2013-07-13 15:37:00,
2013-07-13 09:38:00,74.5,50.6,30.03,WNW,282,17.0,21.0,43,0.00,,SKC,0.00,VWS V14.01,2013-07-13 15:38:00,
2013-07-13 09:39:00,74.5,51.2,30.03,WNW,282,10.0,17.0,44,0.00,,SKC,0.00,VWS V14.01,2013-07-13 15:39:00,
2013-07-13 09:40:00,74.5,51.2,30.03,North,360,16.0,20.0,44,0.00,,SKC,0.00,VWS V14.01,2013-07-13 15:40:00,
2013-07-13 09:41:00,74.4,51.1,30.03,West,274,15.0,16.0,44,0.00,,SKC,0.00,VWS V14.01,2013-07-13 15:41:00,
2013-07-13 09:42:00,74.5,51.2,30.03,West,267,14.0,19.0,44,0.00,,SKC,0.00,VWS V14.01,2013-07-13 15:42:00,
2013-07-13 09:43:00,74.5,50.6,30.04,North,360,11.0,14.0,43,0.00,,SKC,0.00,VWS V14.01,2013-07-13 15:43:00,
2013-07-13 09:44:00,74.5,50.6,30.03,North,360,9.0,12.0,43,0.00,,SKC,0.00,VWS V14.01,2013-07-13 15:44:00,
2013-07-13 09:45:00,74.5,50.6,30.03,WNW,297,5.0,9.0,43,0.00,,SKC,0.00,VWS V14.01,2013-07-13 15:45:00,
2013-07-13 09:46:00,74.6,50.7,30.03,WNW,298,6.0,8.0,43,0.00,,SKC,0.00,VWS V14.01,2013-07-13 15:46:00,
2013-07-13 09:47:00,74.6,50.7,30.03,WNW,294,4.0,6.0,43,0.00,,SKC,0.00,VWS V14.01,2013-07-13 15:47:00,
2013-07-13 09:48:00,74.7,52.0,30.04,West,268,4.0,11.0,45,0.00,,SKC,0.00,VWS V14.01,2013-07-13 15:48:00,
2013-07-13 09:49:00,74.8,52.1,30.04,West,281,6.0,7.0,45,0.00,,SKC,0.00,VWS V14.01,2013-07-13 15:49:00,
2013-07-13 09:50:00,74.9,52.2,30.04,West,259,6.0,10.0,45,0.00,,SKC,0.00,VWS V14.01,2013-07-13 15:50:00,
2013-07-13 09:51:00,75.0,52.8,30.04,WSW,238,7.0,10.0,46,0.00,,SKC,0.00,VWS V14.01,2013-07-13 15:51:00,
2013-07-13 09:52:00,75.1,50.5,30.03,SSW,200,5.0,7.0,42,0.00,,SKC,0.00,VWS V14.01,2013-07-13 15:52:00,
2013-07-13 09:53:00,75.2,51.8,30.03,WNW,293,6.0,6.0,44,0.00,,SKC,0.00,VWS V14.01,2013-07-13 15:53:00,
2013-07-13 09:54:00,75.2,51.8,30.04,West,269,10.0,11.0,44,0.00,,SKC,0.00,VWS V14.01,2013-07-13 15:54:00,
2013-07-13 09:55:00,75.2,51.2,30.03,West,261,12.0,16.0,43,0.00,,SKC,0.00,VWS V14.01,2013-07-13 15:55:00,
2013-07-13 09:56:00,75.3,51.3,30.04,West,278,8.0,13.0,43,0.00,,SKC,0.00,VWS V14.01,2013-07-13 15:56:00,
2013-07-13 09:57:00,75.3,51.3,30.04,North,360,9.0,10.0,43,0.00,,SKC,0.00,VWS V14.01,2013-07-13 15:57:00,
2013-07-13 09:58:00,75.3,50.7,30.04,NNW,333,5.0,11.0,42,0.00,,SKC,0.00,VWS V14.01,2013-07-13 15:58:00,
2013-07-13 09:59:00,75.3,50.7,30.03,NW,319,6.0,6.0,42,0.00,,SKC,0.00,VWS V14.01,2013-07-13 15:59:00,
2013-07-13 10:00:00,75.3,50.7,30.03,WNW,303,2.0,6.0,42,0.00,,SKC,0.00,VWS V14.01,2013-07-13 16:00:00,
2013-07-13 10:01:00,75.4,51.4,30.04,WNW,295,5.0,5.0,43,0.00,,SKC,0.00,VWS V14.01,2013-07-13 16:01:00,
2013-07-13 10:02:00,75.4,50.7,30.04,WNW,294,4.0,6.0,42,0.00,,SKC,0.00,VWS V14.01,2013-07-13 16:02:00,
2013-07-13 10:03:00,75.4,51.4,30.04,WNW,284,3.0,5.0,43,0.00,,SKC,0.00,VWS V14.01,2013-07-13 16:03:00,
2013-07-13 10:04:00,75.4,50.7,30.03,North,360,5.0,5.0,42,0.00,,SKC,0.00,VWS V14.01,2013-07-13 16:04:00,
2013-07-13 10:05:00,75.4,51.4,30.04,WNW,290,9.0,9.0,43,0.00,,SKC,0.00,VWS V14.01,2013-07-13 16:05:00,
2013-07-13 10:06:00,75.4,51.4,30.04,WNW,303,7.0,9.0,43,0.00,,SKC,0.00,VWS V14.01,2013-07-13 16:06:00,
2013-07-13 10:07:00,75.4,50.1,30.04,WNW,283,4.0,7.0,41,0.00,,SKC,0.00,VWS V14.01,2013-07-13 16:07:00,
2013-07-13 10:08:00,75.4,51.4,30.04,WSW,254,4.0,7.0,43,0.00,,SKC,0.00,VWS V14.01,2013-07-13 16:08:00,
2013-07-13 10:09:00,75.4,50.1,30.03,WSW,248,4.0,5.0,41,0.00,,SKC,0.00,VWS V14.01,2013-07-13 16:09:00,
2013-07-13 10:10:00,75.4,50.7,30.03,WSW,258,7.0,12.0,42,0.00,,SKC,0.00,VWS V14.01,2013-07-13 16:10:00,
2013-07-13 10:11:00,75.4,50.7,30.04,West,277,9.0,12.0,42,0.00,,SKC,0.00,VWS V14.01,2013-07-13 16:11:00,
2013-07-13 10:12:00,75.4,51.4,30.04,WNW,293,9.0,11.0,43,0.00,,SKC,0.00,VWS V14.01,2013-07-13 16:12:00,
2013-07-13 10:13:00,75.5,51.5,30.04,West,280,5.0,10.0,43,0.00,,SKC,0.00,VWS V14.01,2013-07-13 16:13:00,
2013-07-13 10:14:00,75.6,52.2,30.04,West,271,4.0,7.0,44,0.00,,SKC,0.00,VWS V14.01,2013-07-13 16:14:00,
2013-07-13 10:15:00,75.8,52.4,30.04,West,273,2.0,5.0,44,0.00,,SKC,0.00,VWS V14.01,2013-07-13 16:15:00,
2013-07-13 10:16:00,75.9,53.1,30.04,North,360,4.0,5.0,45,0.00,,SKC,0.00,VWS V14.01,2013-07-13 16:16:00,
2013-07-13 10:17:00,76.0,51.3,30.04,SW,234,3.0,6.0,42,0.00,,SKC,0.00,VWS V14.01,2013-07-13 16:17:00,
2013-07-13 10:18:00,76.2,50.1,30.04,West,259,5.0,9.0,40,0.00,,SKC,0.00,VWS V14.01,2013-07-13 16:18:00,
2013-07-13 10:19:00,76.4,51.6,30.04,West,271,11.0,16.0,42,0.00,,SKC,0.00,VWS V14.01,2013-07-13 16:19:00,
2013-07-13 10:20:00,76.5,51.7,30.04,WNW,289,11.0,12.0,42,0.00,,SKC,0.00,VWS V14.01,2013-07-13 16:20:00,
2013-07-13 10:21:00,76.7,51.9,30.04,West,271,6.0,11.0,42,0.00,,SKC,0.00,VWS V14.01,2013-07-13 16:21:00,
2013-07-13 10:22:00,76.9,51.4,30.03,West,273,8.0,8.0,41,0.00,,SKC,0.00,VWS V14.01,2013-07-13 16:22:00,
2013-07-13 10:23:00,77.0,50.8,30.03,WNW,292,8.0,8.0,40,0.00,,SKC,0.00,VWS V14.01,2013-07-13 16:23:00,
2013-07-13 10:24:00,77.2,51.7,30.03,WNW,287,4.0,8.0,41,0.00,,SKC,0.00,VWS V14.01,2013-07-13 16:24:00,
2013-07-13 10:25:00,77.4,52.5,30.03,West,271,5.0,7.0,42,0.00,,SKC,0.00,VWS V14.01,2013-07-13 16:25:00,
2013-07-13 10:26:00,77.6,50.7,30.03,WSW,258,7.0,7.0,39,0.00,,SKC,0.00,VWS V14.01,2013-07-13 16:26:00,
2013-07-13 10:27:00,77.7,50.8,30.03,WSW,252,5.0,7.0,39,0.00,,SKC,0.00,VWS V14.01,2013-07-13 16:27:00,
2013-07-13 10:28:00,77.9,50.3,30.03,West,265,6.0,9.0,38,0.00,,SKC,0.00,VWS V14.01,2013-07-13 16:28:00,
2013-07-13 10:29:00,78.0,50.4,30.03,West,262,5.0,6.0,38,0.00,,SKC,0.00,VWS V14.01,2013-07-13 16:29:00,
2013-07-13 10:30:00,78.2,51.2,30.03,SSW,196,9.0,9.0,39,0.00,,SKC,0.00,VWS V14.01,2013-07-13 16:30:00,
2013-07-13 10:31:00,78.4,52.1,30.03,SSW,198,7.0,10.0,40,0.00,,SKC,0.00,VWS V14.01,2013-07-13 16:31:00,
2013-07-13 10:32:00,78.6,50.2,30.03,South,189,8.0,13.0,37,0.00,,SKC,0.00,VWS V14.01,2013-07-13 16:32:00,
2013-07-13 10:33:00,78.7,51.7,30.03,WSW,243,6.0,9.0,39,0.00,,SKC,0.00,VWS V14.01,2013-07-13 16:33:00,
2013-07-13 10:34:00,78.7,51.0,30.03,West,261,11.0,11.0,38,0.00,,SKC,0.00,VWS V14.01,2013-07-13 16:34:00,
2013-07-13 10:35:00,78.8,50.4,30.03,West,260,2.0,11.0,37,0.00,,SKC,0.00,VWS V14.01,2013-07-13 16:35:00,
2013-07-13 10:36:00,78.8,48.9,30.04,North,360,7.0,8.0,35,0.00,,SKC,0.00,VWS V14.01,2013-07-13 16:36:00,
2013-07-13 10:37:00,78.8,48.9,30.03,WSW,257,8.0,11.0,35,0.00,,SKC,0.00,VWS V14.01,2013-07-13 16:37:00,
2013-07-13 10:38:00,78.8,49.6,30.03,SSW,192,6.0,11.0,36,0.00,,SKC,0.00,VWS V14.01,2013-07-13 16:38:00,
2013-07-13 10:39:00,78.8,49.6,30.03,SSW,192,6.0,8.0,36,0.00,,SKC,0.00,VWS V14.01,2013-07-13 16:39:00,
2013-07-13 10:40:00,78.9,53.2,30.04,South,178,6.0,8.0,41,0.00,,SKC,0.00,VWS V14.01,2013-07-13 16:40:00,
2013-07-13 10:41:00,78.9,55.8,30.04,South,169,6.0,9.0,45,0.00,,SKC,0.00,VWS V14.01,2013-07-13 16:41:00,
2013-07-13 10:42:00,79.1,56.6,30.04,North,360,4.0,9.0,46,0.00,,SKC,0.00,VWS V14.01,2013-07-13 16:42:00,
2013-07-13 10:43:00,79.1,53.4,30.03,SSW,198,8.0,9.0,41,0.00,,SKC,0.00,VWS V14.01,2013-07-13 16:43:00,
2013-07-13 10:44:00,79.1,54.7,30.03,South,184,5.0,10.0,43,0.00,,SKC,0.00,VWS V14.01,2013-07-13 16:44:00,
2013-07-13 10:45:00,79.1,56.0,30.03,SSW,192,6.0,6.0,45,0.00,,SKC,0.00,VWS V14.01,2013-07-13 16:45:00,
2013-07-13 10:46:00,79.1,56.0,30.04,SSW,211,5.0,6.0,45,0.00,,SKC,0.00,VWS V14.01,2013-07-13 16:46:00,
2013-07-13 10:47:00,79.1,56.0,30.04,SSW,213,2.0,5.0,45,0.00,,SKC,0.00,VWS V14.01,2013-07-13 16:47:00,
2013-07-13 10:48:00,79.1,56.6,30.04,SSW,211,0.0,4.0,46,0.00,,SKC,0.00,VWS V14.01,2013-07-13 16:48:00,
2013-07-13 10:49:00,79.1,56.0,30.04,SE,139,5.0,8.0,45,0.00,,SKC,0.00,VWS V14.01,2013-07-13 16:49:00,
2013-07-13 10:50:00,79.1,56.0,30.04,SE,135,3.0,5.0,45,0.00,,SKC,0.00,VWS V14.01,2013-07-13 16:50:00,
2013-07-13 10:51:00,78.9,53.9,30.04,South,169,7.0,9.0,42,0.00,,SKC,0.00,VWS V14.01,2013-07-13 16:51:00,
2013-07-13 10:52:00,78.7,54.3,30.04,SSE,167,4.0,7.0,43,0.00,,SKC,0.00,VWS V14.01,2013-07-13 16:52:00,
2013-07-13 10:53:00,78.7,55.6,30.03,North,360,4.0,5.0,45,0.00,,SKC,0.00,VWS V14.01,2013-07-13 16:53:00,
2013-07-13 10:54:00,78.7,56.2,30.03,SSW,211,1.0,6.0,46,0.00,,SKC,0.00,VWS V14.01,2013-07-13 16:54:00,
2013-07-13 10:55:00,78.7,56.8,30.03,SW,228,2.0,5.0,47,0.00,,SKC,0.00,VWS V14.01,2013-07-13 16:55:00,
2013-07-13 10:56:00,78.7,56.2,30.03,SW,220,4.0,5.0,46,0.00,,SKC,0.00,VWS V14.01,2013-07-13 16:56:00,
2013-07-13 10:57:00,78.7,56.8,30.04,North,360,1.0,5.0,47,0.00,,SKC,0.00,VWS V14.01,2013-07-13 16:57:00,
2013-07-13 10:58:00,79.0,57.1,30.03,SSW,200,1.0,2.0,47,0.00,,SKC,0.00,VWS V14.01,2013-07-13 16:58:00,
2013-07-13 10:59:00,79.1,56.6,30.03,SSW,194,0.0,3.0,46,0.00,,SKC,0.00,VWS V14.01,2013-07-13 16:59:00,
2013-07-13 11:00:00,79.3,53.6,30.03,North,5,1.0,5.0,41,0.00,,SKC,0.00,VWS V14.01,2013-07-13 17:00:00,
2013-07-13 11:01:00,79.4,56.2,30.03,East,92,4.0,5.0,45,0.00,,SKC,0.00,VWS V14.01,2013-07-13 17:01:00,
2013-07-13 11:02:00,79.6,54.5,30.03,East,95,4.0,5.0,42,0.00,,SKC,0.00,VWS V14.01,2013-07-13 17:02:00,
2013-07-13 11:03:00,79.7,55.9,30.03,SSE,156,5.0,6.0,44,0.00,,SKC,0.00,VWS V14.01,2013-07-13 17:03:00,
2013-07-13 11:04:00,79.9,56.1,30.03,South,172,8.0,8.0,44,0.00,,SKC,0.00,VWS V14.01,2013-07-13 17:04:00,
2013-07-13 11:05:00,80.1,57.5,30.03,SSE,156,6.0,10.0,46,0.00,,SKC,0.00,VWS V14.01,2013-07-13 17:05:00,
2013-07-13 11:06:00,80.3,57.0,30.03,SSE,155,5.0,10.0,45,0.00,,SKC,0.00,VWS V14.01,2013-07-13 17:06:00,
2013-07-13 11:07:00,80.3,56.4,30.03,SE,136,10.0,12.0,44,0.00,,SKC,0.00,VWS V14.01,2013-07-13 17:07:00,
2013-07-13 11:08:00,80.2,56.3,30.03,SSE,151,7.0,10.0,44,0.00,,SKC,0.00,VWS V14.01,2013-07-13 17:08:00,
2013-07-13 11:09:00,80.0,56.2,30.03,SSE,150,6.0,12.0,44,0.00,,SKC,0.00,VWS V14.01,2013-07-13 17:09:00,
2013-07-13 11:10:00,79.8,56.6,30.03,SE,140,4.0,9.0,45,0.00,,SKC,0.00,VWS V14.01,2013-07-13 17:10:00,
2013-07-13 11:11:00,79.6,56.4,30.03,SSE,149,6.0,10.0,45,0.00,,SKC,0.00,VWS V14.01,2013-07-13 17:11:00,
2013-07-13 11:12:00,79.5,56.9,30.03,ESE,121,6.0,10.0,46,0.00,,SKC,0.00,VWS V14.01,2013-07-13 17:12:00,
2013-07-13 11:13:00,79.3,56.8,30.03,SE,132,7.0,10.0,46,0.00,,SKC,0.00,VWS V14.01,2013-07-13 17:13:00,
2013-07-13 11:14:00,79.2,56.7,30.03,SSE,162,6.0,10.0,46,0.00,,SKC,0.00,VWS V14.01,2013-07-13 17:14:00,
2013-07-13 11:15:00,79.2,57.2,30.03,SSE,150,7.0,11.0,47,0.00,,SKC,0.00,VWS V14.01,2013-07-13 17:15:00,
2013-07-13 11:16:00,79.1,57.2,30.03,SSE,166,7.0,8.0,47,0.00,,SKC,0.00,VWS V14.01,2013-07-13 17:16:00,
2013-07-13 11:17:00,79.1,57.2,30.03,SE,126,5.0,7.0,47,0.00,,SKC,0.00,VWS V14.01,2013-07-13 17:17:00,
2013-07-13 11:18:00,79.0,57.7,30.03,SSE,163,5.0,7.0,48,0.00,,SKC,0.00,VWS V14.01,2013-07-13 17:18:00,
2013-07-13 11:19:00,79.0,57.7,30.03,ESE,108,7.0,11.0,48,0.00,,SKC,0.00,VWS V14.01,2013-07-13 17:19:00,
2013-07-13 11:20:00,78.8,57.5,30.03,ESE,123,6.0,10.0,48,0.00,,SKC,0.00,VWS V14.01,2013-07-13 17:20:00,
2013-07-13 11:21:00,78.7,57.4,30.03,SE,128,3.0,6.0,48,0.00,,SKC,0.00,VWS V14.01,2013-07-13 17:21:00,
2013-07-13 11:22:00,78.6,56.7,30.03,SE,130,12.0,13.0,47,0.00,,SKC,0.00,VWS V14.01,2013-07-13 17:22:00,
2013-07-13 11:23:00,78.3,57.6,30.03,SE,142,4.0,14.0,49,0.00,,SKC,0.00,VWS V14.01,2013-07-13 17:23:00,
2013-07-13 11:24:00,78.2,56.9,30.03,SSE,167,6.0,9.0,48,0.00,,SKC,0.00,VWS V14.01,2013-07-13 17:24:00,
2013-07-13 11:25:00,78.0,57.9,30.03,North,360,4.0,11.0,50,0.00,,SKC,0.00,VWS V14.01,2013-07-13 17:25:00,
2013-07-13 11:26:00,78.0,57.9,30.03,East,96,7.0,10.0,50,0.00,,SKC,0.00,VWS V14.01,2013-07-13 17:26:00,
2013-07-13 11:27:00,77.9,57.8,30.04,East,96,5.0,10.0,50,0.00,,SKC,0.00,VWS V14.01,2013-07-13 17:27:00,
2013-07-13 11:28:00,77.8,58.2,30.04,ESE,103,2.0,7.0,51,0.00,,SKC,0.00,VWS V14.01,2013-07-13 17:28:00,
2013-07-13 11:29:00,77.7,57.6,30.04,ESE,111,4.0,10.0,50,0.00,,SKC,0.00,VWS V14.01,2013-07-13 17:29:00,
2013-07-13 11:30:00,77.6,58.1,30.04,East,101,6.0,10.0,51,0.00,,SKC,0.00,VWS V14.01,2013-07-13 17:30:00,
2013-07-13 11:31:00,77.5,58.5,30.03,ESE,113,5.0,12.0,52,0.00,,SKC,0.00,VWS V14.01,2013-07-13 17:31:00,
2013-07-13 11:32:00,77.5,58.0,30.03,ESE,105,5.0,10.0,51,0.00,,SKC,0.00,VWS V14.01,2013-07-13 17:32:00,
2013-07-13 11:33:00,77.5,58.0,30.03,ESE,113,7.0,10.0,51,0.00,,SKC,0.00,VWS V14.01,2013-07-13 17:33:00,
2013-07-13 11:34:00,77.5,58.0,30.03,East,97,9.0,12.0,51,0.00,,SKC,0.00,VWS V14.01,2013-07-13 17:34:00,
2013-07-13 11:35:00,77.4,57.9,30.03,ESE,109,9.0,14.0,51,0.00,,SKC,0.00,VWS V14.01,2013-07-13 17:35:00,
2013-07-13 11:36:00,77.3,57.8,30.03,East,87,9.0,11.0,51,0.00,,SKC,0.00,VWS V14.01,2013-07-13 17:36:00,
2013-07-13 11:37:00,77.2,57.7,30.03,SE,126,7.0,11.0,51,0.00,,SKC,0.00,VWS V14.01,2013-07-13 17:37:00,
2013-07-13 11:38:00,77.1,57.6,30.03,ESE,103,10.0,10.0,51,0.00,,SKC,0.00,VWS V14.01,2013-07-13 17:38:00,
2013-07-13 11:39:00,77.0,57.5,30.03,East,92,6.0,10.0,51,0.00,,SKC,0.00,VWS V14.01,2013-07-13 17:39:00,
2013-07-13 11:40:00,76.9,57.4,30.03,East,98,12.0,12.0,51,0.00,,SKC,0.00,VWS V14.01,2013-07-13 17:40:00,
2013-07-13 11:41:00,76.8,57.3,30.03,ESE,102,5.0,12.0,51,0.00,,SKC,0.00,VWS V14.01,2013-07-13 17:41:00,
2013-07-13 11:42:00,76.7,57.8,30.03,East,98,4.0,9.0,52,0.00,,SKC,0.00,VWS V14.01,2013-07-13 17:42:00,
2013-07-13 11:43:00,76.6,57.1,30.03,ENE,75,11.0,11.0,51,0.00,,SKC,0.00,VWS V14.01,2013-07-13 17:43:00,
2013-07-13 11:44:00,76.5,57.6,30.03,East,89,9.0,14.0,52,0.00,,SKC,0.00,VWS V14.01,2013-07-13 17:44:00,
2013-07-13 11:45:00,76.4,57.5,30.03,ENE,63,7.0,12.0,52,0.00,,SKC,0.00,VWS V14.01,2013-07-13 17:45:00,
2013-07-13 11:46:00,76.3,57.4,30.03,East,92,6.0,7.0,52,0.00,,SKC,0.00,VWS V14.01,2013-07-13 17:46:00,
2013-07-13 11:47:00,76.2,57.3,30.03,East,98,3.0,7.0,52,0.00,,SKC,0.00,VWS V14.01,2013-07-13 17:47:00,
2013-07-13 11:48:00,76.1,56.7,30.03,SE,130,5.0,10.0,51,0.00,,SKC,0.00,VWS V14.01,2013-07-13 17:48:00,
2013-07-13 11:49:00,75.9,57.0,30.03,SE,146,6.0,10.0,52,0.00,,SKC,0.00,VWS V14.01,2013-07-13 17:49:00,
2013-07-13 11:50:00,75.8,56.9,30.03,SSE,148,4.0,6.0,52,0.00,,SKC,0.00,VWS V14.01,2013-07-13 17:50:00,
2013-07-13 11:51:00,75.8,58.0,30.03,SE,146,3.0,4.0,54,0.00,,SKC,0.00,VWS V14.01,2013-07-13 17:51:00,
2013-07-13 11:52:00,75.8,58.5,30.03,SE,134,6.0,8.0,55,0.00,,SKC,0.00,VWS V14.01,2013-07-13 17:52:00,
2013-07-13 11:53:00,75.9,57.6,30.03,SE,131,5.0,6.0,53,0.00,,SKC,0.00,VWS V14.01,2013-07-13 17:53:00,
2013-07-13 11:54:00,76.0,57.1,30.03,SE,132,9.0,9.0,52,0.00,,SKC,0.00,VWS V14.01,2013-07-13 17:54:00,
2013-07-13 11:55:00,76.1,57.7,30.03,SE,132,10.0,12.0,53,0.00,,SKC,0.00,VWS V14.01,2013-07-13 17:55:00,
2013-07-13 11:56:00,76.4,59.1,30.03,SE,132,5.0,10.0,55,0.00,,SKC,0.00,VWS V14.01,2013-07-13 17:56:00,
2013-07-13 11:57:00,76.6,57.7,30.03,ESE,123,12.0,12.0,52,0.00,,SKC,0.00,VWS V14.01,2013-07-13 17:57:00,
2013-07-13 11:58:00,76.8,56.8,30.03,ESE,121,8.0,12.0,50,0.00,,SKC,0.00,VWS V14.01,2013-07-13 17:58:00,
2013-07-13 11:59:00,77.1,57.6,30.03,SE,139,10.0,11.0,51,0.00,,SKC,0.00,VWS V14.01,2013-07-13 17:59:00,
2013-07-13 12:00:00,77.4,57.9,30.03,SE,138,4.0,10.0,51,0.00,,SKC,0.00,VWS V14.01,2013-07-13 18:00:00,
2013-07-13 12:01:00,77.7,58.7,30.03,SE,138,3.0,6.0,52,0.00,,SKC,0.00,VWS V14.01,2013-07-13 18:01:00,
2013-07-13 12:02:00,78.0,57.9,30.03,SE,133,4.0,8.0,50,0.00,,SKC,0.00,VWS V14.01,2013-07-13 18:02:00,
2013-07-13 12:03:00,78.3,58.7,30.03,ESE,123,6.0,7.0,51,0.00,,SKC,0.00,VWS V14.01,2013-07-13 18:03:00,
2013-07-13 12:04:00,78.7,58.5,30.03,SE,126,7.0,10.0,50,0.00,,SKC,0.00,VWS V14.01,2013-07-13 18:04:00,
2013-07-13 12:05:00,78.7,57.4,30.03,SE,127,8.0,10.0,48,0.00,,SKC,0.00,VWS V14.01,2013-07-13 18:05:00,
2013-07-13 12:06:00,79.0,57.7,30.03,SE,130,6.0,14.0,48,0.00,,SKC,0.00,VWS V14.01,2013-07-13 18:06:00,
2013-07-13 12:07:00,79.1,57.2,30.03,ESE,119,10.0,16.0,47,0.00,,SKC,0.00,VWS V14.01,2013-07-13 18:07:00,
2013-07-13 12:08:00,79.0,57.1,30.03,SE,128,17.0,17.0,47,0.00,,SKC,0.00,VWS V14.01,2013-07-13 18:08:00,
2013-07-13 12:09:00,79.0,58.2,30.03,SE,132,12.0,17.0,49,0.00,,SKC,0.00,VWS V14.01,2013-07-13 18:09:00,
2013-07-13 12:10:00,78.8,57.5,30.04,SE,131,5.0,12.0,48,0.00,,SKC,0.00,VWS V14.01,2013-07-13 18:10:00,
2013-07-13 12:11:00,78.7,56.8,30.04,SE,142,9.0,9.0,47,0.00,,SKC,0.00,VWS V14.01,2013-07-13 18:11:00,
2013-07-13 12:12:00,78.6,57.3,30.03,SE,134,7.0,12.0,48,0.00,,SKC,0.00,VWS V14.01,2013-07-13 18:12:00,
2013-07-13 12:13:00,78.4,57.1,30.04,SE,140,8.0,13.0,48,0.00,,SKC,0.00,VWS V14.01,2013-07-13 18:13:00,
2013-07-13 12:14:00,78.2,57.5,30.04,East,98,6.0,13.0,49,0.00,,SKC,0.00,VWS V14.01,2013-07-13 18:14:00,
2013-07-13 12:15:00,78.2,58.1,30.03,ESE,109,4.0,10.0,50,0.00,,SKC,0.00,VWS V14.01,2013-07-13 18:15:00,
2013-07-13 12:16:00,78.0,57.9,30.04,ESE,119,17.0,17.0,50,0.00,,SKC,0.00,VWS V14.01,2013-07-13 18:16:00,
2013-07-13 12:17:00,78.0,58.4,30.04,SE,128,6.0,17.0,51,0.00,,SKC,0.00,VWS V14.01,2013-07-13 18:17:00,
2013-07-13 12:18:00,77.9,57.8,30.03,ESE,119,11.0,12.0,50,0.00,,SKC,0.00,VWS V14.01,2013-07-13 18:18:00,
2013-07-13 12:19:00,77.8,57.1,30.03,ESE,111,9.0,13.0,49,0.00,,SKC,0.00,VWS V14.01,2013-07-13 18:19:00,
2013-07-13 12:20:00,77.7,58.2,30.03,ESE,107,10.0,13.0,51,0.00,,SKC,0.00,VWS V14.01,2013-07-13 18:20:00,
2013-07-13 12:21:00,77.7,58.7,30.03,SSE,153,12.0,12.0,52,0.00,,SKC,0.00,VWS V14.01,2013-07-13 18:21:00,
2013-07-13 12:22:00,77.7,58.2,30.03,ESE,112,7.0,12.0,51,0.00,,SKC,0.00,VWS V14.01,2013-07-13 18:22:00,
2013-07-13 12:23:00,77.7,57.6,30.03,SE,142,3.0,12.0,50,0.00,,SKC,0.00,VWS V14.01,2013-07-13 18:23:00,
2013-07-13 12:24:00,77.6,57.5,30.03,SE,138,12.0,12.0,50,0.00,,SKC,0.00,VWS V14.01,2013-07-13 18:24:00,
2013-07-13 12:25:00,77.7,59.2,30.03,SSE,148,11.0,13.0,53,0.00,,SKC,0.00,VWS V14.01,2013-07-13 18:25:00,
2013-07-13 12:26:00,77.8,58.2,30.03,SE,137,10.0,11.0,51,0.00,,SKC,0.00,VWS V14.01,2013-07-13 18:26:00,
2013-07-13 12:27:00,77.9,59.9,30.03,SE,132,4.0,10.0,54,0.00,,SKC,0.00,VWS V14.01,2013-07-13 18:27:00,
2013-07-13 12:28:00,78.1,60.1,30.03,SE,133,5.0,8.0,54,0.00,,SKC,0.00,VWS V14.01,2013-07-13 18:28:00,
2013-07-13 12:29:00,78.4,59.9,30.03,ESE,116,7.0,10.0,53,0.00,,SKC,0.00,VWS V14.01,2013-07-13 18:29:00,
2013-07-13 12:30:00,78.5,57.8,30.03,ESE,111,4.0,7.0,49,0.00,,SKC,0.00,VWS V14.01,2013-07-13 18:30:00,
2013-07-13 12:31:00,78.5,57.8,30.03,SSE,147,4.0,6.0,49,0.00,,SKC,0.00,VWS V14.01,2013-07-13 18:31:00,
2013-07-13 12:32:00,78.6,59.5,30.03,SE,129,6.0,10.0,52,0.00,,SKC,0.00,VWS V14.01,2013-07-13 18:32:00,
2013-07-13 12:33:00,78.7,59.1,30.03,SE,132,6.0,11.0,51,0.00,,SKC,0.00,VWS V14.01,2013-07-13 18:33:00,
2013-07-13 12:34:00,78.7,59.1,30.04,ESE,119,6.0,6.0,51,0.00,,SKC,0.00,VWS V14.01,2013-07-13 18:34:00,
2013-07-13 12:35:00,78.7,59.1,30.03,SE,144,8.0,8.0,51,0.00,,SKC,0.00,VWS V14.01,2013-07-13 18:35:00,
2013-07-13 12:36:00,78.7,59.1,30.03,ESE,114,2.0,9.0,51,0.00,,SKC,0.00,VWS V14.01,2013-07-13 18:36:00,
2013-07-13 12:37:00,78.8,59.2,30.03,ESE,118,4.0,4.0,51,0.00,,SKC,0.00,VWS V14.01,2013-07-13 18:37:00,
2013-07-13 12:38:00,78.9,59.8,30.04,ESE,117,9.0,9.0,52,0.00,,SKC,0.00,VWS V14.01,2013-07-13 18:38:00,
2013-07-13 12:39:00,78.9,58.1,30.04,SE,129,9.0,11.0,49,0.00,,SKC,0.00,VWS V14.01,2013-07-13 18:39:00,
2013-07-13 12:40:00,78.9,58.7,30.04,East,101,4.0,9.0,50,0.00,,SKC,0.00,VWS V14.01,2013-07-13 18:40:00,
2013-07-13 12:41:00,78.9,58.7,30.04,ESE,107,4.0,5.0,50,0.00,,SKC,0.00,VWS V14.01,2013-07-13 18:41:00,
2013-07-13 12:42:00,78.9,58.1,30.04,ESE,113,5.0,9.0,49,0.00,,SKC,0.00,VWS V14.01,2013-07-13 18:42:00,
2013-07-13 12:43:00,78.9,58.7,30.04,SE,134,3.0,7.0,50,0.00,,SKC,0.00,VWS V14.01,2013-07-13 18:43:00,
2013-07-13 12:44:00,78.8,58.6,30.03,ESE,107,9.0,9.0,50,0.00,,SKC,0.00,VWS V14.01,2013-07-13 18:44:00,
2013-07-13 12:45:00,78.8,58.6,30.04,ESE,105,4.0,9.0,50,0.00,,SKC,0.00,VWS V14.01,2013-07-13 18:45:00,
2013-07-13 12:46:00,78.9,58.1,30.04,ESE,115,6.0,6.0,49,0.00,,SKC,0.00,VWS V14.01,2013-07-13 18:46:00,
2013-07-13 12:47:00,78.9,58.7,30.04,ESE,102,6.0,9.0,50,0.00,,SKC,0.00,VWS V14.01,2013-07-13 18:47:00,
2013-07-13 12:48:00,78.9,58.1,30.04,ESE,103,5.0,9.0,49,0.00,,SKC,0.00,VWS V14.01,2013-07-13 18:48:00,
2013-07-13 12:49:00,78.9,57.6,30.04,East,96,3.0,6.0,48,0.00,,SKC,0.00,VWS V14.01,2013-07-13 18:49:00,
2013-07-13 12:50:00,78.9,58.1,30.04,ESE,103,9.0,11.0,49,0.00,,SKC,0.00,VWS V14.01,2013-07-13 18:50:00,
2013-07-13 12:51:00,78.8,58.0,30.04,ESE,121,11.0,11.0,49,0.00,,SKC,0.00,VWS V14.01,2013-07-13 18:51:00,
2013-07-13 12:52:00,78.7,58.0,30.04,East,90,5.0,11.0,49,0.00,,SKC,0.00,VWS V14.01,2013-07-13 18:52:00,
2013-07-13 12:53:00,78.7,58.0,30.04,ESE,118,4.0,5.0,49,0.00,,SKC,0.00,VWS V14.01,2013-07-13 18:53:00,
2013-07-13 12:54:00,78.7,58.5,30.04,SE,136,11.0,12.0,50,0.00,,SKC,0.00,VWS V14.01,2013-07-13 18:54:00,
2013-07-13 12:55:00,78.7,59.1,30.04,ESE,111,6.0,11.0,51,0.00,,SKC,0.00,VWS V14.01,2013-07-13 18:55:00,
2013-07-13 12:56:00,78.6,58.4,30.04,SE,130,6.0,11.0,50,0.00,,SKC,0.00,VWS V14.01,2013-07-13 18:56:00,
2013-07-13 12:57:00,78.5,58.3,30.04,ESE,108,7.0,10.0,50,0.00,,SKC,0.00,VWS V14.01,2013-07-13 18:57:00,
2013-07-13 12:58:00,78.4,58.8,30.04,ESE,107,8.0,10.0,51,0.00,,SKC,0.00,VWS V14.01,2013-07-13 18:58:00,
2013-07-13 12:59:00,78.4,58.2,30.04,East,88,5.0,9.0,50,0.00,,SKC,0.00,VWS V14.01,2013-07-13 18:59:00,
2013-07-13 13:00:00,78.4,58.2,30.04,SE,127,3.0,5.0,50,0.00,,SKC,0.00,VWS V14.01,2013-07-13 19:00:00,
2013-07-13 13:01:00,78.5,58.9,30.04,SE,132,4.0,5.0,51,0.00,,SKC,0.00,VWS V14.01,2013-07-13 19:01:00,
2013-07-13 13:02:00,78.6,59.0,30.04,SE,142,6.0,7.0,51,0.00,,SKC,0.00,VWS V14.01,2013-07-13 19:02:00,
2013-07-13 13:03:00,78.7,58.0,30.04,SSE,147,0.0,6.0,49,0.00,,SKC,0.00,VWS V14.01,2013-07-13 19:03:00,
2013-07-13 13:04:00,78.7,58.5,30.03,SSE,158,3.0,5.0,50,0.00,,SKC,0.00,VWS V14.01,2013-07-13 19:04:00,
2013-07-13 13:05:00,78.9,59.3,30.03,SSE,164,0.0,3.0,51,0.00,,SKC,0.00,VWS V14.01,2013-07-13 19:05:00,
2013-07-13 13:06:00,79.1,59.4,30.03,SE,128,6.0,7.0,51,0.00,,SKC,0.00,VWS V14.01,2013-07-13 19:06:00,
2013-07-13 13:07:00,79.3,59.1,30.03,ENE,75,5.0,6.0,50,0.00,,SKC,0.00,VWS V14.01,2013-07-13 19:07:00,
2013-07-13 13:08:00,79.6,58.2,30.03,East,93,5.0,6.0,48,0.00,,SKC,0.00,VWS V14.01,2013-07-13 19:08:00,
2013-07-13 13:09:00,79.9,57.9,30.03,SE,132,10.0,12.0,47,0.00,,SKC,0.00,VWS V14.01,2013-07-13 19:09:00,
2013-07-13 13:10:00,80.3,59.4,30.03,South,169,10.0,10.0,49,0.00,,SKC,0.00,VWS V14.01,2013-07-13 19:10:00,
2013-07-13 13:11:00,80.6,60.3,30.03,South,169,5.0,10.0,50,0.00,,SKC,0.00,VWS V14.01,2013-07-13 19:11:00,
2013-07-13 13:12:00,81.1,60.7,30.03,SSE,167,3.0,9.0,50,0.00,,SKC,0.00,VWS V14.01,2013-07-13 19:12:00,
2013-07-13 13:13:00,81.4,59.8,30.03,ESE,103,3.0,6.0,48,0.00,,SKC,0.00,VWS V14.01,2013-07-13 19:13:00,
2013-07-13 13:14:00,81.8,59.6,30.02,East,84,3.0,11.0,47,0.00,,SKC,0.00,VWS V14.01,2013-07-13 19:14:00,
2013-07-13 13:15:00,82.1,59.9,30.02,ESE,111,7.0,8.0,47,0.00,,SKC,0.00,VWS V14.01,2013-07-13 19:15:00,
2013-07-13 13:16:00,82.4,59.0,30.02,East,99,11.0,11.0,45,0.00,,SKC,0.00,VWS V14.01,2013-07-13 19:16:00,
2013-07-13 13:17:00,82.6,59.1,30.02,East,94,7.0,11.0,45,0.00,,SKC,0.00,VWS V14.01,2013-07-13 19:17:00,
2013-07-13 13:18:00,82.7,59.8,30.02,ESE,121,7.0,12.0,46,0.00,,SKC,0.00,VWS V14.01,2013-07-13 19:18:00,
2013-07-13 13:19:00,82.9,60.0,30.02,SE,129,5.0,10.0,46,0.00,,SKC,0.00,VWS V14.01,2013-07-13 19:19:00,
2013-07-13 13:20:00,83.0,59.5,30.02,ESE,109,4.0,9.0,45,0.00,,SKC,0.00,VWS V14.01,2013-07-13 19:20:00,
2013-07-13 13:21:00,83.2,59.0,30.02,SE,143,6.0,10.0,44,0.00,,SKC,0.00,VWS V14.01,2013-07-13 19:21:00,
2013-07-13 13:22:00,83.4,58.6,30.02,SE,127,6.0,13.0,43,0.00,,SKC,0.00,VWS V14.01,2013-07-13 19:22:00,
2013-07-13 13:23:00,83.6,57.4,30.02,North,360,10.0,10.0,41,0.00,,SKC,0.00,VWS V14.01,2013-07-13 19:23:00,
2013-07-13 13:24:00,83.6,57.4,30.02,North,360,9.0,10.0,41,0.00,,SKC,0.00,VWS V14.01,2013-07-13 19:24:00,
2013-07-13 13:25:00,83.5,58.7,30.03,SSE,149,6.0,9.0,43,0.00,,SKC,0.00,VWS V14.01,2013-07-13 19:25:00,
2013-07-13 13:26:00,83.4,57.3,30.03,SE,142,6.0,10.0,41,0.00,,SKC,0.00,VWS V14.01,2013-07-13 19:26:00,
2013-07-13 13:27:00,83.5,58.7,30.03,ESE,109,9.0,12.0,43,0.00,,SKC,0.00,VWS V14.01,2013-07-13 19:27:00,
2013-07-13 13:28:00,83.6,58.8,30.03,East,81,9.0,10.0,43,0.00,,SKC,0.00,VWS V14.01,2013-07-13 19:28:00,
2013-07-13 13:29:00,83.7,58.2,30.03,East,100,10.0,15.0,42,0.00,,SKC,0.00,VWS V14.01,2013-07-13 19:29:00,
2013-07-13 13:30:00,83.9,57.7,30.03,East,93,14.0,14.0,41,0.00,,SKC,0.00,VWS V14.01,2013-07-13 19:30:00,
2013-07-13 13:31:00,83.9,58.4,30.02,ESE,103,14.0,14.0,42,0.00,,SKC,0.00,VWS V14.01,2013-07-13 19:31:00,
2013-07-13 13:32:00,84.0,57.8,30.02,SE,134,6.0,14.0,41,0.00,,SKC,0.00,VWS V14.01,2013-07-13 19:32:00,
2013-07-13 13:33:00,84.0,57.1,30.02,East,97,12.0,15.0,40,0.00,,SKC,0.00,VWS V14.01,2013-07-13 19:33:00,
2013-07-13 13:34:00,83.8,57.6,30.02,ESE,104,13.0,13.0,41,0.00,,SKC,0.00,VWS V14.01,2013-07-13 19:34:00,
2013-07-13 13:35:00,83.6,56.8,30.02,ENE,63,10.0,14.0,40,0.00,,SKC,0.00,VWS V14.01,2013-07-13 19:35:00,
2013-07-13 13:36:00,83.4,56.6,30.03,NE,46,2.0,12.0,40,0.00,,SKC,0.00,VWS V14.01,2013-07-13 19:36:00,
2013-07-13 13:37:00,83.2,57.1,30.03,East,86,13.0,13.0,41,0.00,,SKC,0.00,VWS V14.01,2013-07-13 19:37:00,
2013-07-13 13:38:00,82.9,56.8,30.03,East,101,7.0,13.0,41,0.00,,SKC,0.00,VWS V14.01,2013-07-13 19:38:00,
2013-07-13 13:39:00,82.6,56.5,30.03,ESE,103,10.0,14.0,41,0.00,,SKC,0.00,VWS V14.01,2013-07-13 19:39:00,
2013-07-13 13:40:00,82.2,56.8,30.03,East,87,6.0,11.0,42,0.00,,SKC,0.00,VWS V14.01,2013-07-13 19:40:00,
2013-07-13 13:41:00,82.0,57.3,30.02,ESE,110,10.0,11.0,43,0.00,,SKC,0.00,VWS V14.01,2013-07-13 19:41:00,
2013-07-13 13:42:00,81.7,57.0,30.02,East,97,8.0,10.0,43,0.00,,SKC,0.00,VWS V14.01,2013-07-13 19:42:00,
2013-07-13 13:43:00,81.4,56.1,30.03,East,96,16.0,16.0,42,0.00,,SKC,0.00,VWS V14.01,2013-07-13 19:43:00,
2013-07-13 13:44:00,81.2,55.3,30.03,East,82,11.0,16.0,41,0.00,,SKC,0.00,VWS V14.01,2013-07-13 19:44:00,
2013-07-13 13:45:00,80.9,55.7,30.03,East,94,16.0,19.0,42,0.00,,SKC,0.00,VWS V14.01,2013-07-13 19:45:00,
2013-07-13 13:46:00,80.7,56.2,30.03,SE,128,9.0,16.0,43,0.00,,SKC,0.00,VWS V14.01,2013-07-13 19:46:00,
2013-07-13 13:47:00,80.5,56.0,30.03,ESE,123,8.0,12.0,43,0.00,,SKC,0.00,VWS V14.01,2013-07-13 19:47:00,
2013-07-13 13:49:00,80.0,55.5,30.03,ESE,109,9.0,16.0,43,0.00,,SKC,0.00,VWS V14.01,2013-07-13 19:49:00,
2013-07-13 13:50:00,79.7,55.2,30.03,SE,128,6.0,15.0,43,0.00,,SKC,0.00,VWS V14.01,2013-07-13 19:50:00,
2013-07-13 13:51:00,79.4,55.0,30.03,ESE,117,8.0,15.0,43,0.00,,SKC,0.00,VWS V14.01,2013-07-13 19:51:00,
2013-07-13 13:52:00,79.1,54.7,30.03,ESE,105,11.0,16.0,43,0.00,,SKC,0.00,VWS V14.01,2013-07-13 19:52:00,
2013-07-13 13:53:00,78.8,54.4,30.03,East,97,10.0,15.0,43,0.00,,SKC,0.00,VWS V14.01,2013-07-13 19:53:00,
2013-07-13 13:54:00,78.7,54.3,30.03,ESE,118,10.0,13.0,43,0.00,,SKC,0.00,VWS V14.01,2013-07-13 19:54:00,
2013-07-13 13:55:00,78.7,54.3,30.03,East,85,5.0,10.0,43,0.00,,SKC,0.00,VWS V14.01,2013-07-13 19:55:00,
2013-07-13 13:56:00,78.5,54.2,30.02,ENE,59,2.0,6.0,43,0.00,,SKC,0.00,VWS V14.01,2013-07-13 19:56:00,
2013-07-13 13:57:00,78.4,54.7,30.02,SE,129,5.0,7.0,44,0.00,,SKC,0.00,VWS V14.01,2013-07-13 19:57:00,
2013-07-13 13:58:00,78.4,54.7,30.02,East,90,7.0,9.0,44,0.00,,SKC,0.00,VWS V14.01,2013-07-13 19:58:00,
2013-07-13 13:59:00,78.3,54.6,30.02,North,360,5.0,12.0,44,0.00,,SKC,0.00,VWS V14.01,2013-07-13 19:59:00,
2013-07-13 14:00:00,78.2,54.5,30.02,East,91,9.0,13.0,44,0.00,,SKC,0.00,VWS V14.01,2013-07-13 20:00:00,
2013-07-13 14:01:00,78.2,54.5,30.02,SE,130,8.0,12.0,44,0.00,,SKC,0.00,VWS V14.01,2013-07-13 20:01:00,
2013-07-13 14:02:00,78.0,54.3,30.02,ESE,114,8.0,11.0,44,0.00,,SKC,0.00,VWS V14.01,2013-07-13 20:02:00,
2013-07-13 14:03:00,77.9,54.3,30.02,ESE,111,6.0,12.0,44,0.00,,SKC,0.00,VWS V14.01,2013-07-13 20:03:00,
2013-07-13 14:04:00,77.8,54.8,30.02,SE,127,6.0,10.0,45,0.00,,SKC,0.00,VWS V14.01,2013-07-13 20:04:00,
2013-07-13 14:05:00,77.7,54.7,30.03,ESE,118,5.0,10.0,45,0.00,,SKC,0.00,VWS V14.01,2013-07-13 20:05:00,
2013-07-13 14:06:00,77.6,54.6,30.03,ESE,105,12.0,14.0,45,0.00,,SKC,0.00,VWS V14.01,2013-07-13 20:06:00,
2013-07-13 14:07:00,77.4,54.4,30.03,SE,126,4.0,12.0,45,0.00,,SKC,0.00,VWS V14.01,2013-07-13 20:07:00,
2013-07-13 14:08:00,77.3,54.3,30.03,ESE,122,5.0,10.0,45,0.00,,SKC,0.00,VWS V14.01,2013-07-13 20:08:00,
2013-07-13 14:09:00,77.2,54.8,30.02,ESE,111,10.0,10.0,46,0.00,,SKC,0.00,VWS V14.01,2013-07-13 20:09:00,
2013-07-13 14:10:00,77.1,54.8,30.03,ESE,109,7.0,11.0,46,0.00,,SKC,0.00,VWS V14.01,2013-07-13 20:10:00,
2013-07-13 14:11:00,76.9,55.2,30.02,ENE,63,5.0,9.0,47,0.00,,SKC,0.00,VWS V14.01,2013-07-13 20:11:00,
2013-07-13 14:12:00,76.8,54.5,30.02,ESE,105,3.0,9.0,46,0.00,,SKC,0.00,VWS V14.01,2013-07-13 20:12:00,
2013-07-13 14:13:00,76.6,54.3,30.02,ESE,104,7.0,11.0,46,0.00,,SKC,0.00,VWS V14.01,2013-07-13 20:13:00,
2013-07-13 14:14:00,76.5,54.8,30.02,ESE,122,13.0,13.0,47,0.00,,SKC,0.00,VWS V14.01,2013-07-13 20:14:00,
2013-07-13 14:15:00,76.3,54.6,30.02,SE,138,5.0,13.0,47,0.00,,SKC,0.00,VWS V14.01,2013-07-13 20:15:00,
2013-07-13 14:16:00,76.2,54.5,30.02,ESE,122,12.0,12.0,47,0.00,,SKC,0.00,VWS V14.01,2013-07-13 20:16:00,
2013-07-13 14:17:00,76.1,54.4,30.02,ESE,119,7.0,12.0,47,0.00,,SKC,0.00,VWS V14.01,2013-07-13 20:17:00,
2013-07-13 14:18:00,76.0,54.9,30.02,SE,130,10.0,13.0,48,0.00,,SKC,0.00,VWS V14.01,2013-07-13 20:18:00,
2013-07-13 14:19:00,75.8,54.7,30.02,ESE,115,3.0,12.0,48,0.00,,SKC,0.00,VWS V14.01,2013-07-13 20:19:00,
2013-07-13 14:20:00,75.7,55.2,30.02,SE,133,6.0,10.0,49,0.00,,SKC,0.00,VWS V14.01,2013-07-13 20:20:00,
2013-07-13 14:21:00,75.7,55.2,30.02,SE,136,3.0,6.0,49,0.00,,SKC,0.00,VWS V14.01,2013-07-13 20:21:00,
2013-07-13 14:22:00,75.6,55.1,30.02,ESE,119,3.0,8.0,49,0.00,,SKC,0.00,VWS V14.01,2013-07-13 20:22:00,
2013-07-13 14:23:00,75.5,55.0,30.02,SE,134,5.0,7.0,49,0.00,,SKC,0.00,VWS V14.01,2013-07-13 20:23:00,
2013-07-13 14:24:00,75.4,54.9,30.02,SE,130,7.0,10.0,49,0.00,,SKC,0.00,VWS V14.01,2013-07-13 20:24:00,
2013-07-13 14:25:00,75.3,54.8,30.03,SE,145,4.0,7.0,49,0.00,,SKC,0.00,VWS V14.01,2013-07-13 20:25:00,
2013-07-13 14:26:00,75.2,54.8,30.03,SE,130,4.0,9.0,49,0.00,,SKC,0.00,VWS V14.01,2013-07-13 20:26:00,
2013-07-13 14:27:00,75.1,54.7,30.03,ESE,105,5.0,7.0,49,0.00,,SKC,0.00,VWS V14.01,2013-07-13 20:27:00,
2013-07-13 14:28:00,75.1,55.2,30.03,SE,132,3.0,9.0,50,0.00,,SKC,0.00,VWS V14.01,2013-07-13 20:28:00,
2013-07-13 14:29:00,75.0,55.1,30.03,SE,126,5.0,7.0,50,0.00,,SKC,0.00,VWS V14.01,2013-07-13 20:29:00,
2013-07-13 14:30:00,75.0,55.1,30.03,SE,124,4.0,5.0,50,0.00,,SKC,0.00,VWS V14.01,2013-07-13 20:30:00,
2013-07-13 14:31:00,74.9,55.0,30.03,SE,125,4.0,7.0,50,0.00,,SKC,0.00,VWS V14.01,2013-07-13 20:31:00,
2013-07-13 14:32:00,74.9,55.6,30.03,ESE,123,3.0,6.0,51,0.00,,SKC,0.00,VWS V14.01,2013-07-13 20:32:00,
2013-07-13 14:33:00,74.8,54.9,30.03,ESE,109,9.0,11.0,50,0.00,,SKC,0.00,VWS V14.01,2013-07-13 20:33:00,
2013-07-13 14:34:00,74.7,54.8,30.04,SE,135,5.0,9.0,50,0.00,,SKC,0.00,VWS V14.01,2013-07-13 20:34:00,
2013-07-13 14:35:00,74.6,55.3,30.03,SE,134,5.0,10.0,51,0.00,,SKC,0.00,VWS V14.01,2013-07-13 20:35:00,
2013-07-13 14:36:00,74.6,55.3,30.04,ESE,120,4.0,10.0,51,0.00,,SKC,0.00,VWS V14.01,2013-07-13 20:36:00,
2013-07-13 14:37:00,74.5,55.2,30.03,ESE,119,4.0,5.0,51,0.00,,SKC,0.00,VWS V14.01,2013-07-13 20:37:00,
2013-07-13 14:38:00,74.4,55.1,30.03,ESE,103,5.0,9.0,51,0.00,,SKC,0.00,VWS V14.01,2013-07-13 20:38:00,
2013-07-13 14:39:00,74.3,55.0,30.03,ESE,103,6.0,6.0,51,0.00,,SKC,0.00,VWS V14.01,2013-07-13 20:39:00,
2013-07-13 14:40:00,74.2,55.5,30.04,SE,132,6.0,9.0,52,0.00,,SKC,0.00,VWS V14.01,2013-07-13 20:40:00,
2013-07-13 14:41:00,74.2,56.0,30.04,SE,131,7.0,9.0,53,0.00,,SKC,0.00,VWS V14.01,2013-07-13 20:41:00,
2013-07-13 14:42:00,74.1,55.9,30.04,ESE,110,5.0,7.0,53,0.00,,SKC,0.00,VWS V14.01,2013-07-13 20:42:00,
2013-07-13 14:43:00,74.1,55.9,30.04,ESE,107,7.0,7.0,53,0.00,,SKC,0.00,VWS V14.01,2013-07-13 20:43:00,
2013-07-13 14:44:00,74.0,55.8,30.04,ESE,105,3.0,7.0,53,0.00,,SKC,0.00,VWS V14.01,2013-07-13 20:44:00,
2013-07-13 14:45:00,73.9,56.2,30.04,ESE,107,5.0,5.0,54,0.00,,SKC,0.00,VWS V14.01,2013-07-13 20:45:00,
2013-07-13 14:46:00,73.9,56.2,30.04,ESE,109,2.0,7.0,54,0.00,,SKC,0.00,VWS V14.01,2013-07-13 20:46:00,
2013-07-13 14:47:00,73.9,56.2,30.04,ESE,111,6.0,6.0,54,0.00,,SKC,0.00,VWS V14.01,2013-07-13 20:47:00,
2013-07-13 14:48:00,73.8,56.1,30.04,ESE,117,2.0,6.0,54,0.00,,SKC,0.00,VWS V14.01,2013-07-13 20:48:00,
2013-07-13 14:49:00,73.8,56.1,30.04,SE,131,4.0,6.0,54,0.00,,SKC,0.00,VWS V14.01,2013-07-13 20:49:00,
2013-07-13 14:50:00,73.7,55.5,30.04,SSE,151,6.0,9.0,53,0.00,,SKC,0.00,VWS V14.01,2013-07-13 20:50:00,
2013-07-13 14:51:00,73.6,55.4,30.04,South,171,12.0,12.0,53,0.00,,SKC,0.00,VWS V14.01,2013-07-13 20:51:00,
2013-07-13 14:52:00,73.5,55.9,30.04,South,187,11.0,13.0,54,0.00,,SKC,0.00,VWS V14.01,2013-07-13 20:52:00,
2013-07-13 14:53:00,73.3,55.2,30.04,SSW,196,13.0,13.0,53,0.00,,SKC,0.00,VWS V14.01,2013-07-13 20:53:00,
2013-07-13 14:54:00,73.2,55.1,30.04,North,360,12.0,14.0,53,0.00,,SKC,0.00,VWS V14.01,2013-07-13 20:54:00,
2013-07-13 14:55:00,73.0,54.3,30.04,SSW,194,14.0,14.0,52,0.00,,SKC,0.00,VWS V14.01,2013-07-13 20:55:00,
2013-07-13 14:56:00,72.7,54.6,30.04,SSW,192,11.0,14.0,53,0.00,,SKC,0.00,VWS V14.01,2013-07-13 20:56:00,
2013-07-13 14:57:00,72.5,54.4,30.04,North,360,9.0,12.0,53,0.00,,SKC,0.00,VWS V14.01,2013-07-13 20:57:00,
2013-07-13 14:58:00,72.2,54.1,30.05,SSW,213,7.0,11.0,53,0.00,,SKC,0.00,VWS V14.01,2013-07-13 20:58:00,
2013-07-13 14:59:00,72.1,54.6,30.05,South,186,11.0,12.0,54,0.00,,SKC,0.00,VWS V14.01,2013-07-13 20:59:00,
2013-07-13 15:00:00,71.9,54.4,30.05,SSE,168,10.0,11.0,54,0.00,,SKC,0.00,VWS V14.01,2013-07-13 21:00:00,
2013-07-13 15:01:00,71.8,54.8,30.05,South,181,8.0,10.0,55,0.00,,SKC,0.00,VWS V14.01,2013-07-13 21:01:00,
2013-07-13 15:02:00,71.6,54.6,30.05,SSW,211,5.0,8.0,55,0.00,,SKC,0.00,VWS V14.01,2013-07-13 21:02:00,
2013-07-13 15:03:00,71.5,54.5,30.05,SW,214,6.0,10.0,55,0.00,,SKC,0.00,VWS V14.01,2013-07-13 21:03:00,
2013-07-13 15:04:00,71.3,54.3,30.05,SSW,207,9.0,14.0,55,0.00,,SKC,0.00,VWS V14.01,2013-07-13 21:04:00,
2013-07-13 15:05:00,71.3,54.8,30.05,North,360,11.0,11.0,56,0.00,,SKC,0.00,VWS V14.01,2013-07-13 21:05:00,
2013-07-13 15:06:00,71.1,54.1,30.05,WSW,242,11.0,15.0,55,0.00,,SKC,0.00,VWS V14.01,2013-07-13 21:06:00,
2013-07-13 15:07:00,71.0,54.5,30.05,SW,217,3.0,12.0,56,0.00,,SKC,0.00,VWS V14.01,2013-07-13 21:07:00,
2013-07-13 15:08:00,71.0,55.0,30.05,South,182,5.0,7.0,57,0.00,,SKC,0.00,VWS V14.01,2013-07-13 21:08:00,
2013-07-13 15:09:00,70.9,54.9,30.05,South,171,4.0,7.0,57,0.00,,SKC,0.00,VWS V14.01,2013-07-13 21:09:00,
2013-07-13 15:10:00,70.9,54.4,30.05,South,171,10.0,10.0,56,0.00,,SKC,0.00,VWS V14.01,2013-07-13 21:10:00,
2013-07-13 15:11:00,70.8,54.3,30.05,South,170,6.0,11.0,56,0.00,,SKC,0.00,VWS V14.01,2013-07-13 21:11:00,
2013-07-13 15:12:00,70.8,54.3,30.05,South,188,4.0,6.0,56,0.00,,SKC,0.00,VWS V14.01,2013-07-13 21:12:00,
2013-07-13 15:13:00,70.7,54.7,30.05,South,188,0.0,4.0,57,0.00,,SKC,0.00,VWS V14.01,2013-07-13 21:13:00,
2013-07-13 15:14:00,70.7,54.7,30.05,South,186,3.0,3.0,57,0.00,,SKC,0.00,VWS V14.01,2013-07-13 21:14:00,
2013-07-13 15:15:00,70.7,55.2,30.05,South,187,2.0,4.0,58,0.00,,SKC,0.00,VWS V14.01,2013-07-13 21:15:00,
2013-07-13 15:16:00,70.7,55.7,30.05,South,187,3.0,3.0,59,0.00,,SKC,0.00,VWS V14.01,2013-07-13 21:16:00,
2013-07-13 15:17:00,70.7,55.2,30.05,SSE,156,3.0,5.0,58,0.00,,SKC,0.00,VWS V14.01,2013-07-13 21:17:00,
2013-07-13 15:18:00,70.7,55.2,30.05,SSE,150,3.0,5.0,58,0.00,,SKC,0.00,VWS V14.01,2013-07-13 21:18:00,
2013-07-13 15:19:00,70.7,55.2,30.05,SSE,153,1.0,3.0,58,0.00,,SKC,0.00,VWS V14.01,2013-07-13 21:19:00,
2013-07-13 15:20:00,70.7,55.7,30.05,SSE,151,1.0,1.0,59,0.00,,SKC,0.00,VWS V14.01,2013-07-13 21:20:00,
2013-07-13 15:21:00,70.7,55.2,30.05,SSE,151,1.0,2.0,58,0.00,,SKC,0.00,VWS V14.01,2013-07-13 21:21:00,
2013-07-13 15:22:00,70.7,55.7,30.05,SSE,153,2.0,2.0,59,0.00,,SKC,0.00,VWS V14.01,2013-07-13 21:22:00,
2013-07-13 15:23:00,70.8,56.2,30.05,SSE,151,0.0,2.0,60,0.00,,SKC,0.00,VWS V14.01,2013-07-13 21:23:00,
2013-07-13 15:24:00,70.8,55.8,30.05,SSE,156,0.0,1.0,59,0.00,,SKC,0.00,VWS V14.01,2013-07-13 21:24:00,
2013-07-13 15:25:00,70.8,56.2,30.05,SSE,155,0.0,0.0,60,0.00,,SKC,0.00,VWS V14.01,2013-07-13 21:25:00,
2013-07-13 15:26:00,70.9,56.3,30.05,North,360,2.0,2.0,60,0.00,,SKC,0.00,VWS V14.01,2013-07-13 21:26:00,
2013-07-13 15:27:00,70.9,56.3,30.05,ENE,59,1.0,4.0,60,0.00,,SKC,0.00,VWS V14.01,2013-07-13 21:27:00,
2013-07-13 15:28:00,70.9,55.9,30.05,ENE,60,0.0,3.0,59,0.00,,SKC,0.00,VWS V14.01,2013-07-13 21:28:00,
2013-07-13 15:29:00,71.0,56.0,30.05,ENE,57,0.0,1.0,59,0.00,,SKC,0.00,VWS V14.01,2013-07-13 21:29:00,
2013-07-13 15:30:00,71.0,56.0,30.05,ENE,61,0.0,1.0,59,0.00,,SKC,0.00,VWS V14.01,2013-07-13 21:30:00,
2013-07-13 15:31:00,71.0,56.0,30.05,ENE,59,0.0,1.0,59,0.00,,SKC,0.00,VWS V14.01,2013-07-13 21:31:00,
2013-07-13 15:32:00,71.0,56.0,30.05,NE,56,0.0,1.0,59,0.00,,SKC,0.00,VWS V14.01,2013-07-13 21:32:00,
2013-07-13 15:33:00,71.1,56.5,30.05,ENE,59,0.0,0.0,60,0.00,,SKC,0.00,VWS V14.01,2013-07-13 21:33:00,
2013-07-13 15:34:00,71.1,56.5,30.05,ENE,59,0.0,1.0,60,0.00,,SKC,0.00,VWS V14.01,2013-07-13 21:34:00,
2013-07-13 15:35:00,71.1,56.1,30.04,ENE,64,0.0,1.0,59,0.00,,SKC,0.00,VWS V14.01,2013-07-13 21:35:00,
2013-07-13 15:36:00,71.2,56.6,30.05,ENE,59,0.0,0.0,60,0.00,,SKC,0.00,VWS V14.01,2013-07-13 21:36:00,
2013-07-13 15:37:00,71.2,56.6,30.04,ENE,59,0.0,0.0,60,0.00,,SKC,0.00,VWS V14.01,2013-07-13 21:37:00,
2013-07-13 15:38:00,71.2,56.2,30.05,ENE,63,0.0,0.0,59,0.00,,SKC,0.00,VWS V14.01,2013-07-13 21:38:00,
2013-07-13 15:39:00,71.3,56.7,30.04,ENE,57,0.0,0.0,60,0.00,,SKC,0.00,VWS V14.01,2013-07-13 21:39:00,
2013-07-13 15:40:00,71.3,56.2,30.05,ENE,59,0.0,0.0,59,0.00,,SKC,0.00,VWS V14.01,2013-07-13 21:40:00,
2013-07-13 15:41:00,71.3,56.2,30.05,ENE,59,0.0,1.0,59,0.00,,SKC,0.00,VWS V14.01,2013-07-13 21:41:00,
2013-07-13 15:42:00,71.3,56.2,30.05,ENE,60,0.0,1.0,59,0.00,,SKC,0.00,VWS V14.01,2013-07-13 21:42:00,
2013-07-13 15:43:00,71.3,56.2,30.05,ENE,60,0.0,0.0,59,0.00,,SKC,0.00,VWS V14.01,2013-07-13 21:43:00,
2013-07-13 15:44:00,71.3,56.2,30.05,North,360,0.0,1.0,59,0.00,,SKC,0.00,VWS V14.01,2013-07-13 21:44:00,
2013-07-13 15:45:00,71.3,56.7,30.05,ENE,61,0.0,0.0,60,0.00,,SKC,0.00,VWS V14.01,2013-07-13 21:45:00,
2013-07-13 15:46:00,71.3,56.7,30.05,ENE,61,0.0,1.0,60,0.00,,SKC,0.00,VWS V14.01,2013-07-13 21:46:00,
2013-07-13 15:47:00,71.3,56.7,30.04,ENE,61,0.0,1.0,60,0.00,,SKC,0.00,VWS V14.01,2013-07-13 21:47:00,
2013-07-13 15:48:00,71.3,56.2,30.05,NE,54,0.0,0.0,59,0.00,,SKC,0.00,VWS V14.01,2013-07-13 21:48:00,
2013-07-13 15:49:00,71.3,56.7,30.05,NE,55,0.0,0.0,60,0.00,,SKC,0.00,VWS V14.01,2013-07-13 21:49:00,
2013-07-13 15:50:00,71.3,56.7,30.05,ENE,60,0.0,0.0,60,0.00,,SKC,0.00,VWS V14.01,2013-07-13 21:50:00,
2013-07-13 15:51:00,71.3,56.7,30.05,ENE,61,0.0,0.0,60,0.00,,SKC,0.00,VWS V14.01,2013-07-13 21:51:00,
2013-07-13 15:52:00,71.3,56.7,30.04,ENE,65,0.0,0.0,60,0.00,,SKC,0.00,VWS V14.01,2013-07-13 21:52:00,
2013-07-13 15:53:00,71.3,56.7,30.04,NE,54,0.0,0.0,60,0.00,,SKC,0.00,VWS V14.01,2013-07-13 21:53:00,
2013-07-13 15:54:00,71.3,56.2,30.05,NE,54,0.0,1.0,59,0.00,,SKC,0.00,VWS V14.01,2013-07-13 21:54:00,
2013-07-13 15:55:00,71.3,56.7,30.04,ENE,58,0.0,0.0,60,0.00,,SKC,0.00,VWS V14.01,2013-07-13 21:55:00,
2013-07-13 15:56:00,71.3,55.8,30.04,NE,53,0.0,0.0,58,0.00,,SKC,0.00,VWS V14.01,2013-07-13 21:56:00,
2013-07-13 15:57:00,71.3,55.8,30.04,ENE,59,0.0,0.0,58,0.00,,SKC,0.00,VWS V14.01,2013-07-13 21:57:00,
2013-07-13 15:58:00,71.3,55.8,30.04,NE,55,0.0,1.0,58,0.00,,SKC,0.00,VWS V14.01,2013-07-13 21:58:00,
2013-07-13 15:59:00,71.2,55.7,30.04,ENE,61,0.0,1.0,58,0.00,,SKC,0.00,VWS V14.01,2013-07-13 21:59:00,
2013-07-13 16:00:00,71.1,55.6,30.04,ENE,57,0.0,0.0,58,0.00,,SKC,0.00,VWS V14.01,2013-07-13 22:00:00,
2013-07-13 16:01:00,71.0,55.5,30.04,ENE,61,1.0,1.0,58,0.00,,SKC,0.00,VWS V14.01,2013-07-13 22:01:00,
2013-07-13 16:02:00,71.0,56.0,30.04,ENE,59,2.0,2.0,59,0.00,,SKC,0.00,VWS V14.01,2013-07-13 22:02:00,
2013-07-13 16:03:00,70.9,55.9,30.05,ENE,59,1.0,3.0,59,0.00,,SKC,0.00,VWS V14.01,2013-07-13 22:03:00,
2013-07-13 16:04:00,70.9,55.9,30.05,SSW,198,4.0,4.0,59,0.00,,SKC,0.00,VWS V14.01,2013-07-13 22:04:00,
2013-07-13 16:05:00,70.8,54.8,30.05,West,269,7.0,8.0,57,0.00,,SKC,0.00,VWS V14.01,2013-07-13 22:05:00,
2013-07-13 16:06:00,70.6,54.6,30.04,West,263,4.0,7.0,57,0.00,,SKC,0.00,VWS V14.01,2013-07-13 22:06:00,
2013-07-13 16:07:00,70.5,55.0,30.04,West,265,4.0,4.0,58,0.00,,SKC,0.00,VWS V14.01,2013-07-13 22:07:00,
2013-07-13 16:08:00,70.4,54.5,30.04,West,259,6.0,6.0,57,0.00,,SKC,0.00,VWS V14.01,2013-07-13 22:08:00,
2013-07-13 16:09:00,70.3,54.8,30.04,South,182,8.0,10.0,58,0.00,,SKC,0.00,VWS V14.01,2013-07-13 22:09:00,
2013-07-13 16:10:00,70.2,53.8,30.04,SSW,213,5.0,9.0,56,0.00,,SKC,0.00,VWS V14.01,2013-07-13 22:10:00,
2013-07-13 16:11:00,70.0,53.6,30.04,SW,218,5.0,6.0,56,0.00,,SKC,0.00,VWS V14.01,2013-07-13 22:11:00,
2013-07-13 16:12:00,69.9,54.0,30.04,SW,220,6.0,6.0,57,0.00,,SKC,0.00,VWS V14.01,2013-07-13 22:12:00,
2013-07-13 16:13:00,69.7,54.3,30.04,SW,217,6.0,6.0,58,0.00,,SKC,0.00,VWS V14.01,2013-07-13 22:13:00,
2013-07-13 16:14:00,69.5,53.6,30.04,SSW,195,4.0,10.0,57,0.00,,SKC,0.00,VWS V14.01,2013-07-13 22:14:00,
2013-07-13 16:15:00,69.4,53.5,30.04,SSW,200,2.0,6.0,57,0.00,,SKC,0.00,VWS V14.01,2013-07-13 22:15:00,
2013-07-13 16:16:00,69.2,53.8,30.04,SSW,205,3.0,4.0,58,0.00,,SKC,0.00,VWS V14.01,2013-07-13 22:16:00,
2013-07-13 16:17:00,69.1,54.2,30.04,WSW,253,5.0,5.0,59,0.00,,SKC,0.00,VWS V14.01,2013-07-13 22:17:00,
2013-07-13 16:18:00,69.0,54.1,30.04,WSW,252,6.0,6.0,59,0.00,,SKC,0.00,VWS V14.01,2013-07-13 22:18:00,
2013-07-13 16:19:00,68.9,54.5,30.04,WSW,257,5.0,6.0,60,0.00,,SKC,0.00,VWS V14.01,2013-07-13 22:19:00,
2013-07-13 16:20:00,68.8,53.4,30.04,WSW,255,4.0,5.0,58,0.00,,SKC,0.00,VWS V14.01,2013-07-13 22:20:00,
2013-07-13 16:21:00,68.6,53.2,30.04,North,360,6.0,7.0,58,0.00,,SKC,0.00,VWS V14.01,2013-07-13 22:21:00,
2013-07-13 16:22:00,68.6,53.7,30.05,WSW,238,6.0,7.0,59,0.00,,SKC,0.00,VWS V14.01,2013-07-13 22:22:00,
2013-07-13 16:23:00,68.5,53.6,30.05,SW,234,4.0,6.0,59,0.00,,SKC,0.00,VWS V14.01,2013-07-13 22:23:00,
2013-07-13 16:24:00,68.4,53.5,30.05,WSW,252,5.0,6.0,59,0.00,,SKC,0.00,VWS V14.01,2013-07-13 22:24:00,
2013-07-13 16:25:00,68.3,53.9,30.05,West,260,9.0,10.0,60,0.00,,SKC,0.00,VWS V14.01,2013-07-13 22:25:00,
2013-07-13 16:26:00,68.3,53.4,30.05,North,360,6.0,11.0,59,0.00,,SKC,0.00,VWS V14.01,2013-07-13 22:26:00,
2013-07-13 16:27:00,68.2,53.3,30.05,WSW,248,9.0,10.0,59,0.00,,SKC,0.00,VWS V14.01,2013-07-13 22:27:00,
2013-07-13 16:28:00,68.1,53.2,30.05,WSW,244,6.0,10.0,59,0.00,,SKC,0.00,VWS V14.01,2013-07-13 22:28:00,
2013-07-13 16:29:00,68.1,52.8,30.05,North,360,3.0,7.0,58,0.00,,SKC,0.00,VWS V14.01,2013-07-13 22:29:00,
2013-07-13 16:30:00,68.0,52.7,30.05,SW,219,7.0,7.0,58,0.00,,SKC,0.00,VWS V14.01,2013-07-13 22:30:00,
2013-07-13 16:31:00,68.0,52.7,30.05,WSW,255,1.0,7.0,58,0.00,,SKC,0.00,VWS V14.01,2013-07-13 22:31:00,
2013-07-13 16:32:00,68.0,52.7,30.05,WSW,255,2.0,3.0,58,0.00,,SKC,0.00,VWS V14.01,2013-07-13 22:32:00,
2013-07-13 16:33:00,68.0,53.6,30.05,South,179,7.0,7.0,60,0.00,,SKC,0.00,VWS V14.01,2013-07-13 22:33:00,
2013-07-13 16:34:00,68.0,54.1,30.06,South,186,5.0,7.0,61,0.00,,SKC,0.00,VWS V14.01,2013-07-13 22:34:00,
2013-07-13 16:35:00,67.9,53.1,30.06,South,178,12.0,15.0,59,0.00,,SKC,0.00,VWS V14.01,2013-07-13 22:35:00,
2013-07-13 16:36:00,67.7,53.3,30.05,North,360,13.0,15.0,60,0.00,,SKC,0.00,VWS V14.01,2013-07-13 22:36:00,
2013-07-13 16:37:00,67.5,53.1,30.05,North,360,12.0,17.0,60,0.00,,SKC,0.00,VWS V14.01,2013-07-13 22:37:00,
2013-07-13 16:38:00,67.3,53.0,30.05,North,360,11.0,14.0,60,0.00,,SKC,0.00,VWS V14.01,2013-07-13 22:38:00,
2013-07-13 16:39:00,67.1,53.2,30.06,SSW,202,14.0,16.0,61,0.00,,SKC,0.00,VWS V14.01,2013-07-13 22:39:00,
2013-07-13 16:40:00,66.9,53.0,30.05,North,360,19.0,19.0,61,0.00,,SKC,0.00,VWS V14.01,2013-07-13 22:40:00,
2013-07-13 16:41:00,66.7,52.8,30.05,SSW,206,16.0,21.0,61,0.00,,SKC,0.00,VWS V14.01,2013-07-13 22:41:00,
2013-07-13 16:42:00,66.6,52.8,30.05,North,360,15.0,17.0,61,0.00,,SKC,0.00,VWS V14.01,2013-07-13 22:42:00,
2013-07-13 16:43:00,66.4,53.0,30.06,North,360,14.0,16.0,62,0.00,,SKC,0.00,VWS V14.01,2013-07-13 22:43:00,
2013-07-13 16:44:00,66.3,52.9,30.06,SSW,198,10.0,17.0,62,0.00,,SKC,0.00,VWS V14.01,2013-07-13 22:44:00,
2013-07-13 16:45:00,66.1,52.7,30.06,SSW,204,11.0,15.0,62,0.00,,SKC,0.00,VWS V14.01,2013-07-13 22:45:00,
2013-07-13 16:46:00,65.9,53.0,30.06,SW,224,11.0,16.0,63,0.00,,SKC,0.00,VWS V14.01,2013-07-13 22:46:00,
2013-07-13 16:47:00,65.7,52.3,30.06,SW,220,16.0,20.0,62,0.00,,SKC,0.00,VWS V14.01,2013-07-13 22:47:00,
2013-07-13 16:48:00,65.6,52.2,30.06,SW,227,10.0,18.0,62,0.00,,SKC,0.00,VWS V14.01,2013-07-13 22:48:00,
2013-07-13 16:49:00,65.5,52.2,30.06,WSW,253,11.0,11.0,62,0.00,,SKC,0.00,VWS V14.01,2013-07-13 22:49:00,
2013-07-13 16:50:00,65.4,52.5,30.06,WSW,237,12.0,17.0,63,0.00,,SKC,0.00,VWS V14.01,2013-07-13 22:50:00,
2013-07-13 16:51:00,65.3,52.4,30.06,North,360,16.0,18.0,63,0.00,,SKC,0.00,VWS V14.01,2013-07-13 22:51:00,
2013-07-13 16:52:00,65.3,52.8,30.06,SW,221,19.0,19.0,64,0.00,,SKC,0.00,VWS V14.01,2013-07-13 22:52:00,
2013-07-13 16:53:00,65.2,52.7,30.06,North,360,11.0,19.0,64,0.00,,SKC,0.00,VWS V14.01,2013-07-13 22:53:00,
2013-07-13 16:54:00,65.1,52.6,30.06,WSW,241,19.0,22.0,64,0.00,,SKC,0.00,VWS V14.01,2013-07-13 22:54:00,
2013-07-13 16:55:00,65.0,53.0,30.06,SW,235,9.0,19.0,65,0.00,,SKC,0.00,VWS V14.01,2013-07-13 22:55:00,
2013-07-13 16:56:00,65.0,53.0,30.06,SSW,204,16.0,21.0,65,0.00,,SKC,0.00,VWS V14.01,2013-07-13 22:56:00,
2013-07-13 16:57:00,64.8,53.2,30.06,North,360,15.0,16.0,66,0.00,,SKC,0.00,VWS V14.01,2013-07-13 22:57:00,
2013-07-13 16:58:00,64.7,53.5,30.06,WSW,251,17.0,18.0,67,0.00,,SKC,0.00,VWS V14.01,2013-07-13 22:58:00,
2013-07-13 16:59:00,64.5,53.7,30.06,WSW,252,13.0,23.0,68,0.00,,SKC,0.00,VWS V14.01,2013-07-13 22:59:00,
2013-07-13 17:00:00,64.3,53.9,30.06,SW,234,16.0,18.0,69,0.00,,SKC,0.00,VWS V14.01,2013-07-13 23:00:00,
2013-07-13 17:01:00,64.1,53.7,30.06,North,360,21.0,21.0,69,0.00,,SKC,0.00,VWS V14.01,2013-07-13 23:01:00,
2013-07-13 17:02:00,64.0,53.6,30.06,North,360,22.0,22.0,69,0.00,,SKC,0.00,VWS V14.01,2013-07-13 23:02:00,
2013-07-13 17:03:00,63.8,53.8,30.06,North,360,22.0,22.0,70,0.00,,SKC,0.00,VWS V14.01,2013-07-13 23:03:00,
2013-07-13 17:04:00,63.6,54.0,30.06,WSW,257,21.0,24.0,71,0.00,,SKC,0.00,VWS V14.01,2013-07-13 23:04:00,
2013-07-13 17:05:00,63.5,53.9,30.06,North,360,15.0,22.0,71,0.00,,SKC,0.00,VWS V14.01,2013-07-13 23:05:00,
2013-07-13 17:06:00,63.3,54.1,30.06,SW,236,19.0,22.0,72,0.00,,SKC,0.00,VWS V14.01,2013-07-13 23:06:00,
2013-07-13 17:07:00,63.2,54.0,30.06,West,265,14.0,24.0,72,0.00,,SKC,0.00,VWS V14.01,2013-07-13 23:07:00,
2013-07-13 17:08:00,63.1,53.9,30.06,North,360,15.0,18.0,72,0.00,,SKC,0.00,VWS V14.01,2013-07-13 23:08:00,
2013-07-13 17:09:00,63.0,53.8,30.06,WSW,254,15.0,20.0,72,0.00,,SKC,0.00,VWS V14.01,2013-07-13 23:09:00,
2013-07-13 17:10:00,62.9,54.1,30.06,West,262,21.0,22.0,73,0.01,,SKC,0.01,VWS V14.01,2013-07-13 23:10:00,
2013-07-13 17:11:00,62.9,53.8,30.05,North,360,18.0,21.0,72,0.01,,SKC,0.01,VWS V14.01,2013-07-13 23:11:00,
2013-07-13 17:12:00,62.7,53.5,30.06,WSW,257,15.0,22.0,72,0.01,,SKC,0.01,VWS V14.01,2013-07-13 23:12:00,
2013-07-13 17:13:00,62.6,53.5,30.05,WSW,254,12.0,17.0,72,0.01,,SKC,0.01,VWS V14.01,2013-07-13 23:13:00,
2013-07-13 17:14:00,62.5,53.7,30.06,North,360,14.0,16.0,73,0.01,,SKC,0.01,VWS V14.01,2013-07-13 23:14:00,
2013-07-13 17:15:00,62.4,53.6,30.06,North,360,18.0,19.0,73,0.01,,SKC,0.01,VWS V14.01,2013-07-13 23:15:00,
2013-07-13 17:16:00,62.2,53.1,30.05,North,360,16.0,19.0,72,0.01,,SKC,0.01,VWS V14.01,2013-07-13 23:16:00,
2013-07-13 17:17:00,62.1,53.3,30.06,West,263,12.0,16.0,73,0.01,,SKC,0.01,VWS V14.01,2013-07-13 23:17:00,
2013-07-13 17:18:00,62.0,53.3,30.06,North,360,10.0,14.0,73,0.01,,SKC,0.01,VWS V14.01,2013-07-13 23:18:00,
2013-07-13 17:19:00,61.9,53.9,30.05,SW,230,5.0,10.0,75,0.02,,SKC,0.02,VWS V14.01,2013-07-13 23:19:00,
2013-07-13 17:20:00,61.8,53.4,30.05,North,360,5.0,8.0,74,0.02,,SKC,0.02,VWS V14.01,2013-07-13 23:20:00,
2013-07-13 17:21:00,61.7,53.7,30.05,North,360,5.0,7.0,75,0.02,,SKC,0.02,VWS V14.01,2013-07-13 23:21:00,
2013-07-13 17:22:00,61.6,54.0,30.05,West,267,3.0,6.0,76,0.02,,SKC,0.02,VWS V14.01,2013-07-13 23:22:00,
2013-07-13 17:23:00,61.5,53.5,30.05,WNW,301,2.0,3.0,75,0.02,,SKC,0.02,VWS V14.01,2013-07-13 23:23:00,
2013-07-13 17:24:00,61.4,53.4,30.05,NW,326,4.0,5.0,75,0.02,,SKC,0.02,VWS V14.01,2013-07-13 23:24:00,
2013-07-13 17:25:00,61.3,53.3,30.05,NW,317,1.0,4.0,75,0.02,,SKC,0.02,VWS V14.01,2013-07-13 23:25:00,
2013-07-13 17:26:00,61.3,53.3,30.05,North,360,0.0,1.0,75,0.02,,SKC,0.02,VWS V14.01,2013-07-13 23:26:00,
2013-07-13 17:27:00,61.3,54.4,30.05,NW,316,0.0,1.0,78,0.02,,SKC,0.02,VWS V14.01,2013-07-13 23:27:00,
2013-07-13 17:28:00,61.2,54.3,30.05,NW,319,0.0,0.0,78,0.02,,SKC,0.02,VWS V14.01,2013-07-13 23:28:00,
2013-07-13 17:29:00,61.2,54.6,30.05,NW,311,0.0,1.0,79,0.02,,SKC,0.02,VWS V14.01,2013-07-13 23:29:00,
2013-07-13 17:30:00,61.2,54.6,30.05,NW,317,1.0,1.0,79,0.02,,SKC,0.02,VWS V14.01,2013-07-13 23:30:00,
2013-07-13 17:31:00,61.2,54.6,30.05,North,360,1.0,1.0,79,0.02,,SKC,0.02,VWS V14.01,2013-07-13 23:31:00,
2013-07-13 17:32:00,61.1,54.2,30.05,NW,304,1.0,7.0,78,0.02,,SKC,0.02,VWS V14.01,2013-07-13 23:32:00,
2013-07-13 17:33:00,61.1,54.2,30.06,NW,309,0.0,4.0,78,0.02,,SKC,0.02,VWS V14.01,2013-07-13 23:33:00,
2013-07-13 17:34:00,61.0,54.1,30.05,NW,304,0.0,2.0,78,0.02,,SKC,0.02,VWS V14.01,2013-07-13 23:34:00,
2013-07-13 17:35:00,60.9,54.3,30.05,WNW,298,2.0,2.0,79,0.02,,SKC,0.02,VWS V14.01,2013-07-13 23:35:00,
2013-07-13 17:36:00,60.9,54.3,30.05,North,360,3.0,3.0,79,0.02,,SKC,0.02,VWS V14.01,2013-07-13 23:36:00,
2013-07-13 17:37:00,60.8,54.6,30.05,WNW,301,4.0,4.0,80,0.02,,SKC,0.02,VWS V14.01,2013-07-13 23:37:00,
2013-07-13 17:38:00,60.8,54.9,30.05,North,360,3.0,4.0,81,0.02,,SKC,0.02,VWS V14.01,2013-07-13 23:38:00,
2013-07-13 17:39:00,60.8,54.9,30.05,NW,304,3.0,4.0,81,0.02,,SKC,0.02,VWS V14.01,2013-07-13 23:39:00,
2013-07-13 17:40:00,60.7,54.8,30.04,North,360,0.0,3.0,81,0.02,,SKC,0.02,VWS V14.01,2013-07-13 23:40:00,
2013-07-13 17:41:00,60.6,55.1,30.04,NW,306,3.0,3.0,82,0.02,,SKC,0.02,VWS V14.01,2013-07-13 23:41:00,
2013-07-13 17:42:00,60.6,55.1,30.04,North,360,3.0,5.0,82,0.02,,SKC,0.02,VWS V14.01,2013-07-13 23:42:00,
2013-07-13 17:43:00,60.5,55.0,30.04,WNW,303,0.0,4.0,82,0.02,,SKC,0.02,VWS V14.01,2013-07-13 23:43:00,
2013-07-13 17:44:00,60.5,55.3,30.04,WNW,302,0.0,1.0,83,0.02,,SKC,0.02,VWS V14.01,2013-07-13 23:44:00,
2013-07-13 17:45:00,60.4,55.2,30.03,WNW,301,0.0,1.0,83,0.02,,SKC,0.02,VWS V14.01,2013-07-13 23:45:00,
2013-07-13 17:46:00,60.4,55.2,30.03,North,360,1.0,2.0,83,0.02,,SKC,0.02,VWS V14.01,2013-07-13 23:46:00,
2013-07-13 17:47:00,60.4,55.5,30.03,NNE,21,1.0,2.0,84,0.02,,SKC,0.02,VWS V14.01,2013-07-13 23:47:00,
2013-07-13 17:48:00,60.4,55.5,30.03,NNE,20,2.0,3.0,84,0.02,,SKC,0.02,VWS V14.01,2013-07-13 23:48:00,
2013-07-13 17:49:00,60.4,55.5,30.03,NNE,24,2.0,3.0,84,0.02,,SKC,0.02,VWS V14.01,2013-07-13 23:49:00,
2013-07-13 17:50:00,60.4,55.5,30.03,NE,36,2.0,3.0,84,0.02,,SKC,0.02,VWS V14.01,2013-07-13 23:50:00,
2013-07-13 17:51:00,60.4,55.9,30.03,NE,44,1.0,2.0,85,0.02,,SKC,0.02,VWS V14.01,2013-07-13 23:51:00,
2013-07-13 17:52:00,60.4,55.9,30.03,NE,44,0.0,1.0,85,0.02,,SKC,0.02,VWS V14.01,2013-07-13 23:52:00,
2013-07-13 17:53:00,60.4,55.9,30.03,NE,47,2.0,4.0,85,0.02,,SKC,0.02,VWS V14.01,2013-07-13 23:53:00,
2013-07-13 17:54:00,60.3,55.8,30.03,NE,41,0.0,2.0,85,0.02,,SKC,0.02,VWS V14.01,2013-07-13 23:54:00,
2013-07-13 17:55:00,60.3,55.8,30.03,NE,40,0.0,0.0,85,0.02,,SKC,0.02,VWS V14.01,2013-07-13 23:55:00,
2013-07-13 17:56:00,60.3,55.5,30.03,NE,46,0.0,1.0,84,0.02,,SKC,0.02,VWS V14.01,2013-07-13 23:56:00,
2013-07-13 17:57:00,60.2,55.0,30.03,NE,44,1.0,2.0,83,0.02,,SKC,0.02,VWS V14.01,2013-07-13 23:57:00,
2013-07-13 17:58:00,60.2,55.0,30.03,NE,40,1.0,1.0,83,0.02,,SKC,0.02,VWS V14.01,2013-07-13 23:58:00,
2013-07-13 17:59:00,60.2,55.0,30.04,NE,46,2.0,2.0,83,0.02,,SKC,0.02,VWS V14.01,2013-07-13 23:59:00,
2013-07-13 18:00:00,60.2,54.7,30.04,NNW,345,4.0,4.0,82,0.02,,SKC,0.02,VWS V14.01,2013-07-14 00:00:00,
2013-07-13 18:01:00,60.3,55.1,30.04,North,360,4.0,5.0,83,0.02,,SKC,0.02,VWS V14.01,2013-07-14 00:01:00,
2013-07-13 18:02:00,60.3,55.5,30.04,NW,317,5.0,5.0,84,0.02,,SKC,0.02,VWS V14.01,2013-07-14 00:02:00,
2013-07-13 18:03:00,60.3,55.1,30.04,NW,311,4.0,5.0,83,0.02,,SKC,0.02,VWS V14.01,2013-07-14 00:03:00,
2013-07-13 18:04:00,60.3,55.1,30.05,NW,313,3.0,5.0,83,0.02,,SKC,0.02,VWS V14.01,2013-07-14 00:04:00,
2013-07-13 18:05:00,60.3,55.1,30.05,NW,310,3.0,5.0,83,0.02,,SKC,0.02,VWS V14.01,2013-07-14 00:05:00,
2013-07-13 18:06:00,60.3,55.5,30.04,NW,321,3.0,4.0,84,0.02,,SKC,0.02,VWS V14.01,2013-07-14 00:06:00,
2013-07-13 18:07:00,60.3,55.5,30.04,North,360,4.0,5.0,84,0.02,,SKC,0.02,VWS V14.01,2013-07-14 00:07:00,
2013-07-13 18:08:00,60.3,55.5,30.04,NNW,338,4.0,5.0,84,0.02,,SKC,0.02,VWS V14.01,2013-07-14 00:08:00,
2013-07-13 18:09:00,60.3,55.5,30.05,NNW,336,3.0,4.0,84,0.02,,SKC,0.02,VWS V14.01,2013-07-14 00:09:00,
2013-07-13 18:10:00,60.3,55.5,30.05,North,360,3.0,5.0,84,0.02,,SKC,0.02,VWS V14.01,2013-07-14 00:10:00,
2013-07-13 18:11:00,60.3,55.1,30.05,North,360,0.0,3.0,83,0.01,,SKC,0.02,VWS V14.01,2013-07-14 00:11:00,
2013-07-13 18:12:00,60.3,54.8,30.05,NW,305,4.0,6.0,82,0.01,,SKC,0.02,VWS V14.01,2013-07-14 00:12:00,
2013-07-13 18:13:00,60.4,54.9,30.05,NW,304,3.0,5.0,82,0.01,,SKC,0.02,VWS V14.01,2013-07-14 00:13:00,
2013-07-13 18:14:00,60.4,54.9,30.05,NW,304,4.0,5.0,82,0.01,,SKC,0.02,VWS V14.01,2013-07-14 00:14:00,
2013-07-13 18:15:00,60.4,54.2,30.05,NW,306,0.0,4.0,80,0.01,,SKC,0.02,VWS V14.01,2013-07-14 00:15:00,
2013-07-13 18:16:00,60.4,53.9,30.05,NW,318,0.0,1.0,79,0.01,,SKC,0.02,VWS V14.01,2013-07-14 00:16:00,
2013-07-13 18:17:00,60.5,54.0,30.05,NW,309,0.0,0.0,79,0.01,,SKC,0.02,VWS V14.01,2013-07-14 00:17:00,
2013-07-13 18:18:00,60.5,54.0,30.05,NW,311,0.0,0.0,79,0.01,,SKC,0.02,VWS V14.01,2013-07-14 00:18:00,
2013-07-13 18:19:00,60.6,54.1,30.05,NW,311,1.0,1.0,79,0.01,,SKC,0.02,VWS V14.01,2013-07-14 00:19:00,
2013-07-13 18:20:00,60.7,54.8,30.05,NW,311,0.0,1.0,81,0.00,,SKC,0.02,VWS V14.01,2013-07-14 00:20:00,
2013-07-13 18:21:00,60.8,55.6,30.05,NW,310,0.0,0.0,83,0.00,,SKC,0.02,VWS V14.01,2013-07-14 00:21:00,
2013-07-13 18:22:00,60.9,55.7,30.05,NW,309,1.0,1.0,83,0.00,,SKC,0.02,VWS V14.01,2013-07-14 00:22:00,
2013-07-13 18:23:00,60.9,56.0,30.04,NW,312,4.0,4.0,84,0.00,,SKC,0.02,VWS V14.01,2013-07-14 00:23:00,
2013-07-13 18:24:00,61.0,56.1,30.04,North,360,2.0,4.0,84,0.00,,SKC,0.02,VWS V14.01,2013-07-14 00:24:00,
2013-07-13 18:25:00,61.0,56.5,30.05,North,360,2.0,3.0,85,0.00,,SKC,0.02,VWS V14.01,2013-07-14 00:25:00,
2013-07-13 18:26:00,61.1,56.6,30.05,North,5,0.0,2.0,85,0.00,,SKC,0.02,VWS V14.01,2013-07-14 00:26:00,
2013-07-13 18:27:00,61.1,56.2,30.04,NNE,17,2.0,2.0,84,0.00,,SKC,0.02,VWS V14.01,2013-07-14 00:27:00,
2013-07-13 18:28:00,61.0,56.1,30.05,NNE,17,0.0,3.0,84,0.00,,SKC,0.02,VWS V14.01,2013-07-14 00:28:00,
2013-07-13 18:29:00,61.0,56.1,30.05,NNE,16,2.0,2.0,84,0.00,,SKC,0.02,VWS V14.01,2013-07-14 00:29:00,
2013-07-13 18:30:00,61.0,56.5,30.05,ENE,61,4.0,5.0,85,0.00,,SKC,0.02,VWS V14.01,2013-07-14 00:30:00,
2013-07-13 18:31:00,61.0,56.5,30.05,ENE,74,3.0,6.0,85,0.00,,SKC,0.02,VWS V14.01,2013-07-14 00:31:00,
2013-07-13 18:32:00,60.9,56.4,30.05,ENE,72,2.0,4.0,85,0.00,,SKC,0.02,VWS V14.01,2013-07-14 00:32:00,
2013-07-13 18:33:00,60.9,56.4,30.05,ENE,69,0.0,2.0,85,0.00,,SKC,0.02,VWS V14.01,2013-07-14 00:33:00,
2013-07-13 18:34:00,60.9,56.4,30.06,ENE,73,1.0,2.0,85,0.00,,SKC,0.02,VWS V14.01,2013-07-14 00:34:00,
2013-07-13 18:35:00,60.8,56.3,30.06,NE,53,4.0,4.0,85,0.00,,SKC,0.02,VWS V14.01,2013-07-14 00:35:00,
2013-07-13 18:36:00,60.8,56.3,30.06,NE,53,3.0,4.0,85,0.00,,SKC,0.02,VWS V14.01,2013-07-14 00:36:00,
2013-07-13 18:37:00,60.8,56.3,30.06,ENE,57,1.0,3.0,85,0.00,,SKC,0.02,VWS V14.01,2013-07-14 00:37:00,
2013-07-13 18:38:00,60.7,56.2,30.06,NE,53,0.0,1.0,85,0.00,,SKC,0.02,VWS V14.01,2013-07-14 00:38:00,
2013-07-13 18:39:00,60.7,56.2,30.06,NE,49,0.0,1.0,85,0.00,,SKC,0.02,VWS V14.01,2013-07-14 00:39:00,
2013-07-13 18:40:00,60.6,56.1,30.06,NE,52,0.0,0.0,85,0.00,,SKC,0.02,VWS V14.01,2013-07-14 00:40:00,
2013-07-13 18:41:00,60.6,56.1,30.06,NE,52,0.0,0.0,85,0.00,,SKC,0.02,VWS V14.01,2013-07-14 00:41:00,
2013-07-13 18:42:00,60.5,56.0,30.06,NE,56,0.0,0.0,85,0.00,,SKC,0.02,VWS V14.01,2013-07-14 00:42:00,
2013-07-13 18:43:00,60.5,55.7,30.06,NE,51,0.0,0.0,84,0.00,,SKC,0.02,VWS V14.01,2013-07-14 00:43:00,
2013-07-13 18:44:00,60.4,54.9,30.06,NE,50,0.0,0.0,82,0.00,,SKC,0.02,VWS V14.01,2013-07-14 00:44:00,
2013-07-13 18:45:00,60.4,55.2,30.06,NE,55,0.0,0.0,83,0.00,,SKC,0.02,VWS V14.01,2013-07-14 00:45:00,
2013-07-13 18:46:00,60.4,55.5,30.06,NE,53,0.0,0.0,84,0.00,,SKC,0.02,VWS V14.01,2013-07-14 00:46:00,
2013-07-13 18:47:00,60.4,55.5,30.06,ENE,59,0.0,0.0,84,0.00,,SKC,0.02,VWS V14.01,2013-07-14 00:47:00,
2013-07-13 18:48:00,60.4,55.9,30.06,NE,55,0.0,1.0,85,0.00,,SKC,0.02,VWS V14.01,2013-07-14 00:48:00,
2013-07-13 18:49:00,60.4,55.5,30.06,NNW,342,4.0,4.0,84,0.00,,SKC,0.02,VWS V14.01,2013-07-14 00:49:00,
2013-07-13 18:50:00,60.3,55.5,30.06,NNW,336,3.0,5.0,84,0.00,,SKC,0.02,VWS V14.01,2013-07-14 00:50:00,
2013-07-13 18:51:00,60.3,55.5,30.06,NNW,331,0.0,4.0,84,0.00,,SKC,0.02,VWS V14.01,2013-07-14 00:51:00,
2013-07-13 18:52:00,60.3,55.5,30.06,NNW,336,0.0,2.0,84,0.00,,SKC,0.02,VWS V14.01,2013-07-14 00:52:00,
2013-07-13 18:53:00,60.3,55.5,30.06,North,360,0.0,0.0,84,0.00,,SKC,0.02,VWS V14.01,2013-07-14 00:53:00,
2013-07-13 18:54:00,60.3,55.5,30.06,North,360,0.0,0.0,84,0.00,,SKC,0.02,VWS V14.01,2013-07-14 00:54:00,
2013-07-13 18:55:00,60.3,55.8,30.06,NNE,15,0.0,1.0,85,0.00,,SKC,0.02,VWS V14.01,2013-07-14 00:55:00,
2013-07-13 18:56:00,60.3,55.8,30.06,NE,43,5.0,5.0,85,0.00,,SKC,0.02,VWS V14.01,2013-07-14 00:56:00,
2013-07-13 18:57:00,60.3,55.5,30.06,NE,39,3.0,6.0,84,0.00,,SKC,0.02,VWS V14.01,2013-07-14 00:57:00,
2013-07-13 18:58:00,60.3,55.8,30.06,NE,46,2.0,4.0,85,0.00,,SKC,0.02,VWS V14.01,2013-07-14 00:58:00,
2013-07-13 18:59:00,60.3,55.8,30.06,North,360,5.0,5.0,85,0.00,,SKC,0.02,VWS V14.01,2013-07-14 00:59:00,
2013-07-13 19:00:00,60.3,55.8,30.07,North,360,5.0,6.0,85,0.00,,SKC,0.02,VWS V14.01,2013-07-14 01:00:00,
2013-07-13 19:01:00,60.3,55.8,30.07,North,350,0.0,5.0,85,0.00,,SKC,0.02,VWS V14.01,2013-07-14 01:01:00,
2013-07-13 19:02:00,60.3,55.8,30.07,NNW,346,2.0,4.0,85,0.00,,SKC,0.02,VWS V14.01,2013-07-14 01:02:00,
2013-07-13 19:03:00,60.2,55.3,30.07,North,360,1.0,3.0,84,0.00,,SKC,0.02,VWS V14.01,2013-07-14 01:03:00,
2013-07-13 19:04:00,60.2,55.0,30.07,North,360,5.0,5.0,83,0.00,,SKC,0.02,VWS V14.01,2013-07-14 01:04:00,
2013-07-13 19:05:00,60.2,55.0,30.08,North,360,5.0,5.0,83,0.00,,SKC,0.02,VWS V14.01,2013-07-14 01:05:00,
2013-07-13 19:06:00,60.2,54.4,30.08,NW,311,5.0,5.0,81,0.00,,SKC,0.02,VWS V14.01,2013-07-14 01:06:00,
2013-07-13 19:07:00,60.2,53.3,30.08,WNW,294,6.0,7.0,78,0.00,,SKC,0.02,VWS V14.01,2013-07-14 01:07:00,
2013-07-13 19:08:00,60.4,53.5,30.09,WNW,292,5.0,7.0,78,0.00,,SKC,0.02,VWS V14.01,2013-07-14 01:08:00,
2013-07-13 19:09:00,60.6,53.7,30.09,NW,310,5.0,7.0,78,0.00,,SKC,0.02,VWS V14.01,2013-07-14 01:09:00,
2013-07-13 19:10:00,60.8,53.5,30.09,WNW,300,6.0,7.0,77,0.00,,SKC,0.02,VWS V14.01,2013-07-14 01:10:00,
2013-07-13 19:11:00,60.9,53.7,30.10,WNW,296,7.0,8.0,77,0.00,,SKC,0.02,VWS V14.01,2013-07-14 01:11:00,
2013-07-13 19:12:00,61.2,53.6,30.10,NW,305,9.0,11.0,76,0.00,,SKC,0.02,VWS V14.01,2013-07-14 01:12:00,
2013-07-13 19:13:00,61.3,53.7,30.10,NW,317,15.0,16.0,76,0.00,,SKC,0.02,VWS V14.01,2013-07-14 01:13:00,
2013-07-13 19:14:00,61.5,53.9,30.10,North,360,13.0,15.0,76,0.00,,SKC,0.02,VWS V14.01,2013-07-14 01:14:00,
2013-07-13 19:15:00,61.7,53.7,30.10,NW,306,12.0,13.0,75,0.00,,SKC,0.02,VWS V14.01,2013-07-14 01:15:00,
2013-07-13 19:16:00,61.8,53.8,30.11,WNW,285,11.0,13.0,75,0.00,,SKC,0.02,VWS V14.01,2013-07-14 01:16:00,
2013-07-13 19:17:00,62.0,54.0,30.11,NW,312,8.0,13.0,75,0.00,,SKC,0.02,VWS V14.01,2013-07-14 01:17:00,
2013-07-13 19:18:00,62.2,53.8,30.11,North,360,7.0,10.0,74,0.00,,SKC,0.02,VWS V14.01,2013-07-14 01:18:00,
2013-07-13 19:19:00,62.3,53.9,30.10,North,360,4.0,8.0,74,0.00,,SKC,0.02,VWS V14.01,2013-07-14 01:19:00,
2013-07-13 19:20:00,62.4,54.0,30.10,North,360,5.0,7.0,74,0.00,,SKC,0.02,VWS V14.01,2013-07-14 01:20:00,
2013-07-13 19:21:00,62.5,54.5,30.10,NNE,30,3.0,5.0,75,0.00,,SKC,0.02,VWS V14.01,2013-07-14 01:21:00,
2013-07-13 19:22:00,62.5,54.5,30.10,NNE,24,1.0,3.0,75,0.01,,SKC,0.03,VWS V14.01,2013-07-14 01:22:00,
2013-07-13 19:23:00,62.5,54.1,30.10,NNW,333,1.0,3.0,74,0.01,,SKC,0.03,VWS V14.01,2013-07-14 01:23:00,
2013-07-13 19:24:00,62.6,54.2,30.11,NNW,333,3.0,4.0,74,0.01,,SKC,0.03,VWS V14.01,2013-07-14 01:24:00,
2013-07-13 19:25:00,62.6,54.6,30.11,NW,311,3.0,3.0,75,0.01,,SKC,0.03,VWS V14.01,2013-07-14 01:25:00,
2013-07-13 19:26:00,62.6,54.2,30.11,NW,318,8.0,8.0,74,0.01,,SKC,0.03,VWS V14.01,2013-07-14 01:26:00,
2013-07-13 19:27:00,62.6,54.2,30.11,NW,322,4.0,8.0,74,0.01,,SKC,0.03,VWS V14.01,2013-07-14 01:27:00,
2013-07-13 19:28:00,62.6,54.9,30.11,NNW,333,0.0,7.0,76,0.01,,SKC,0.03,VWS V14.01,2013-07-14 01:28:00,
2013-07-13 19:29:00,62.6,54.6,30.11,NW,306,9.0,12.0,75,0.01,,SKC,0.03,VWS V14.01,2013-07-14 01:29:00,
2013-07-13 19:30:00,62.6,54.6,30.11,North,360,9.0,11.0,75,0.01,,SKC,0.03,VWS V14.01,2013-07-14 01:30:00,
2013-07-13 19:31:00,62.6,54.2,30.11,NNW,327,3.0,11.0,74,0.01,,SKC,0.03,VWS V14.01,2013-07-14 01:31:00,
2013-07-13 19:32:00,62.5,54.1,30.11,North,360,5.0,10.0,74,0.01,,SKC,0.03,VWS V14.01,2013-07-14 01:32:00,
2013-07-13 19:33:00,62.6,54.6,30.10,North,360,4.0,6.0,75,0.01,,SKC,0.03,VWS V14.01,2013-07-14 01:33:00,
2013-07-13 19:34:00,62.6,54.6,30.11,North,349,7.0,11.0,75,0.01,,SKC,0.03,VWS V14.01,2013-07-14 01:34:00,
2013-07-13 19:35:00,62.6,54.9,30.10,NNW,332,5.0,9.0,76,0.01,,SKC,0.03,VWS V14.01,2013-07-14 01:35:00,
2013-07-13 19:36:00,62.6,54.9,30.10,NW,324,6.0,11.0,76,0.01,,SKC,0.03,VWS V14.01,2013-07-14 01:36:00,
2013-07-13 19:37:00,62.6,54.9,30.10,North,9,0.0,6.0,76,0.01,,SKC,0.03,VWS V14.01,2013-07-14 01:37:00,
2013-07-13 19:38:00,62.5,54.8,30.10,NW,317,0.0,3.0,76,0.01,,SKC,0.03,VWS V14.01,2013-07-14 01:38:00,
2013-07-13 19:39:00,62.5,54.8,30.10,NNE,30,1.0,5.0,76,0.01,,SKC,0.03,VWS V14.01,2013-07-14 01:39:00,
2013-07-13 19:40:00,62.4,54.7,30.10,North,360,2.0,3.0,76,0.01,,SKC,0.03,VWS V14.01,2013-07-14 01:40:00,
2013-07-13 19:41:00,62.3,54.7,30.10,NW,313,6.0,10.0,76,0.01,,SKC,0.03,VWS V14.01,2013-07-14 01:41:00,
2013-07-13 19:42:00,62.3,54.3,30.10,North,360,8.0,8.0,75,0.01,,SKC,0.03,VWS V14.01,2013-07-14 01:42:00,
2013-07-13 19:43:00,62.3,54.7,30.10,WNW,299,2.0,8.0,76,0.01,,SKC,0.03,VWS V14.01,2013-07-14 01:43:00,
2013-07-13 19:44:00,62.2,54.5,30.10,WNW,302,6.0,9.0,76,0.01,,SKC,0.03,VWS V14.01,2013-07-14 01:44:00,
2013-07-13 19:45:00,62.2,55.3,30.09,NW,317,2.0,6.0,78,0.01,,SKC,0.03,VWS V14.01,2013-07-14 01:45:00,
2013-07-13 19:46:00,62.1,55.2,30.10,WNW,286,4.0,5.0,78,0.01,,SKC,0.03,VWS V14.01,2013-07-14 01:46:00,
2013-07-13 19:47:00,62.0,55.4,30.09,WNW,290,2.0,4.0,79,0.01,,SKC,0.03,VWS V14.01,2013-07-14 01:47:00,
2013-07-13 19:48:00,62.0,55.8,30.09,WNW,289,2.0,2.0,80,0.01,,SKC,0.03,VWS V14.01,2013-07-14 01:48:00,
2013-07-13 19:49:00,61.8,55.6,30.09,WNW,289,3.0,3.0,80,0.01,,SKC,0.03,VWS V14.01,2013-07-14 01:49:00,
2013-07-13 19:50:00,61.7,55.5,30.09,WSW,250,3.0,5.0,80,0.01,,SKC,0.03,VWS V14.01,2013-07-14 01:50:00,
2013-07-13 19:51:00,61.6,55.7,30.09,North,360,0.0,4.0,81,0.01,,SKC,0.03,VWS V14.01,2013-07-14 01:51:00,
2013-07-13 19:52:00,61.5,55.6,30.09,SW,230,0.0,1.0,81,0.01,,SKC,0.03,VWS V14.01,2013-07-14 01:52:00,
2013-07-13 19:53:00,61.4,55.5,30.09,SW,234,1.0,1.0,81,0.01,,SKC,0.03,VWS V14.01,2013-07-14 01:53:00,
2013-07-13 19:54:00,61.3,55.4,30.09,SW,233,0.0,1.0,81,0.01,,SKC,0.03,VWS V14.01,2013-07-14 01:54:00,
2013-07-13 19:55:00,61.2,55.3,30.09,SW,234,0.0,1.0,81,0.01,,SKC,0.03,VWS V14.01,2013-07-14 01:55:00,
2013-07-13 19:56:00,61.1,55.2,30.10,NW,317,0.0,3.0,81,0.01,,SKC,0.03,VWS V14.01,2013-07-14 01:56:00,
2013-07-13 19:57:00,61.1,55.6,30.09,NW,315,0.0,1.0,82,0.01,,SKC,0.03,VWS V14.01,2013-07-14 01:57:00,
2013-07-13 19:58:00,61.0,55.5,30.09,NW,321,2.0,2.0,82,0.01,,SKC,0.03,VWS V14.01,2013-07-14 01:58:00,
2013-07-13 20:08:00,60.7,54.5,30.09,NW,315,2.0,3.0,80,0.01,,SKC,0.03,VWS V14.01,2013-07-14 02:08:00,
2013-07-13 20:09:00,60.6,54.1,30.09,WNW,298,5.0,5.0,79,0.01,,SKC,0.03,VWS V14.01,2013-07-14 02:09:00,
2013-07-13 20:10:00,60.6,54.1,30.09,WNW,300,6.0,6.0,79,0.01,,SKC,0.03,VWS V14.01,2013-07-14 02:10:00,
2013-07-13 20:11:00,60.7,53.8,30.09,WNW,291,4.0,6.0,78,0.01,,SKC,0.03,VWS V14.01,2013-07-14 02:11:00,
2013-07-13 20:21:00,60.7,53.1,30.09,WNW,290,4.0,6.0,76,0.01,,SKC,0.03,VWS V14.01,2013-07-14 02:21:00,
2013-07-13 20:27:00,60.7,52.7,30.08,NW,319,4.0,4.0,75,0.00,,SKC,0.03,VWS V14.01,2013-07-14 02:27:00,
2013-07-13 20:33:00,60.7,53.1,30.09,North,360,0.0,0.0,76,0.00,,SKC,0.03,VWS V14.01,2013-07-14 02:33:00,
2013-07-13 20:39:00,60.6,53.4,30.09,NNW,348,0.0,0.0,77,0.00,,SKC,0.03,VWS V14.01,2013-07-14 02:39:00,
2013-07-13 20:45:00,60.6,53.0,30.09,North,351,3.0,3.0,76,0.00,,SKC,0.03,VWS V14.01,2013-07-14 02:45:00,
2013-07-13 20:50:00,60.4,52.8,30.09,North,350,0.0,0.0,76,0.00,,SKC,0.03,VWS V14.01,2013-07-14 02:50:00,
2013-07-13 20:55:00,60.2,52.6,30.09,North,350,2.0,4.0,76,0.00,,SKC,0.03,VWS V14.01,2013-07-14 02:55:00,
2013-07-13 21:00:00,60.2,53.0,30.10,North,350,0.0,0.0,77,0.00,,SKC,0.03,VWS V14.01,2013-07-14 03:00:00,
2013-07-13 21:06:00,60.2,53.3,30.09,NNE,20,0.0,1.0,78,0.00,,SKC,0.03,VWS V14.01,2013-07-14 03:06:00,
2013-07-13 21:11:00,60.0,53.5,30.09,NNE,26,1.0,2.0,79,0.00,,SKC,0.03,VWS V14.01,2013-07-14 03:11:00,
2013-07-13 21:16:00,59.6,53.1,30.09,NW,312,2.0,5.0,79,0.00,,SKC,0.03,VWS V14.01,2013-07-14 03:16:00,
2013-07-13 21:21:00,59.6,52.7,30.09,North,360,0.0,0.0,78,0.00,,SKC,0.03,VWS V14.01,2013-07-14 03:21:00,
2013-07-13 21:27:00,59.6,53.4,30.09,NW,306,1.0,1.0,80,0.00,,SKC,0.03,VWS V14.01,2013-07-14 03:27:00,
2013-07-13 21:33:00,59.2,52.7,30.10,NW,312,1.0,1.0,79,0.00,,SKC,0.03,VWS V14.01,2013-07-14 03:33:00,
2013-07-13 21:38:00,59.0,53.2,30.10,NW,311,1.0,1.0,81,0.00,,SKC,0.03,VWS V14.01,2013-07-14 03:38:00,
2013-07-13 21:43:00,59.0,53.2,30.11,NW,312,0.0,0.0,81,0.00,,SKC,0.03,VWS V14.01,2013-07-14 03:43:00,
2013-07-13 21:49:00,59.0,53.2,30.11,NW,312,0.0,1.0,81,0.00,,SKC,0.03,VWS V14.01,2013-07-14 03:49:00,
2013-07-13 21:54:00,59.0,53.2,30.12,NW,312,0.0,0.0,81,0.00,,SKC,0.03,VWS V14.01,2013-07-14 03:54:00,
2013-07-13 21:59:00,59.0,53.2,30.12,NW,311,0.0,0.0,81,0.00,,SKC,0.03,VWS V14.01,2013-07-14 03:59:00,
2013-07-13 22:01:00,59.0,53.2,30.12,NW,311,0.0,0.0,81,0.00,,SKC,0.03,VWS V14.01,2013-07-14 04:01:00,
2013-07-13 22:02:00,59.0,53.2,30.12,NW,308,0.0,0.0,81,0.00,,SKC,0.03,VWS V14.01,2013-07-14 04:02:00,
2013-07-13 22:04:00,59.0,53.2,30.13,North,360,0.0,0.0,81,0.00,,SKC,0.03,VWS V14.01,2013-07-14 04:04:00,
2013-07-13 22:09:00,59.0,53.2,30.13,NW,311,0.0,0.0,81,0.00,,SKC,0.03,VWS V14.01,2013-07-14 04:09:00,
2013-07-13 22:12:00,59.0,53.2,30.13,NW,309,0.0,0.0,81,0.00,,SKC,0.03,VWS V14.01,2013-07-14 04:12:00,
2013-07-13 22:18:00,59.0,53.5,30.13,NW,312,0.0,0.0,82,0.00,,SKC,0.03,VWS V14.01,2013-07-14 04:18:00,
2013-07-13 22:23:00,59.0,53.5,30.13,North,360,0.0,0.0,82,0.00,,SKC,0.03,VWS V14.01,2013-07-14 04:23:00,
2013-07-13 22:28:00,59.0,53.5,30.13,North,360,0.0,0.0,82,0.00,,SKC,0.03,VWS V14.01,2013-07-14 04:28:00,
2013-07-13 22:33:00,58.8,53.3,30.14,NW,304,0.0,0.0,82,0.00,,SKC,0.03,VWS V14.01,2013-07-14 04:33:00,
2013-07-13 22:39:00,58.8,53.3,30.14,NW,315,0.0,0.0,82,0.00,,SKC,0.03,VWS V14.01,2013-07-14 04:39:00,
2013-07-13 22:44:00,58.7,53.2,30.14,NW,313,0.0,0.0,82,0.00,,SKC,0.03,VWS V14.01,2013-07-14 04:44:00,
2013-07-13 22:49:00,58.6,53.1,30.14,NW,309,0.0,1.0,82,0.00,,SKC,0.03,VWS V14.01,2013-07-14 04:49:00,
2013-07-13 22:54:00,58.5,53.0,30.14,NW,314,0.0,0.0,82,0.00,,SKC,0.03,VWS V14.01,2013-07-14 04:54:00,
2013-07-13 23:00:00,58.4,53.3,30.14,NW,311,0.0,0.0,83,0.00,,SKC,0.03,VWS V14.01,2013-07-14 05:00:00,
2013-07-13 23:06:00,58.3,53.2,30.14,NW,312,0.0,0.0,83,0.00,,SKC,0.03,VWS V14.01,2013-07-14 05:06:00,
2013-07-13 23:12:00,58.2,53.1,30.13,NW,313,0.0,0.0,83,0.00,,SKC,0.03,VWS V14.01,2013-07-14 05:12:00,
2013-07-13 23:18:00,58.4,53.3,30.13,NW,313,0.0,1.0,83,0.00,,SKC,0.03,VWS V14.01,2013-07-14 05:18:00,
2013-07-13 23:23:00,58.3,53.2,30.13,NW,315,0.0,0.0,83,0.00,,SKC,0.03,VWS V14.01,2013-07-14 05:23:00,
2013-07-13 23:28:00,58.2,53.4,30.13,NW,313,0.0,1.0,84,0.00,,SKC,0.03,VWS V14.01,2013-07-14 05:28:00,
2013-07-13 23:33:00,58.0,52.9,30.13,NW,313,0.0,0.0,83,0.00,,SKC,0.03,VWS V14.01,2013-07-14 05:33:00,
2013-07-13 23:39:00,57.7,52.9,30.13,NW,309,0.0,0.0,84,0.00,,SKC,0.03,VWS V14.01,2013-07-14 05:39:00,
2013-07-13 23:45:00,57.7,52.9,30.14,NW,311,0.0,1.0,84,0.00,,SKC,0.03,VWS V14.01,2013-07-14 05:45:00,
2013-07-13 23:50:00,57.7,52.9,30.12,North,360,0.0,0.0,84,0.00,,SKC,0.03,VWS V14.01,2013-07-14 05:50:00,
2013-07-13 23:55:00,57.6,53.1,30.12,NW,310,0.0,0.0,85,0.00,,SKC,0.03,VWS V14.01,2013-07-14 05:55:00,